Wetterdaten: Freitag, 25.11.2016
Datum Zeit Temp. A. Temp. A. max Feuchte A. Luftdruck Regen Wind Richtung Richtung Sonnenschein ET UV Solar Taupunkt Windböen
25.11.2016 00:00 2,8 °C 2,8 °C 96 % 1015,7 hPa 0,0 mm 3,8 km/h (1 Bft) NO 43 ° 0 min 0,000 mm 0,0 UV-I 0 W/m² 2,2 °C 4,8 km/h (1 Bft)
25.11.2016 00:01 2,8 °C 2,8 °C 96 % 1015,7 hPa 0,0 mm 3,4 km/h (1 Bft) O-NO 60 ° 0 min 0,000 mm 0,0 UV-I 0 W/m² 2,2 °C 6,4 km/h (2 Bft)
25.11.2016 00:02 2,8 °C 2,8 °C 96 % 1015,7 hPa 0,0 mm 4,5 km/h (1 Bft) O-NO 63 ° 0 min 0,000 mm 0,0 UV-I 0 W/m² 2,2 °C 6,4 km/h (2 Bft)
25.11.2016 00:04 2,8 °C 2,8 °C 96 % 1015,8 hPa 0,0 mm 3,8 km/h (1 Bft) O-NO 72 ° 0 min 0,000 mm 0,0 UV-I 0 W/m² 2,2 °C 8,0 km/h (2 Bft)
25.11.2016 00:05 2,8 °C 2,8 °C 96 % 1015,8 hPa 0,0 mm 4,4 km/h (1 Bft) NO 46 ° 0 min 0,000 mm 0,0 UV-I 0 W/m² 2,2 °C 6,4 km/h (2 Bft)
25.11.2016 00:06 2,8 °C 2,8 °C 96 % 1015,8 hPa 0,0 mm 3,8 km/h (1 Bft) O-NO 65 ° 0 min 0,000 mm 0,0 UV-I 0 W/m² 2,2 °C 4,8 km/h (1 Bft)
25.11.2016 00:07 2,8 °C 2,8 °C 96 % 1015,8 hPa 0,0 mm 3,2 km/h (1 Bft) NO 50 ° 0 min 0,000 mm 0,0 UV-I 0 W/m² 2,2 °C 4,8 km/h (1 Bft)
25.11.2016 00:08 2,8 °C 2,8 °C 96 % 1015,9 hPa 0,0 mm 2,1 km/h (1 Bft) O-SO 113 ° 0 min 0,000 mm 0,0 UV-I 0 W/m² 2,2 °C 6,4 km/h (2 Bft)
25.11.2016 00:09 2,8 °C 2,8 °C 96 % 1015,9 hPa 0,0 mm 4,0 km/h (1 Bft) O-NO 61 ° 0 min 0,000 mm 0,0 UV-I 0 W/m² 2,2 °C 6,4 km/h (2 Bft)
25.11.2016 00:10 2,8 °C 2,8 °C 96 % 1015,9 hPa 0,0 mm 3,5 km/h (1 Bft) O-NO 65 ° 0 min 0,000 mm 0,0 UV-I 0 W/m² 2,2 °C 6,4 km/h (2 Bft)
25.11.2016 00:11 2,8 °C 2,8 °C 96 % 1015,9 hPa 0,0 mm 7,5 km/h (2 Bft) NO 37 ° 0 min 0,000 mm 0,0 UV-I 0 W/m² 2,2 °C 12,9 km/h (3 Bft)
25.11.2016 00:12 2,8 °C 2,8 °C 96 % 1015,9 hPa 0,0 mm 4,8 km/h (1 Bft) NO 38 ° 0 min 0,000 mm 0,0 UV-I 0 W/m² 2,2 °C 9,7 km/h (2 Bft)
25.11.2016 00:13 2,8 °C 2,8 °C 96 % 1015,8 hPa 0,0 mm 5,6 km/h (1 Bft) O 80 ° 0 min 0,000 mm 0,0 UV-I 0 W/m² 2,2 °C 8,0 km/h (2 Bft)
25.11.2016 00:14 2,8 °C 2,8 °C 96 % 1015,7 hPa 0,0 mm 6,4 km/h (2 Bft) O-NO 76 ° 0 min 0,000 mm 0,0 UV-I 0 W/m² 2,2 °C 16,1 km/h (3 Bft)
25.11.2016 00:15 2,8 °C 2,8 °C 96 % 1015,8 hPa 0,0 mm 5,6 km/h (1 Bft) N-NO 22 ° 0 min 0,000 mm 0,0 UV-I 0 W/m² 2,2 °C 12,9 km/h (3 Bft)
25.11.2016 00:16 2,7 °C 2,8 °C 96 % 1015,8 hPa 0,0 mm 4,4 km/h (1 Bft) NO 53 ° 0 min 0,000 mm 0,0 UV-I 0 W/m² 2,1 °C 6,4 km/h (2 Bft)
25.11.2016 00:17 2,7 °C 2,7 °C 96 % 1015,7 hPa 0,0 mm 4,4 km/h (1 Bft) N-NO 14 ° 0 min 0,000 mm 0,0 UV-I 0 W/m² 2,1 °C 6,4 km/h (2 Bft)
25.11.2016 00:18 2,7 °C 2,8 °C 96 % 1015,7 hPa 0,0 mm 5,7 km/h (1 Bft) NO 47 ° 0 min 0,000 mm 0,0 UV-I 0 W/m² 2,1 °C 8,0 km/h (2 Bft)
25.11.2016 00:19 2,7 °C 2,7 °C 96 % 1015,7 hPa 0,0 mm 4,3 km/h (1 Bft) O 82 ° 0 min 0,000 mm 0,0 UV-I 0 W/m² 2,1 °C 8,0 km/h (2 Bft)
25.11.2016 00:20 2,7 °C 2,8 °C 96 % 1015,8 hPa 0,0 mm 2,4 km/h (1 Bft) O 82 ° 0 min 0,000 mm 0,0 UV-I 0 W/m² 2,1 °C 6,4 km/h (2 Bft)
25.11.2016 00:21 2,7 °C 2,8 °C 96 % 1015,7 hPa 0,0 mm 3,9 km/h (1 Bft) O-NO 57 ° 0 min 0,000 mm 0,0 UV-I 0 W/m² 2,1 °C 6,4 km/h (2 Bft)
25.11.2016 00:22 2,7 °C 2,8 °C 96 % 1015,8 hPa 0,0 mm 5,6 km/h (1 Bft) O 86 ° 0 min 0,000 mm 0,0 UV-I 0 W/m² 2,1 °C 8,0 km/h (2 Bft)
25.11.2016 00:23 2,7 °C 2,7 °C 96 % 1015,7 hPa 0,0 mm 3,9 km/h (1 Bft) O-NO 65 ° 0 min 0,000 mm 0,0 UV-I 0 W/m² 2,1 °C 6,4 km/h (2 Bft)
25.11.2016 00:24 2,7 °C 2,7 °C 96 % 1015,7 hPa 0,0 mm 6,4 km/h (2 Bft) O-NO 69 ° 0 min 0,000 mm 0,0 UV-I 0 W/m² 2,1 °C 8,0 km/h (2 Bft)
25.11.2016 00:25 2,7 °C 2,7 °C 96 % 1015,6 hPa 0,0 mm 6,0 km/h (2 Bft) NO 46 ° 0 min 0,000 mm 0,0 UV-I 0 W/m² 2,1 °C 8,0 km/h (2 Bft)
25.11.2016 00:26 2,8 °C 2,8 °C 96 % 1015,6 hPa 0,0 mm 2,2 km/h (1 Bft) O-NO 76 ° 0 min 0,000 mm 0,0 UV-I 0 W/m² 2,2 °C 6,4 km/h (2 Bft)
25.11.2016 00:27 2,8 °C 2,8 °C 96 % 1015,6 hPa 0,0 mm 5,9 km/h (2 Bft) O-NO 67 ° 0 min 0,000 mm 0,0 UV-I 0 W/m² 2,2 °C 12,9 km/h (3 Bft)
25.11.2016 00:28 2,7 °C 2,8 °C 96 % 1015,7 hPa 0,0 mm 9,1 km/h (2 Bft) O 82 ° 0 min 0,000 mm 0,0 UV-I 0 W/m² 2,1 °C 12,9 km/h (3 Bft)
25.11.2016 00:29 2,8 °C 2,8 °C 96 % 1015,7 hPa 0,0 mm 5,5 km/h (1 Bft) O-SO 106 ° 0 min 0,000 mm 0,0 UV-I 0 W/m² 2,2 °C 8,0 km/h (2 Bft)
25.11.2016 00:30 2,8 °C 2,8 °C 96 % 1015,6 hPa 0,0 mm 5,1 km/h (1 Bft) O-NO 63 ° 0 min 0,000 mm 0,0 UV-I 0 W/m² 2,2 °C 8,0 km/h (2 Bft)
25.11.2016 00:31 2,8 °C 2,8 °C 96 % 1015,7 hPa 0,0 mm 3,6 km/h (1 Bft) O-NO 64 ° 0 min 0,000 mm 0,0 UV-I 0 W/m² 2,2 °C 4,8 km/h (1 Bft)
25.11.2016 00:32 2,8 °C 2,8 °C 96 % 1015,6 hPa 0,0 mm 4,1 km/h (1 Bft) O-NO 78 ° 0 min 0,000 mm 0,0 UV-I 0 W/m² 2,2 °C 6,4 km/h (2 Bft)
25.11.2016 00:33 2,8 °C 2,8 °C 96 % 1015,6 hPa 0,0 mm 3,0 km/h (1 Bft) O 90 ° 0 min 0,000 mm 0,0 UV-I 0 W/m² 2,2 °C 4,8 km/h (1 Bft)
25.11.2016 00:34 2,8 °C 2,8 °C 96 % 1015,6 hPa 0,0 mm 3,6 km/h (1 Bft) NO 49 ° 0 min 0,000 mm 0,0 UV-I 0 W/m² 2,2 °C 4,8 km/h (1 Bft)
25.11.2016 00:35 2,8 °C 2,8 °C 96 % 1015,5 hPa 0,0 mm 5,1 km/h (1 Bft) O-NO 57 ° 0 min 0,000 mm 0,0 UV-I 0 W/m² 2,2 °C 9,7 km/h (2 Bft)
25.11.2016 00:36 2,8 °C 2,8 °C 96 % 1015,5 hPa 0,0 mm 6,9 km/h (2 Bft) O-NO 75 ° 0 min 0,000 mm 0,0 UV-I 0 W/m² 2,2 °C 11,3 km/h (2 Bft)
25.11.2016 00:37 2,8 °C 2,8 °C 96 % 1015,5 hPa 0,0 mm 6,6 km/h (2 Bft) O-NO 63 ° 0 min 0,000 mm 0,0 UV-I 0 W/m² 2,2 °C 9,7 km/h (2 Bft)
25.11.2016 00:38 2,8 °C 2,8 °C 96 % 1015,5 hPa 0,0 mm 9,0 km/h (2 Bft) O-NO 62 ° 0 min 0,000 mm 0,0 UV-I 0 W/m² 2,2 °C 12,9 km/h (3 Bft)
25.11.2016 00:39 2,8 °C 2,8 °C 96 % 1015,5 hPa 0,0 mm 7,6 km/h (2 Bft) NO 44 ° 0 min 0,000 mm 0,0 UV-I 0 W/m² 2,2 °C 11,3 km/h (2 Bft)
25.11.2016 00:40 2,8 °C 2,8 °C 96 % 1015,5 hPa 0,0 mm 3,6 km/h (1 Bft) O-NO 74 ° 0 min 0,000 mm 0,0 UV-I 0 W/m² 2,2 °C 6,4 km/h (2 Bft)
25.11.2016 00:41 2,8 °C 2,8 °C 96 % 1015,5 hPa 0,0 mm 4,8 km/h (1 Bft) O-NO 75 ° 0 min 0,000 mm 0,0 UV-I 0 W/m² 2,2 °C 8,0 km/h (2 Bft)
25.11.2016 00:42 2,8 °C 2,8 °C 96 % 1015,5 hPa 0,0 mm 7,3 km/h (2 Bft) O-NO 61 ° 0 min 0,000 mm 0,0 UV-I 0 W/m² 2,2 °C 11,3 km/h (2 Bft)
25.11.2016 00:43 2,8 °C 2,8 °C 96 % 1015,5 hPa 0,0 mm 4,9 km/h (1 Bft) O-NO 66 ° 0 min 0,000 mm 0,0 UV-I 0 W/m² 2,2 °C 6,4 km/h (2 Bft)
25.11.2016 00:44 2,8 °C 2,8 °C 96 % 1015,6 hPa 0,0 mm 5,8 km/h (2 Bft) NO 47 ° 0 min 0,000 mm 0,0 UV-I 0 W/m² 2,2 °C 11,3 km/h (2 Bft)
25.11.2016 00:45 2,8 °C 2,8 °C 96 % 1015,6 hPa 0,0 mm 4,3 km/h (1 Bft) O-NO 57 ° 0 min 0,000 mm 0,0 UV-I 0 W/m² 2,2 °C 6,4 km/h (2 Bft)
25.11.2016 00:46 2,8 °C 2,8 °C 96 % 1015,5 hPa 0,0 mm 5,2 km/h (1 Bft) S 184 ° 0 min 0,000 mm 0,0 UV-I 0 W/m² 2,2 °C 8,0 km/h (2 Bft)
25.11.2016 00:47 2,8 °C 2,8 °C 96 % 1015,4 hPa 0,0 mm 3,2 km/h (1 Bft) O 84 ° 0 min 0,000 mm 0,0 UV-I 0 W/m² 2,2 °C 6,4 km/h (2 Bft)
25.11.2016 00:48 2,8 °C 2,8 °C 96 % 1015,4 hPa 0,0 mm 5,8 km/h (2 Bft) NO 51 ° 0 min 0,000 mm 0,0 UV-I 0 W/m² 2,2 °C 8,0 km/h (2 Bft)
25.11.2016 00:49 2,8 °C 2,8 °C 96 % 1015,5 hPa 0,0 mm 6,1 km/h (2 Bft) O-NO 74 ° 0 min 0,000 mm 0,0 UV-I 0 W/m² 2,2 °C 9,7 km/h (2 Bft)
25.11.2016 00:50 2,8 °C 2,8 °C 96 % 1015,5 hPa 0,0 mm 4,6 km/h (1 Bft) NO 53 ° 0 min 0,000 mm 0,0 UV-I 0 W/m² 2,2 °C 8,0 km/h (2 Bft)
25.11.2016 00:51 2,8 °C 2,8 °C 96 % 1015,5 hPa 0,0 mm 7,0 km/h (2 Bft) O-NO 67 ° 0 min 0,000 mm 0,0 UV-I 0 W/m² 2,2 °C 9,7 km/h (2 Bft)
25.11.2016 00:52 2,8 °C 2,8 °C 96 % 1015,5 hPa 0,0 mm 6,6 km/h (2 Bft) NO 43 ° 0 min 0,000 mm 0,0 UV-I 0 W/m² 2,2 °C 9,7 km/h (2 Bft)
25.11.2016 00:53 2,8 °C 2,8 °C 96 % 1015,5 hPa 0,0 mm 8,4 km/h (2 Bft) O-NO 68 ° 0 min 0,000 mm 0,0 UV-I 0 W/m² 2,2 °C 12,9 km/h (3 Bft)
25.11.2016 00:54 2,8 °C 2,8 °C 96 % 1015,5 hPa 0,0 mm 6,2 km/h (2 Bft) O-NO 68 ° 0 min 0,000 mm 0,0 UV-I 0 W/m² 2,2 °C 8,0 km/h (2 Bft)
25.11.2016 00:55 2,8 °C 2,8 °C 96 % 1015,5 hPa 0,0 mm 5,7 km/h (1 Bft) O-NO 67 ° 0 min 0,000 mm 0,0 UV-I 0 W/m² 2,2 °C 8,0 km/h (2 Bft)
25.11.2016 00:56 2,8 °C 2,8 °C 96 % 1015,5 hPa 0,0 mm 3,8 km/h (1 Bft) O-NO 72 ° 0 min 0,000 mm 0,0 UV-I 0 W/m² 2,2 °C 4,8 km/h (1 Bft)
25.11.2016 00:57 2,8 °C 2,8 °C 96 % 1015,5 hPa 0,0 mm 5,8 km/h (2 Bft) O-NO 68 ° 0 min 0,000 mm 0,0 UV-I 0 W/m² 2,2 °C 9,7 km/h (2 Bft)
25.11.2016 00:58 2,9 °C 2,9 °C 96 % 1015,6 hPa 0,0 mm 5,6 km/h (1 Bft) O-NO 69 ° 0 min 0,000 mm 0,0 UV-I 0 W/m² 2,3 °C 11,3 km/h (2 Bft)
25.11.2016 00:59 2,8 °C 2,9 °C 96 % 1015,6 hPa 0,0 mm 10,0 km/h (2 Bft) O 85 ° 0 min 0,000 mm 0,0 UV-I 0 W/m² 2,2 °C 16,1 km/h (3 Bft)
25.11.2016 01:00 2,9 °C 2,9 °C 96 % 1015,6 hPa 0,0 mm 6,2 km/h (2 Bft) O-NO 69 ° 0 min 0,000 mm 0,0 UV-I 0 W/m² 2,3 °C 11,3 km/h (2 Bft)
25.11.2016 01:01 2,9 °C 2,9 °C 96 % 1015,6 hPa 0,0 mm 3,6 km/h (1 Bft) O-NO 71 ° 0 min 0,000 mm 0,0 UV-I 0 W/m² 2,3 °C 6,4 km/h (2 Bft)
25.11.2016 01:02 2,8 °C 2,9 °C 96 % 1015,6 hPa 0,0 mm 3,8 km/h (1 Bft) NO 46 ° 0 min 0,000 mm 0,0 UV-I 0 W/m² 2,2 °C 9,7 km/h (2 Bft)
25.11.2016 01:03 2,9 °C 2,9 °C 96 % 1015,6 hPa 0,0 mm 6,8 km/h (2 Bft) O 101 ° 0 min 0,000 mm 0,0 UV-I 0 W/m² 2,3 °C 8,0 km/h (2 Bft)
25.11.2016 01:04 2,8 °C 2,9 °C 96 % 1015,7 hPa 0,0 mm 7,6 km/h (2 Bft) O-NO 62 ° 0 min 0,000 mm 0,0 UV-I 0 W/m² 2,2 °C 16,1 km/h (3 Bft)
25.11.2016 01:05 2,9 °C 2,9 °C 96 % 1015,6 hPa 0,0 mm 7,0 km/h (2 Bft) O-NO 73 ° 0 min 0,000 mm 0,0 UV-I 0 W/m² 2,3 °C 12,9 km/h (3 Bft)
25.11.2016 01:06 2,9 °C 2,9 °C 96 % 1015,6 hPa 0,0 mm 9,1 km/h (2 Bft) O-NO 69 ° 0 min 0,000 mm 0,0 UV-I 0 W/m² 2,3 °C 14,5 km/h (3 Bft)
25.11.2016 01:07 2,9 °C 2,9 °C 96 % 1015,6 hPa 0,0 mm 4,0 km/h (1 Bft) O-NO 61 ° 0 min 0,000 mm 0,0 UV-I 0 W/m² 2,3 °C 6,4 km/h (2 Bft)
25.11.2016 01:08 2,9 °C 2,9 °C 96 % 1015,5 hPa 0,0 mm 5,3 km/h (1 Bft) O 79 ° 0 min 0,000 mm 0,0 UV-I 0 W/m² 2,3 °C 8,0 km/h (2 Bft)
25.11.2016 01:09 2,9 °C 2,9 °C 96 % 1015,5 hPa 0,0 mm 9,2 km/h (2 Bft) O 84 ° 0 min 0,000 mm 0,0 UV-I 0 W/m² 2,3 °C 16,1 km/h (3 Bft)
25.11.2016 01:10 2,8 °C 2,9 °C 96 % 1015,5 hPa 0,0 mm 7,1 km/h (2 Bft) O-NO 65 ° 0 min 0,000 mm 0,0 UV-I 0 W/m² 2,2 °C 11,3 km/h (2 Bft)
25.11.2016 01:11 2,9 °C 2,9 °C 96 % 1015,5 hPa 0,0 mm 6,0 km/h (2 Bft) O-NO 78 ° 0 min 0,000 mm 0,0 UV-I 0 W/m² 2,3 °C 11,3 km/h (2 Bft)
25.11.2016 01:12 2,9 °C 2,9 °C 96 % 1015,4 hPa 0,0 mm 5,5 km/h (1 Bft) O-NO 67 ° 0 min 0,000 mm 0,0 UV-I 0 W/m² 2,3 °C 8,0 km/h (2 Bft)
25.11.2016 01:13 2,9 °C 2,9 °C 96 % 1015,4 hPa 0,0 mm 7,9 km/h (2 Bft) O 80 ° 0 min 0,000 mm 0,0 UV-I 0 W/m² 2,3 °C 12,9 km/h (3 Bft)
25.11.2016 01:14 2,9 °C 2,9 °C 96 % 1015,4 hPa 0,0 mm 6,8 km/h (2 Bft) NO 37 ° 0 min 0,000 mm 0,0 UV-I 0 W/m² 2,3 °C 11,3 km/h (2 Bft)
25.11.2016 01:15 2,8 °C 2,9 °C 96 % 1015,4 hPa 0,0 mm 2,8 km/h (1 Bft) NO 45 ° 0 min 0,000 mm 0,0 UV-I 0 W/m² 2,2 °C 4,8 km/h (1 Bft)
25.11.2016 01:16 2,9 °C 2,9 °C 96 % 1015,4 hPa 0,0 mm 5,6 km/h (1 Bft) O-NO 71 ° 0 min 0,000 mm 0,0 UV-I 0 W/m² 2,3 °C 8,0 km/h (2 Bft)
25.11.2016 01:17 2,9 °C 2,9 °C 96 % 1015,4 hPa 0,0 mm 4,8 km/h (1 Bft) NO 43 ° 0 min 0,000 mm 0,0 UV-I 0 W/m² 2,3 °C 6,4 km/h (2 Bft)
25.11.2016 01:18 2,9 °C 2,9 °C 96 % 1015,3 hPa 0,0 mm 5,3 km/h (1 Bft) O-NO 72 ° 0 min 0,000 mm 0,0 UV-I 0 W/m² 2,3 °C 8,0 km/h (2 Bft)
25.11.2016 01:19 2,9 °C 2,9 °C 96 % 1015,4 hPa 0,0 mm 4,2 km/h (1 Bft) O-NO 76 ° 0 min 0,000 mm 0,0 UV-I 0 W/m² 2,3 °C 8,0 km/h (2 Bft)
25.11.2016 01:20 2,9 °C 2,9 °C 96 % 1015,4 hPa 0,0 mm 8,5 km/h (2 Bft) O-NO 71 ° 0 min 0,000 mm 0,0 UV-I 0 W/m² 2,3 °C 12,9 km/h (3 Bft)
25.11.2016 01:21 2,9 °C 2,9 °C 96 % 1015,3 hPa 0,0 mm 7,5 km/h (2 Bft) NO 40 ° 0 min 0,000 mm 0,0 UV-I 0 W/m² 2,3 °C 11,3 km/h (2 Bft)
25.11.2016 01:22 2,9 °C 2,9 °C 96 % 1015,3 hPa 0,0 mm 4,4 km/h (1 Bft) O 82 ° 0 min 0,000 mm 0,0 UV-I 0 W/m² 2,3 °C 6,4 km/h (2 Bft)
25.11.2016 01:23 2,9 °C 2,9 °C 96 % 1015,3 hPa 0,0 mm 2,3 km/h (1 Bft) O-SO 109 ° 0 min 0,000 mm 0,0 UV-I 0 W/m² 2,3 °C 3,2 km/h (1 Bft)
25.11.2016 01:24 2,9 °C 2,9 °C 96 % 1015,4 hPa 0,0 mm 2,5 km/h (1 Bft) O-NO 57 ° 0 min 0,000 mm 0,0 UV-I 0 W/m² 2,3 °C 6,4 km/h (2 Bft)
25.11.2016 01:25 2,9 °C 2,9 °C 96 % 1015,3 hPa 0,0 mm 6,7 km/h (2 Bft) O-NO 78 ° 0 min 0,000 mm 0,0 UV-I 0 W/m² 2,3 °C 11,3 km/h (2 Bft)
25.11.2016 01:26 2,9 °C 2,9 °C 96 % 1015,2 hPa 0,0 mm 7,0 km/h (2 Bft) NO 55 ° 0 min 0,000 mm 0,0 UV-I 0 W/m² 2,3 °C 9,7 km/h (2 Bft)
25.11.2016 01:27 2,9 °C 2,9 °C 96 % 1015,3 hPa 0,0 mm 5,4 km/h (1 Bft) O-NO 63 ° 0 min 0,000 mm 0,0 UV-I 0 W/m² 2,3 °C 9,7 km/h (2 Bft)
25.11.2016 01:28 2,9 °C 2,9 °C 96 % 1015,3 hPa 0,0 mm 4,6 km/h (1 Bft) O 92 ° 0 min 0,000 mm 0,0 UV-I 0 W/m² 2,3 °C 9,7 km/h (2 Bft)
25.11.2016 01:29 2,9 °C 2,9 °C 96 % 1015,3 hPa 0,0 mm 6,8 km/h (2 Bft) O-SO 106 ° 0 min 0,000 mm 0,0 UV-I 0 W/m² 2,3 °C 11,3 km/h (2 Bft)
25.11.2016 01:30 2,9 °C 2,9 °C 96 % 1015,4 hPa 0,0 mm 3,9 km/h (1 Bft) O-NO 70 ° 0 min 0,000 mm 0,0 UV-I 0 W/m² 2,3 °C 4,8 km/h (1 Bft)
25.11.2016 01:31 2,9 °C 2,9 °C 96 % 1015,4 hPa 0,0 mm 5,1 km/h (1 Bft) O 90 ° 0 min 0,000 mm 0,0 UV-I 0 W/m² 2,3 °C 6,4 km/h (2 Bft)
25.11.2016 01:32 2,9 °C 2,9 °C 96 % 1015,4 hPa 0,0 mm 2,7 km/h (1 Bft) O-SO 103 ° 0 min 0,000 mm 0,0 UV-I 0 W/m² 2,3 °C 4,8 km/h (1 Bft)
25.11.2016 01:33 2,9 °C 2,9 °C 96 % 1015,4 hPa 0,0 mm 5,3 km/h (1 Bft) O-NO 74 ° 0 min 0,000 mm 0,0 UV-I 0 W/m² 2,3 °C 11,3 km/h (2 Bft)
25.11.2016 01:34 2,9 °C 2,9 °C 96 % 1015,3 hPa 0,0 mm 5,7 km/h (1 Bft) O-NO 63 ° 0 min 0,000 mm 0,0 UV-I 0 W/m² 2,3 °C 12,9 km/h (3 Bft)
25.11.2016 01:35 2,9 °C 2,9 °C 96 % 1015,3 hPa 0,0 mm 9,9 km/h (2 Bft) O 101 ° 0 min 0,000 mm 0,0 UV-I 0 W/m² 2,3 °C 14,5 km/h (3 Bft)
25.11.2016 01:36 2,9 °C 2,9 °C 96 % 1015,4 hPa 0,0 mm 6,4 km/h (2 Bft) O-NO 67 ° 0 min 0,000 mm 0,0 UV-I 0 W/m² 2,3 °C 11,3 km/h (2 Bft)
25.11.2016 01:37 2,9 °C 2,9 °C 96 % 1015,4 hPa 0,0 mm 6,1 km/h (2 Bft) O 85 ° 0 min 0,000 mm 0,0 UV-I 0 W/m² 2,3 °C 8,0 km/h (2 Bft)
25.11.2016 01:38 2,9 °C 2,9 °C 96 % 1015,4 hPa 0,0 mm 5,9 km/h (2 Bft) O 86 ° 0 min 0,000 mm 0,0 UV-I 0 W/m² 2,3 °C 9,7 km/h (2 Bft)
25.11.2016 01:39 2,9 °C 2,9 °C 96 % 1015,4 hPa 0,0 mm 6,2 km/h (2 Bft) O-NO 69 ° 0 min 0,000 mm 0,0 UV-I 0 W/m² 2,3 °C 9,7 km/h (2 Bft)
25.11.2016 01:40 2,9 °C 3,0 °C 96 % 1015,4 hPa 0,0 mm 3,2 km/h (1 Bft) O 96 ° 0 min 0,000 mm 0,0 UV-I 0 W/m² 2,3 °C 6,4 km/h (2 Bft)
25.11.2016 01:41 2,9 °C 2,9 °C 96 % 1015,3 hPa 0,0 mm 3,8 km/h (1 Bft) O-NO 61 ° 0 min 0,000 mm 0,0 UV-I 0 W/m² 2,3 °C 9,7 km/h (2 Bft)
25.11.2016 01:42 2,9 °C 2,9 °C 96 % 1015,3 hPa 0,0 mm 7,2 km/h (2 Bft) O-NO 75 ° 0 min 0,000 mm 0,0 UV-I 0 W/m² 2,3 °C 11,3 km/h (2 Bft)
25.11.2016 01:43 3,0 °C 3,0 °C 96 % 1015,3 hPa 0,0 mm 4,6 km/h (1 Bft) O 80 ° 0 min 0,000 mm 0,0 UV-I 0 W/m² 2,4 °C 12,9 km/h (3 Bft)
25.11.2016 01:44 3,0 °C 3,0 °C 96 % 1015,3 hPa 0,0 mm 6,9 km/h (2 Bft) O-NO 64 ° 0 min 0,000 mm 0,0 UV-I 0 W/m² 2,4 °C 11,3 km/h (2 Bft)
25.11.2016 01:45 2,9 °C 3,0 °C 96 % 1015,3 hPa 0,0 mm 4,4 km/h (1 Bft) NO 51 ° 0 min 0,000 mm 0,0 UV-I 0 W/m² 2,3 °C 8,0 km/h (2 Bft)
25.11.2016 01:46 2,9 °C 3,0 °C 96 % 1015,3 hPa 0,0 mm 5,8 km/h (2 Bft) O-NO 66 ° 0 min 0,000 mm 0,0 UV-I 0 W/m² 2,3 °C 8,0 km/h (2 Bft)
25.11.2016 01:47 2,9 °C 3,0 °C 96 % 1015,3 hPa 0,0 mm 5,0 km/h (1 Bft) O 91 ° 0 min 0,000 mm 0,0 UV-I 0 W/m² 2,3 °C 9,7 km/h (2 Bft)
25.11.2016 01:48 3,0 °C 3,0 °C 96 % 1015,3 hPa 0,0 mm 5,0 km/h (1 Bft) O-NO 68 ° 0 min 0,000 mm 0,0 UV-I 0 W/m² 2,4 °C 6,4 km/h (2 Bft)
25.11.2016 01:49 3,0 °C 3,0 °C 96 % 1015,3 hPa 0,0 mm 5,0 km/h (1 Bft) O 101 ° 0 min 0,000 mm 0,0 UV-I 0 W/m² 2,4 °C 8,0 km/h (2 Bft)
25.11.2016 01:50 3,0 °C 3,0 °C 96 % 1015,3 hPa 0,0 mm 3,3 km/h (1 Bft) O-NO 70 ° 0 min 0,000 mm 0,0 UV-I 0 W/m² 2,4 °C 4,8 km/h (1 Bft)
25.11.2016 01:51 3,0 °C 3,0 °C 96 % 1015,3 hPa 0,0 mm 1,3 km/h (1 Bft) O-NO 70 ° 0 min 0,000 mm 0,0 UV-I 0 W/m² 2,4 °C 3,2 km/h (1 Bft)
25.11.2016 01:52 3,0 °C 3,0 °C 96 % 1015,2 hPa 0,0 mm 1,5 km/h (1 Bft) O-NO 70 ° 0 min 0,000 mm 0,0 UV-I 0 W/m² 2,4 °C 3,2 km/h (1 Bft)
25.11.2016 01:53 3,0 °C 3,0 °C 96 % 1015,1 hPa 0,0 mm 4,2 km/h (1 Bft) O-NO 61 ° 0 min 0,000 mm 0,0 UV-I 0 W/m² 2,4 °C 6,4 km/h (2 Bft)
25.11.2016 01:54 3,0 °C 3,0 °C 96 % 1015,1 hPa 0,0 mm 4,0 km/h (1 Bft) O-NO 66 ° 0 min 0,000 mm 0,0 UV-I 0 W/m² 2,4 °C 6,4 km/h (2 Bft)
25.11.2016 01:55 3,0 °C 3,0 °C 96 % 1015,1 hPa 0,0 mm 3,9 km/h (1 Bft) O-NO 76 ° 0 min 0,000 mm 0,0 UV-I 0 W/m² 2,4 °C 8,0 km/h (2 Bft)
25.11.2016 01:56 3,0 °C 3,0 °C 96 % 1015,1 hPa 0,0 mm 3,6 km/h (1 Bft) NO 51 ° 0 min 0,000 mm 0,0 UV-I 0 W/m² 2,4 °C 8,0 km/h (2 Bft)
25.11.2016 01:57 3,0 °C 3,0 °C 96 % 1015,2 hPa 0,0 mm 5,3 km/h (1 Bft) O 81 ° 0 min 0,000 mm 0,0 UV-I 0 W/m² 2,4 °C 8,0 km/h (2 Bft)
25.11.2016 01:58 3,0 °C 3,0 °C 96 % 1015,1 hPa 0,0 mm 6,0 km/h (2 Bft) O-NO 58 ° 0 min 0,000 mm 0,0 UV-I 0 W/m² 2,4 °C 8,0 km/h (2 Bft)
25.11.2016 01:59 3,0 °C 3,0 °C 96 % 1015,1 hPa 0,0 mm 4,7 km/h (1 Bft) NO 53 ° 0 min 0,000 mm 0,0 UV-I 0 W/m² 2,4 °C 6,4 km/h (2 Bft)
25.11.2016 02:00 3,0 °C 3,0 °C 96 % 1015,0 hPa 0,0 mm 6,8 km/h (2 Bft) O-NO 67 ° 0 min 0,000 mm 0,0 UV-I 0 W/m² 2,4 °C 9,7 km/h (2 Bft)
25.11.2016 02:01 3,0 °C 3,1 °C 96 % 1015,0 hPa 0,0 mm 5,5 km/h (1 Bft) O 85 ° 0 min 0,000 mm 0,0 UV-I 0 W/m² 2,4 °C 9,7 km/h (2 Bft)
25.11.2016 02:02 3,0 °C 3,0 °C 96 % 1015,0 hPa 0,0 mm 2,8 km/h (1 Bft) O-NO 71 ° 0 min 0,000 mm 0,0 UV-I 0 W/m² 2,4 °C 4,8 km/h (1 Bft)
25.11.2016 02:03 3,0 °C 3,1 °C 96 % 1015,0 hPa 0,0 mm 4,7 km/h (1 Bft) O 81 ° 0 min 0,000 mm 0,0 UV-I 0 W/m² 2,4 °C 8,0 km/h (2 Bft)
25.11.2016 02:04 3,0 °C 3,0 °C 96 % 1015,0 hPa 0,0 mm 6,2 km/h (2 Bft) O-NO 68 ° 0 min 0,000 mm 0,0 UV-I 0 W/m² 2,4 °C 11,3 km/h (2 Bft)
25.11.2016 02:05 3,0 °C 3,0 °C 96 % 1015,1 hPa 0,0 mm 4,8 km/h (1 Bft) O 82 ° 0 min 0,000 mm 0,0 UV-I 0 W/m² 2,4 °C 6,4 km/h (2 Bft)
25.11.2016 02:06 3,0 °C 3,0 °C 96 % 1015,0 hPa 0,0 mm 3,4 km/h (1 Bft) NO 55 ° 0 min 0,000 mm 0,0 UV-I 0 W/m² 2,4 °C 4,8 km/h (1 Bft)
25.11.2016 02:07 3,0 °C 3,0 °C 96 % 1015,0 hPa 0,0 mm 2,1 km/h (1 Bft) NO 55 ° 0 min 0,000 mm 0,0 UV-I 0 W/m² 2,4 °C 4,8 km/h (1 Bft)
25.11.2016 02:08 3,0 °C 3,0 °C 96 % 1015,1 hPa 0,0 mm 2,5 km/h (1 Bft) O-NO 61 ° 0 min 0,000 mm 0,0 UV-I 0 W/m² 2,4 °C 4,8 km/h (1 Bft)
25.11.2016 02:09 3,0 °C 3,0 °C 96 % 1015,1 hPa 0,0 mm 5,2 km/h (1 Bft) O-NO 77 ° 0 min 0,000 mm 0,0 UV-I 0 W/m² 2,4 °C 8,0 km/h (2 Bft)
25.11.2016 02:10 3,0 °C 3,0 °C 96 % 1015,1 hPa 0,0 mm 7,2 km/h (2 Bft) O-NO 67 ° 0 min 0,000 mm 0,0 UV-I 0 W/m² 2,4 °C 12,9 km/h (3 Bft)
25.11.2016 02:11 3,1 °C 3,1 °C 96 % 1015,0 hPa 0,0 mm 4,3 km/h (1 Bft) O 92 ° 0 min 0,000 mm 0,0 UV-I 0 W/m² 2,5 °C 6,4 km/h (2 Bft)
25.11.2016 02:12 3,0 °C 3,1 °C 96 % 1015,0 hPa 0,0 mm 5,5 km/h (1 Bft) O-NO 59 ° 0 min 0,000 mm 0,0 UV-I 0 W/m² 2,4 °C 8,0 km/h (2 Bft)
25.11.2016 02:13 3,0 °C 3,0 °C 96 % 1015,0 hPa 0,0 mm 3,4 km/h (1 Bft) O-NO 73 ° 0 min 0,000 mm 0,0 UV-I 0 W/m² 2,4 °C 6,4 km/h (2 Bft)
25.11.2016 02:14 3,0 °C 3,0 °C 96 % 1015,0 hPa 0,0 mm 5,4 km/h (1 Bft) O-NO 62 ° 0 min 0,000 mm 0,0 UV-I 0 W/m² 2,4 °C 6,4 km/h (2 Bft)
25.11.2016 02:15 3,0 °C 3,0 °C 96 % 1015,1 hPa 0,0 mm 5,8 km/h (2 Bft) O-NO 78 ° 0 min 0,000 mm 0,0 UV-I 0 W/m² 2,4 °C 8,0 km/h (2 Bft)
25.11.2016 02:16 3,0 °C 3,0 °C 96 % 1015,1 hPa 0,0 mm 5,9 km/h (2 Bft) NO 53 ° 0 min 0,000 mm 0,0 UV-I 0 W/m² 2,4 °C 8,0 km/h (2 Bft)
25.11.2016 02:17 3,0 °C 3,0 °C 96 % 1015,1 hPa 0,0 mm 5,2 km/h (1 Bft) NO 54 ° 0 min 0,000 mm 0,0 UV-I 0 W/m² 2,4 °C 9,7 km/h (2 Bft)
25.11.2016 02:18 3,0 °C 3,0 °C 96 % 1015,1 hPa 0,0 mm 6,3 km/h (2 Bft) O 84 ° 0 min 0,000 mm 0,0 UV-I 0 W/m² 2,4 °C 9,7 km/h (2 Bft)
25.11.2016 02:19 3,0 °C 3,0 °C 96 % 1015,1 hPa 0,0 mm 6,0 km/h (2 Bft) O-NO 63 ° 0 min 0,000 mm 0,0 UV-I 0 W/m² 2,4 °C 8,0 km/h (2 Bft)
25.11.2016 02:20 3,0 °C 3,0 °C 96 % 1015,0 hPa 0,0 mm 6,8 km/h (2 Bft) O-NO 71 ° 0 min 0,000 mm 0,0 UV-I 0 W/m² 2,4 °C 11,3 km/h (2 Bft)
25.11.2016 02:21 3,0 °C 3,0 °C 96 % 1015,1 hPa 0,0 mm 6,8 km/h (2 Bft) O-NO 77 ° 0 min 0,000 mm 0,0 UV-I 0 W/m² 2,4 °C 11,3 km/h (2 Bft)
25.11.2016 02:22 3,0 °C 3,0 °C 96 % 1015,1 hPa 0,0 mm 3,8 km/h (1 Bft) O 79 ° 0 min 0,000 mm 0,0 UV-I 0 W/m² 2,4 °C 6,4 km/h (2 Bft)
25.11.2016 02:23 3,0 °C 3,0 °C 96 % 1015,1 hPa 0,0 mm 2,6 km/h (1 Bft) S-SO 166 ° 0 min 0,000 mm 0,0 UV-I 0 W/m² 2,4 °C 4,8 km/h (1 Bft)
25.11.2016 02:24 3,0 °C 3,1 °C 96 % 1015,1 hPa 0,0 mm 4,8 km/h (1 Bft) NO 49 ° 0 min 0,000 mm 0,0 UV-I 0 W/m² 2,4 °C 8,0 km/h (2 Bft)
25.11.2016 02:25 3,0 °C 3,0 °C 96 % 1015,0 hPa 0,0 mm 8,4 km/h (2 Bft) O-NO 61 ° 0 min 0,000 mm 0,0 UV-I 0 W/m² 2,4 °C 12,9 km/h (3 Bft)
25.11.2016 02:26 3,0 °C 3,0 °C 96 % 1015,0 hPa 0,0 mm 5,6 km/h (1 Bft) O-NO 57 ° 0 min 0,000 mm 0,0 UV-I 0 W/m² 2,4 °C 11,3 km/h (2 Bft)
25.11.2016 02:27 3,0 °C 3,0 °C 96 % 1015,0 hPa 0,0 mm 5,4 km/h (1 Bft) O 87 ° 0 min 0,000 mm 0,0 UV-I 0 W/m² 2,4 °C 8,0 km/h (2 Bft)
25.11.2016 02:28 3,0 °C 3,0 °C 96 % 1015,1 hPa 0,0 mm 4,5 km/h (1 Bft) O 94 ° 0 min 0,000 mm 0,0 UV-I 0 W/m² 2,4 °C 6,4 km/h (2 Bft)
25.11.2016 02:29 3,0 °C 3,0 °C 96 % 1015,1 hPa 0,0 mm 4,4 km/h (1 Bft) O-NO 59 ° 0 min 0,000 mm 0,0 UV-I 0 W/m² 2,4 °C 6,4 km/h (2 Bft)
25.11.2016 02:30 3,0 °C 3,0 °C 96 % 1015,1 hPa 0,0 mm 4,4 km/h (1 Bft) O-NO 78 ° 0 min 0,000 mm 0,0 UV-I 0 W/m² 2,4 °C 6,4 km/h (2 Bft)
25.11.2016 02:31 2,9 °C 3,0 °C 96 % 1015,1 hPa 0,0 mm 7,0 km/h (2 Bft) O-NO 74 ° 0 min 0,000 mm 0,0 UV-I 0 W/m² 2,3 °C 11,3 km/h (2 Bft)
25.11.2016 02:32 3,0 °C 3,0 °C 96 % 1015,1 hPa 0,0 mm 5,8 km/h (2 Bft) O-NO 59 ° 0 min 0,000 mm 0,0 UV-I 0 W/m² 2,4 °C 8,0 km/h (2 Bft)
25.11.2016 02:33 2,9 °C 3,0 °C 96 % 1015,1 hPa 0,0 mm 4,9 km/h (1 Bft) O-NO 67 ° 0 min 0,000 mm 0,0 UV-I 0 W/m² 2,3 °C 6,4 km/h (2 Bft)
25.11.2016 02:34 3,0 °C 3,0 °C 96 % 1015,1 hPa 0,0 mm 5,3 km/h (1 Bft) N-NO 28 ° 0 min 0,000 mm 0,0 UV-I 0 W/m² 2,4 °C 6,4 km/h (2 Bft)
25.11.2016 02:35 2,9 °C 3,0 °C 96 % 1015,0 hPa 0,0 mm 5,4 km/h (1 Bft) NO 52 ° 0 min 0,000 mm 0,0 UV-I 0 W/m² 2,3 °C 6,4 km/h (2 Bft)
25.11.2016 02:36 2,9 °C 2,9 °C 96 % 1015,1 hPa 0,0 mm 3,8 km/h (1 Bft) O-NO 64 ° 0 min 0,000 mm 0,0 UV-I 0 W/m² 2,3 °C 6,4 km/h (2 Bft)
25.11.2016 02:37 3,0 °C 3,0 °C 96 % 1015,1 hPa 0,0 mm 4,4 km/h (1 Bft) O-SO 117 ° 0 min 0,000 mm 0,0 UV-I 0 W/m² 2,4 °C 8,0 km/h (2 Bft)
25.11.2016 02:38 2,9 °C 3,0 °C 96 % 1015,1 hPa 0,0 mm 2,8 km/h (1 Bft) O 81 ° 0 min 0,000 mm 0,0 UV-I 0 W/m² 2,3 °C 4,8 km/h (1 Bft)
25.11.2016 02:39 3,0 °C 3,0 °C 96 % 1015,1 hPa 0,0 mm 2,7 km/h (1 Bft) O-NO 61 ° 0 min 0,000 mm 0,0 UV-I 0 W/m² 2,4 °C 6,4 km/h (2 Bft)
25.11.2016 02:40 2,9 °C 3,0 °C 96 % 1015,1 hPa 0,0 mm 4,6 km/h (1 Bft) O-NO 58 ° 0 min 0,000 mm 0,0 UV-I 0 W/m² 2,3 °C 9,7 km/h (2 Bft)
25.11.2016 02:41 2,9 °C 2,9 °C 96 % 1015,1 hPa 0,0 mm 6,9 km/h (2 Bft) O 83 ° 0 min 0,000 mm 0,0 UV-I 0 W/m² 2,3 °C 12,9 km/h (3 Bft)
25.11.2016 02:42 2,9 °C 3,0 °C 96 % 1015,1 hPa 0,0 mm 5,2 km/h (1 Bft) O-NO 57 ° 0 min 0,000 mm 0,0 UV-I 0 W/m² 2,3 °C 11,3 km/h (2 Bft)
25.11.2016 02:43 2,9 °C 3,0 °C 96 % 1015,0 hPa 0,0 mm 2,5 km/h (1 Bft) O 79 ° 0 min 0,000 mm 0,0 UV-I 0 W/m² 2,3 °C 4,8 km/h (1 Bft)
25.11.2016 02:44 2,9 °C 2,9 °C 96 % 1015,1 hPa 0,0 mm 5,8 km/h (2 Bft) O 82 ° 0 min 0,000 mm 0,0 UV-I 0 W/m² 2,3 °C 8,0 km/h (2 Bft)
25.11.2016 02:45 2,9 °C 2,9 °C 96 % 1015,1 hPa 0,0 mm 7,2 km/h (2 Bft) O 80 ° 0 min 0,000 mm 0,0 UV-I 0 W/m² 2,3 °C 14,5 km/h (3 Bft)
25.11.2016 02:46 2,9 °C 2,9 °C 96 % 1015,0 hPa 0,0 mm 6,7 km/h (2 Bft) O 82 ° 0 min 0,000 mm 0,0 UV-I 0 W/m² 2,3 °C 12,9 km/h (3 Bft)
25.11.2016 02:47 2,9 °C 2,9 °C 96 % 1015,0 hPa 0,0 mm 5,3 km/h (1 Bft) O 94 ° 0 min 0,000 mm 0,0 UV-I 0 W/m² 2,3 °C 9,7 km/h (2 Bft)
25.11.2016 02:48 2,9 °C 2,9 °C 96 % 1015,1 hPa 0,0 mm 9,2 km/h (2 Bft) O-NO 70 ° 0 min 0,000 mm 0,0 UV-I 0 W/m² 2,3 °C 14,5 km/h (3 Bft)
25.11.2016 02:49 2,9 °C 2,9 °C 96 % 1015,1 hPa 0,0 mm 10,3 km/h (2 Bft) O-NO 59 ° 0 min 0,000 mm 0,0 UV-I 0 W/m² 2,3 °C 16,1 km/h (3 Bft)
25.11.2016 02:50 2,9 °C 2,9 °C 96 % 1014,9 hPa 0,0 mm 10,9 km/h (2 Bft) O-SO 104 ° 0 min 0,000 mm 0,0 UV-I 0 W/m² 2,3 °C 17,7 km/h (3 Bft)
25.11.2016 02:51 2,9 °C 2,9 °C 96 % 1015,1 hPa 0,0 mm 5,7 km/h (1 Bft) O-NO 58 ° 0 min 0,000 mm 0,0 UV-I 0 W/m² 2,3 °C 8,0 km/h (2 Bft)
25.11.2016 02:52 2,9 °C 2,9 °C 96 % 1015,0 hPa 0,0 mm 4,2 km/h (1 Bft) O-NO 67 ° 0 min 0,000 mm 0,0 UV-I 0 W/m² 2,3 °C 6,4 km/h (2 Bft)
25.11.2016 02:53 2,9 °C 2,9 °C 96 % 1015,0 hPa 0,0 mm 5,4 km/h (1 Bft) O-NO 64 ° 0 min 0,000 mm 0,0 UV-I 0 W/m² 2,3 °C 8,0 km/h (2 Bft)
25.11.2016 02:54 2,9 °C 2,9 °C 96 % 1015,0 hPa 0,0 mm 4,1 km/h (1 Bft) O-NO 74 ° 0 min 0,000 mm 0,0 UV-I 0 W/m² 2,3 °C 6,4 km/h (2 Bft)
25.11.2016 02:55 2,9 °C 2,9 °C 96 % 1015,0 hPa 0,0 mm 1,9 km/h (1 Bft) O-NO 74 ° 0 min 0,000 mm 0,0 UV-I 0 W/m² 2,3 °C 3,2 km/h (1 Bft)
25.11.2016 02:56 2,9 °C 2,9 °C 96 % 1015,0 hPa 0,0 mm 5,4 km/h (1 Bft) NO 42 ° 0 min 0,000 mm 0,0 UV-I 0 W/m² 2,3 °C 6,4 km/h (2 Bft)
25.11.2016 02:57 2,9 °C 2,9 °C 96 % 1015,0 hPa 0,0 mm 5,0 km/h (1 Bft) O 79 ° 0 min 0,000 mm 0,0 UV-I 0 W/m² 2,3 °C 6,4 km/h (2 Bft)
25.11.2016 02:58 2,9 °C 2,9 °C 96 % 1015,0 hPa 0,0 mm 4,7 km/h (1 Bft) O-NO 78 ° 0 min 0,000 mm 0,0 UV-I 0 W/m² 2,3 °C 8,0 km/h (2 Bft)
25.11.2016 02:59 2,9 °C 2,9 °C 96 % 1015,0 hPa 0,0 mm 5,1 km/h (1 Bft) NO 52 ° 0 min 0,000 mm 0,0 UV-I 0 W/m² 2,3 °C 8,0 km/h (2 Bft)
25.11.2016 03:00 2,9 °C 2,9 °C 96 % 1015,0 hPa 0,0 mm 5,4 km/h (1 Bft) O-NO 61 ° 0 min 0,000 mm 0,0 UV-I 0 W/m² 2,3 °C 8,0 km/h (2 Bft)
25.11.2016 03:01 2,9 °C 2,9 °C 96 % 1015,0 hPa 0,0 mm 6,5 km/h (2 Bft) O-NO 60 ° 0 min 0,000 mm 0,0 UV-I 0 W/m² 2,3 °C 11,3 km/h (2 Bft)
25.11.2016 03:02 2,9 °C 2,9 °C 96 % 1015,0 hPa 0,0 mm 6,4 km/h (2 Bft) NO 49 ° 0 min 0,000 mm 0,0 UV-I 0 W/m² 2,3 °C 9,7 km/h (2 Bft)
25.11.2016 03:03 2,9 °C 2,9 °C 96 % 1015,0 hPa 0,0 mm 3,5 km/h (1 Bft) NO 53 ° 0 min 0,000 mm 0,0 UV-I 0 W/m² 2,3 °C 6,4 km/h (2 Bft)
25.11.2016 03:04 2,9 °C 2,9 °C 96 % 1015,0 hPa 0,0 mm 3,4 km/h (1 Bft) O-NO 66 ° 0 min 0,000 mm 0,0 UV-I 0 W/m² 2,3 °C 6,4 km/h (2 Bft)
25.11.2016 03:05 2,9 °C 2,9 °C 96 % 1015,0 hPa 0,0 mm 3,3 km/h (1 Bft) O 81 ° 0 min 0,000 mm 0,0 UV-I 0 W/m² 2,3 °C 4,8 km/h (1 Bft)
25.11.2016 03:06 2,9 °C 2,9 °C 96 % 1015,0 hPa 0,0 mm 4,6 km/h (1 Bft) O-NO 64 ° 0 min 0,000 mm 0,0 UV-I 0 W/m² 2,3 °C 6,4 km/h (2 Bft)
25.11.2016 03:07 2,9 °C 2,9 °C 96 % 1015,0 hPa 0,0 mm 4,0 km/h (1 Bft) NO 55 ° 0 min 0,000 mm 0,0 UV-I 0 W/m² 2,3 °C 6,4 km/h (2 Bft)
25.11.2016 03:08 2,9 °C 2,9 °C 96 % 1015,0 hPa 0,0 mm 3,8 km/h (1 Bft) O-NO 65 ° 0 min 0,000 mm 0,0 UV-I 0 W/m² 2,3 °C 6,4 km/h (2 Bft)
25.11.2016 03:09 2,9 °C 2,9 °C 96 % 1015,0 hPa 0,0 mm 3,7 km/h (1 Bft) O-NO 71 ° 0 min 0,000 mm 0,0 UV-I 0 W/m² 2,3 °C 4,8 km/h (1 Bft)
25.11.2016 03:10 2,9 °C 2,9 °C 96 % 1015,0 hPa 0,0 mm 2,3 km/h (1 Bft) O-NO 63 ° 0 min 0,000 mm 0,0 UV-I 0 W/m² 2,3 °C 4,8 km/h (1 Bft)
25.11.2016 03:11 2,9 °C 2,9 °C 96 % 1015,0 hPa 0,0 mm 3,8 km/h (1 Bft) O-NO 62 ° 0 min 0,000 mm 0,0 UV-I 0 W/m² 2,3 °C 6,4 km/h (2 Bft)
25.11.2016 03:12 2,9 °C 2,9 °C 96 % 1015,0 hPa 0,0 mm 3,3 km/h (1 Bft) NO 41 ° 0 min 0,000 mm 0,0 UV-I 0 W/m² 2,3 °C 6,4 km/h (2 Bft)
25.11.2016 03:13 2,9 °C 2,9 °C 96 % 1015,0 hPa 0,0 mm 4,7 km/h (1 Bft) O-NO 72 ° 0 min 0,000 mm 0,0 UV-I 0 W/m² 2,3 °C 8,0 km/h (2 Bft)
25.11.2016 03:14 2,9 °C 2,9 °C 96 % 1015,0 hPa 0,0 mm 6,2 km/h (2 Bft) O-NO 70 ° 0 min 0,000 mm 0,0 UV-I 0 W/m² 2,3 °C 11,3 km/h (2 Bft)
25.11.2016 03:15 2,9 °C 2,9 °C 96 % 1015,0 hPa 0,0 mm 4,5 km/h (1 Bft) O-NO 64 ° 0 min 0,000 mm 0,0 UV-I 0 W/m² 2,3 °C 8,0 km/h (2 Bft)
25.11.2016 03:16 2,9 °C 2,9 °C 96 % 1015,0 hPa 0,0 mm 6,0 km/h (2 Bft) O-NO 65 ° 0 min 0,000 mm 0,0 UV-I 0 W/m² 2,3 °C 9,7 km/h (2 Bft)
25.11.2016 03:17 2,9 °C 2,9 °C 97 % 1015,0 hPa 0,0 mm 6,8 km/h (2 Bft) SO 124 ° 0 min 0,000 mm 0,0 UV-I 0 W/m² 2,5 °C 12,9 km/h (3 Bft)
25.11.2016 03:18 2,9 °C 2,9 °C 96 % 1014,9 hPa 0,0 mm 4,4 km/h (1 Bft) O-NO 71 ° 0 min 0,000 mm 0,0 UV-I 0 W/m² 2,3 °C 6,4 km/h (2 Bft)
25.11.2016 03:19 2,9 °C 2,9 °C 96 % 1014,9 hPa 0,0 mm 5,1 km/h (1 Bft) O-NO 63 ° 0 min 0,000 mm 0,0 UV-I 0 W/m² 2,3 °C 9,7 km/h (2 Bft)
25.11.2016 03:20 2,9 °C 2,9 °C 96 % 1014,9 hPa 0,0 mm 9,5 km/h (2 Bft) O-NO 67 ° 0 min 0,000 mm 0,0 UV-I 0 W/m² 2,3 °C 12,9 km/h (3 Bft)
25.11.2016 03:21 2,9 °C 2,9 °C 97 % 1014,9 hPa 0,0 mm 9,4 km/h (2 Bft) O 87 ° 0 min 0,000 mm 0,0 UV-I 0 W/m² 2,5 °C 12,9 km/h (3 Bft)
25.11.2016 03:22 2,9 °C 2,9 °C 96 % 1014,8 hPa 0,0 mm 6,6 km/h (2 Bft) O-NO 78 ° 0 min 0,000 mm 0,0 UV-I 0 W/m² 2,3 °C 11,3 km/h (2 Bft)
25.11.2016 03:23 2,9 °C 2,9 °C 97 % 1014,8 hPa 0,0 mm 4,8 km/h (1 Bft) NO 45 ° 0 min 0,000 mm 0,0 UV-I 0 W/m² 2,5 °C 8,0 km/h (2 Bft)
25.11.2016 03:24 2,9 °C 2,9 °C 97 % 1014,8 hPa 0,0 mm 3,7 km/h (1 Bft) NO 50 ° 0 min 0,000 mm 0,0 UV-I 0 W/m² 2,5 °C 4,8 km/h (1 Bft)
25.11.2016 03:25 2,9 °C 2,9 °C 97 % 1014,8 hPa 0,0 mm 1,9 km/h (1 Bft) NO 50 ° 0 min 0,000 mm 0,0 UV-I 0 W/m² 2,5 °C 3,2 km/h (1 Bft)
25.11.2016 03:26 2,9 °C 2,9 °C 97 % 1014,8 hPa 0,0 mm 4,6 km/h (1 Bft) O-SO 123 ° 0 min 0,000 mm 0,0 UV-I 0 W/m² 2,5 °C 8,0 km/h (2 Bft)
25.11.2016 03:27 2,9 °C 2,9 °C 97 % 1014,8 hPa 0,0 mm 3,2 km/h (1 Bft) NO 55 ° 0 min 0,000 mm 0,0 UV-I 0 W/m² 2,5 °C 4,8 km/h (1 Bft)
25.11.2016 03:28 2,9 °C 2,9 °C 96 % 1014,9 hPa 0,0 mm 2,8 km/h (1 Bft) NO 55 ° 0 min 0,000 mm 0,0 UV-I 0 W/m² 2,3 °C 6,4 km/h (2 Bft)
25.11.2016 03:29 2,9 °C 2,9 °C 97 % 1014,9 hPa 0,0 mm 4,4 km/h (1 Bft) O-NO 66 ° 0 min 0,000 mm 0,0 UV-I 0 W/m² 2,5 °C 6,4 km/h (2 Bft)
25.11.2016 03:30 2,9 °C 2,9 °C 97 % 1014,9 hPa 0,0 mm 5,2 km/h (1 Bft) O-SO 102 ° 0 min 0,000 mm 0,0 UV-I 0 W/m² 2,5 °C 9,7 km/h (2 Bft)
25.11.2016 03:31 2,9 °C 2,9 °C 97 % 1014,9 hPa 0,0 mm 5,5 km/h (1 Bft) O-NO 65 ° 0 min 0,000 mm 0,0 UV-I 0 W/m² 2,5 °C 11,3 km/h (2 Bft)
25.11.2016 03:32 2,9 °C 2,9 °C 97 % 1014,9 hPa 0,0 mm 6,8 km/h (2 Bft) O-NO 63 ° 0 min 0,000 mm 0,0 UV-I 0 W/m² 2,5 °C 8,0 km/h (2 Bft)
25.11.2016 03:33 2,9 °C 2,9 °C 96 % 1014,9 hPa 0,0 mm 5,2 km/h (1 Bft) O-NO 59 ° 0 min 0,000 mm 0,0 UV-I 0 W/m² 2,3 °C 9,7 km/h (2 Bft)
25.11.2016 03:34 2,9 °C 2,9 °C 97 % 1014,9 hPa 0,0 mm 6,4 km/h (2 Bft) O-NO 63 ° 0 min 0,000 mm 0,0 UV-I 0 W/m² 2,5 °C 9,7 km/h (2 Bft)
25.11.2016 03:35 2,9 °C 2,9 °C 97 % 1014,9 hPa 0,0 mm 5,5 km/h (1 Bft) O 91 ° 0 min 0,000 mm 0,0 UV-I 0 W/m² 2,5 °C 11,3 km/h (2 Bft)
25.11.2016 03:36 2,9 °C 2,9 °C 97 % 1014,9 hPa 0,0 mm 9,0 km/h (2 Bft) O-NO 76 ° 0 min 0,000 mm 0,0 UV-I 0 W/m² 2,5 °C 11,3 km/h (2 Bft)
25.11.2016 03:37 2,8 °C 2,9 °C 97 % 1014,9 hPa 0,0 mm 8,4 km/h (2 Bft) O-NO 65 ° 0 min 0,000 mm 0,0 UV-I 0 W/m² 2,4 °C 12,9 km/h (3 Bft)
25.11.2016 03:38 2,9 °C 2,9 °C 97 % 1014,8 hPa 0,0 mm 5,5 km/h (1 Bft) O 97 ° 0 min 0,000 mm 0,0 UV-I 0 W/m² 2,5 °C 8,0 km/h (2 Bft)
25.11.2016 03:39 2,9 °C 2,9 °C 97 % 1014,9 hPa 0,0 mm 3,8 km/h (1 Bft) O-NO 63 ° 0 min 0,000 mm 0,0 UV-I 0 W/m² 2,5 °C 8,0 km/h (2 Bft)
25.11.2016 03:40 2,9 °C 2,9 °C 97 % 1014,8 hPa 0,0 mm 7,8 km/h (2 Bft) O-NO 68 ° 0 min 0,000 mm 0,0 UV-I 0 W/m² 2,5 °C 11,3 km/h (2 Bft)
25.11.2016 03:41 2,9 °C 2,9 °C 97 % 1014,8 hPa 0,0 mm 6,8 km/h (2 Bft) O-NO 69 ° 0 min 0,000 mm 0,0 UV-I 0 W/m² 2,5 °C 9,7 km/h (2 Bft)
25.11.2016 03:42 2,9 °C 2,9 °C 97 % 1014,9 hPa 0,0 mm 5,3 km/h (1 Bft) O-NO 63 ° 0 min 0,000 mm 0,0 UV-I 0 W/m² 2,5 °C 6,4 km/h (2 Bft)
25.11.2016 03:43 2,9 °C 2,9 °C 97 % 1014,9 hPa 0,0 mm 3,6 km/h (1 Bft) O-NO 73 ° 0 min 0,000 mm 0,0 UV-I 0 W/m² 2,5 °C 8,0 km/h (2 Bft)
25.11.2016 03:44 2,9 °C 2,9 °C 97 % 1014,8 hPa 0,0 mm 3,0 km/h (1 Bft) NO 55 ° 0 min 0,000 mm 0,0 UV-I 0 W/m² 2,5 °C 3,2 km/h (1 Bft)
25.11.2016 03:45 2,8 °C 2,9 °C 97 % 1014,9 hPa 0,0 mm 3,4 km/h (1 Bft) O-SO 103 ° 0 min 0,000 mm 0,0 UV-I 0 W/m² 2,4 °C 4,8 km/h (1 Bft)
25.11.2016 03:46 2,9 °C 2,9 °C 97 % 1014,8 hPa 0,0 mm 4,7 km/h (1 Bft) O-NO 65 ° 0 min 0,000 mm 0,0 UV-I 0 W/m² 2,5 °C 6,4 km/h (2 Bft)
25.11.2016 03:47 2,9 °C 2,9 °C 97 % 1014,8 hPa 0,0 mm 7,0 km/h (2 Bft) O-SO 110 ° 0 min 0,000 mm 0,0 UV-I 0 W/m² 2,5 °C 12,9 km/h (3 Bft)
25.11.2016 03:48 2,9 °C 2,9 °C 97 % 1014,8 hPa 0,0 mm 7,6 km/h (2 Bft) O-NO 59 ° 0 min 0,000 mm 0,0 UV-I 0 W/m² 2,5 °C 12,9 km/h (3 Bft)
25.11.2016 03:49 2,9 °C 2,9 °C 97 % 1014,8 hPa 0,0 mm 5,6 km/h (1 Bft) O-NO 61 ° 0 min 0,000 mm 0,0 UV-I 0 W/m² 2,5 °C 6,4 km/h (2 Bft)
25.11.2016 03:50 2,8 °C 2,9 °C 97 % 1014,8 hPa 0,0 mm 4,0 km/h (1 Bft) SO 142 ° 0 min 0,000 mm 0,0 UV-I 0 W/m² 2,4 °C 6,4 km/h (2 Bft)
25.11.2016 03:51 2,9 °C 2,9 °C 97 % 1014,7 hPa 0,0 mm 3,9 km/h (1 Bft) O-NO 70 ° 0 min 0,000 mm 0,0 UV-I 0 W/m² 2,5 °C 6,4 km/h (2 Bft)
25.11.2016 03:52 2,9 °C 2,9 °C 97 % 1014,8 hPa 0,0 mm 5,7 km/h (1 Bft) NO 47 ° 0 min 0,000 mm 0,0 UV-I 0 W/m² 2,5 °C 8,0 km/h (2 Bft)
25.11.2016 03:53 2,9 °C 2,9 °C 97 % 1014,7 hPa 0,0 mm 6,0 km/h (2 Bft) O-NO 62 ° 0 min 0,000 mm 0,0 UV-I 0 W/m² 2,5 °C 9,7 km/h (2 Bft)
25.11.2016 03:54 2,9 °C 2,9 °C 97 % 1014,7 hPa 0,0 mm 4,7 km/h (1 Bft) N-NO 12 ° 0 min 0,000 mm 0,0 UV-I 0 W/m² 2,5 °C 6,4 km/h (2 Bft)
25.11.2016 03:55 2,8 °C 2,9 °C 97 % 1014,7 hPa 0,0 mm 4,0 km/h (1 Bft) O-NO 65 ° 0 min 0,000 mm 0,0 UV-I 0 W/m² 2,4 °C 6,4 km/h (2 Bft)
25.11.2016 03:56 2,8 °C 2,9 °C 97 % 1014,7 hPa 0,0 mm 7,0 km/h (2 Bft) O-NO 63 ° 0 min 0,000 mm 0,0 UV-I 0 W/m² 2,4 °C 9,7 km/h (2 Bft)
25.11.2016 03:57 2,9 °C 2,9 °C 97 % 1014,7 hPa 0,0 mm 8,4 km/h (2 Bft) O-NO 63 ° 0 min 0,000 mm 0,0 UV-I 0 W/m² 2,5 °C 11,3 km/h (2 Bft)
25.11.2016 03:58 2,8 °C 2,9 °C 97 % 1014,6 hPa 0,0 mm 4,8 km/h (1 Bft) O-NO 70 ° 0 min 0,000 mm 0,0 UV-I 0 W/m² 2,4 °C 6,4 km/h (2 Bft)
25.11.2016 03:59 2,8 °C 2,9 °C 97 % 1014,6 hPa 0,0 mm 4,8 km/h (1 Bft) O-NO 69 ° 0 min 0,000 mm 0,0 UV-I 0 W/m² 2,4 °C 6,4 km/h (2 Bft)
25.11.2016 04:00 2,9 °C 2,9 °C 97 % 1014,6 hPa 0,0 mm 6,2 km/h (2 Bft) O-NO 61 ° 0 min 0,000 mm 0,0 UV-I 0 W/m² 2,5 °C 8,0 km/h (2 Bft)
25.11.2016 04:02 2,9 °C 2,9 °C 97 % 1014,6 hPa 0,0 mm 4,5 km/h (1 Bft) N-NW 344 ° 0 min 0,000 mm 0,0 UV-I 0 W/m² 2,5 °C 9,7 km/h (2 Bft)
25.11.2016 04:03 2,8 °C 2,9 °C 97 % 1014,6 hPa 0,0 mm 6,4 km/h (2 Bft) O 84 ° 0 min 0,000 mm 0,0 UV-I 0 W/m² 2,4 °C 9,7 km/h (2 Bft)
25.11.2016 04:04 2,9 °C 2,9 °C 97 % 1014,7 hPa 0,0 mm 2,3 km/h (1 Bft) NO 55 ° 0 min 0,000 mm 0,0 UV-I 0 W/m² 2,5 °C 4,8 km/h (1 Bft)
25.11.2016 04:05 2,9 °C 2,9 °C 97 % 1014,8 hPa 0,0 mm 3,6 km/h (1 Bft) NO 55 ° 0 min 0,000 mm 0,0 UV-I 0 W/m² 2,5 °C 6,4 km/h (2 Bft)
25.11.2016 04:06 2,9 °C 2,9 °C 97 % 1014,8 hPa 0,0 mm 3,4 km/h (1 Bft) O-NO 69 ° 0 min 0,000 mm 0,0 UV-I 0 W/m² 2,5 °C 4,8 km/h (1 Bft)
25.11.2016 04:07 2,8 °C 2,9 °C 97 % 1014,8 hPa 0,0 mm 3,3 km/h (1 Bft) O-NO 61 ° 0 min 0,000 mm 0,0 UV-I 0 W/m² 2,4 °C 4,8 km/h (1 Bft)
25.11.2016 04:08 2,9 °C 2,9 °C 97 % 1014,7 hPa 0,0 mm 5,0 km/h (1 Bft) O-SO 113 ° 0 min 0,000 mm 0,0 UV-I 0 W/m² 2,5 °C 6,4 km/h (2 Bft)
25.11.2016 04:09 2,9 °C 2,9 °C 97 % 1014,8 hPa 0,0 mm 3,8 km/h (1 Bft) O-NO 64 ° 0 min 0,000 mm 0,0 UV-I 0 W/m² 2,5 °C 6,4 km/h (2 Bft)
25.11.2016 04:10 2,9 °C 2,9 °C 97 % 1014,7 hPa 0,0 mm 7,6 km/h (2 Bft) O 92 ° 0 min 0,000 mm 0,0 UV-I 0 W/m² 2,5 °C 12,9 km/h (3 Bft)
25.11.2016 04:11 2,9 °C 2,9 °C 97 % 1014,7 hPa 0,0 mm 5,9 km/h (2 Bft) O-NO 62 ° 0 min 0,000 mm 0,0 UV-I 0 W/m² 2,5 °C 11,3 km/h (2 Bft)
25.11.2016 04:12 2,9 °C 2,9 °C 97 % 1014,7 hPa 0,0 mm 7,3 km/h (2 Bft) NO 53 ° 0 min 0,000 mm 0,0 UV-I 0 W/m² 2,5 °C 12,9 km/h (3 Bft)
25.11.2016 04:13 2,9 °C 2,9 °C 97 % 1014,7 hPa 0,0 mm 6,9 km/h (2 Bft) O-NO 67 ° 0 min 0,000 mm 0,0 UV-I 0 W/m² 2,5 °C 9,7 km/h (2 Bft)
25.11.2016 04:14 2,9 °C 2,9 °C 97 % 1014,7 hPa 0,0 mm 8,8 km/h (2 Bft) N-NO 32 ° 0 min 0,000 mm 0,0 UV-I 0 W/m² 2,5 °C 12,9 km/h (3 Bft)
25.11.2016 04:15 2,9 °C 2,9 °C 97 % 1014,7 hPa 0,0 mm 7,2 km/h (2 Bft) NO 42 ° 0 min 0,000 mm 0,0 UV-I 0 W/m² 2,5 °C 9,7 km/h (2 Bft)
25.11.2016 04:16 2,9 °C 2,9 °C 97 % 1014,8 hPa 0,0 mm 8,0 km/h (2 Bft) NO 46 ° 0 min 0,000 mm 0,0 UV-I 0 W/m² 2,5 °C 16,1 km/h (3 Bft)
25.11.2016 04:17 2,9 °C 2,9 °C 97 % 1014,8 hPa 0,0 mm 5,7 km/h (1 Bft) O-NO 60 ° 0 min 0,000 mm 0,0 UV-I 0 W/m² 2,5 °C 8,0 km/h (2 Bft)
25.11.2016 04:18 2,9 °C 2,9 °C 97 % 1014,8 hPa 0,0 mm 5,5 km/h (1 Bft) NO 38 ° 0 min 0,000 mm 0,0 UV-I 0 W/m² 2,5 °C 8,0 km/h (2 Bft)
25.11.2016 04:19 2,9 °C 2,9 °C 97 % 1014,7 hPa 0,0 mm 6,8 km/h (2 Bft) O-NO 68 ° 0 min 0,000 mm 0,0 UV-I 0 W/m² 2,5 °C 11,3 km/h (2 Bft)
25.11.2016 04:20 2,8 °C 2,9 °C 97 % 1014,8 hPa 0,0 mm 8,2 km/h (2 Bft) NO 50 ° 0 min 0,000 mm 0,0 UV-I 0 W/m² 2,4 °C 11,3 km/h (2 Bft)
25.11.2016 04:21 2,8 °C 2,9 °C 97 % 1014,8 hPa 0,0 mm 5,2 km/h (1 Bft) N-NO 27 ° 0 min 0,000 mm 0,0 UV-I 0 W/m² 2,4 °C 8,0 km/h (2 Bft)
25.11.2016 04:22 2,9 °C 2,9 °C 97 % 1014,8 hPa 0,0 mm 5,7 km/h (1 Bft) N-NW 334 ° 0 min 0,000 mm 0,0 UV-I 0 W/m² 2,5 °C 9,7 km/h (2 Bft)
25.11.2016 04:23 2,9 °C 2,9 °C 97 % 1014,8 hPa 0,0 mm 8,1 km/h (2 Bft) N-NO 30 ° 0 min 0,000 mm 0,0 UV-I 0 W/m² 2,5 °C 12,9 km/h (3 Bft)
25.11.2016 04:24 2,8 °C 2,9 °C 97 % 1014,8 hPa 0,0 mm 11,2 km/h (2 Bft) O-NO 74 ° 0 min 0,000 mm 0,0 UV-I 0 W/m² 2,4 °C 17,7 km/h (3 Bft)
25.11.2016 04:25 2,8 °C 2,9 °C 97 % 1014,8 hPa 0,0 mm 6,7 km/h (2 Bft) NO 51 ° 0 min 0,000 mm 0,0 UV-I 0 W/m² 2,4 °C 9,7 km/h (2 Bft)
25.11.2016 04:26 2,8 °C 2,9 °C 97 % 1014,7 hPa 0,0 mm 3,5 km/h (1 Bft) NO 38 ° 0 min 0,000 mm 0,0 UV-I 0 W/m² 2,4 °C 8,0 km/h (2 Bft)
25.11.2016 04:27 2,8 °C 2,8 °C 97 % 1014,7 hPa 0,0 mm 4,4 km/h (1 Bft) NO 49 ° 0 min 0,000 mm 0,0 UV-I 0 W/m² 2,4 °C 8,0 km/h (2 Bft)
25.11.2016 04:28 2,9 °C 2,9 °C 97 % 1014,8 hPa 0,0 mm 5,0 km/h (1 Bft) NO 55 ° 0 min 0,000 mm 0,0 UV-I 0 W/m² 2,5 °C 8,0 km/h (2 Bft)
25.11.2016 04:29 2,8 °C 2,9 °C 97 % 1014,8 hPa 0,0 mm 7,6 km/h (2 Bft) O-NO 69 ° 0 min 0,000 mm 0,0 UV-I 0 W/m² 2,4 °C 9,7 km/h (2 Bft)
25.11.2016 04:30 2,8 °C 2,9 °C 97 % 1014,9 hPa 0,0 mm 4,3 km/h (1 Bft) NO 52 ° 0 min 0,000 mm 0,0 UV-I 0 W/m² 2,4 °C 8,0 km/h (2 Bft)
25.11.2016 04:31 2,8 °C 2,9 °C 97 % 1014,8 hPa 0,0 mm 4,8 km/h (1 Bft) O-NO 62 ° 0 min 0,000 mm 0,0 UV-I 0 W/m² 2,4 °C 8,0 km/h (2 Bft)
25.11.2016 04:32 2,9 °C 2,9 °C 97 % 1014,8 hPa 0,0 mm 5,4 km/h (1 Bft) O-NO 58 ° 0 min 0,000 mm 0,0 UV-I 0 W/m² 2,5 °C 6,4 km/h (2 Bft)
25.11.2016 04:33 2,8 °C 2,9 °C 97 % 1014,8 hPa 0,0 mm 6,6 km/h (2 Bft) O 94 ° 0 min 0,000 mm 0,0 UV-I 0 W/m² 2,4 °C 9,7 km/h (2 Bft)
25.11.2016 04:34 2,9 °C 2,9 °C 97 % 1014,8 hPa 0,0 mm 6,7 km/h (2 Bft) NO 46 ° 0 min 0,000 mm 0,0 UV-I 0 W/m² 2,5 °C 9,7 km/h (2 Bft)
25.11.2016 04:35 2,8 °C 2,9 °C 97 % 1014,8 hPa 0,0 mm 5,2 km/h (1 Bft) O-NO 74 ° 0 min 0,000 mm 0,0 UV-I 0 W/m² 2,4 °C 12,9 km/h (3 Bft)
25.11.2016 04:36 2,9 °C 2,9 °C 97 % 1014,7 hPa 0,0 mm 7,4 km/h (2 Bft) O-NO 73 ° 0 min 0,000 mm 0,0 UV-I 0 W/m² 2,5 °C 12,9 km/h (3 Bft)
25.11.2016 04:37 2,9 °C 2,9 °C 97 % 1014,7 hPa 0,0 mm 7,9 km/h (2 Bft) O 81 ° 0 min 0,000 mm 0,0 UV-I 0 W/m² 2,5 °C 14,5 km/h (3 Bft)
25.11.2016 04:38 2,9 °C 2,9 °C 97 % 1014,8 hPa 0,0 mm 9,3 km/h (2 Bft) O-NO 68 ° 0 min 0,000 mm 0,0 UV-I 0 W/m² 2,5 °C 12,9 km/h (3 Bft)
25.11.2016 04:39 2,8 °C 2,9 °C 97 % 1014,8 hPa 0,0 mm 8,9 km/h (2 Bft) N-NO 19 ° 0 min 0,000 mm 0,0 UV-I 0 W/m² 2,4 °C 14,5 km/h (3 Bft)
25.11.2016 04:40 2,8 °C 2,9 °C 97 % 1014,7 hPa 0,0 mm 9,7 km/h (2 Bft) NO 53 ° 0 min 0,000 mm 0,0 UV-I 0 W/m² 2,4 °C 14,5 km/h (3 Bft)
25.11.2016 04:41 2,8 °C 2,8 °C 97 % 1014,7 hPa 0,0 mm 9,9 km/h (2 Bft) SO 124 ° 0 min 0,000 mm 0,0 UV-I 0 W/m² 2,4 °C 16,1 km/h (3 Bft)
25.11.2016 04:42 2,8 °C 2,8 °C 97 % 1014,7 hPa 0,0 mm 8,4 km/h (2 Bft) O-NO 71 ° 0 min 0,000 mm 0,0 UV-I 0 W/m² 2,4 °C 14,5 km/h (3 Bft)
25.11.2016 04:43 2,8 °C 2,8 °C 97 % 1014,7 hPa 0,0 mm 8,2 km/h (2 Bft) O 79 ° 0 min 0,000 mm 0,0 UV-I 0 W/m² 2,4 °C 11,3 km/h (2 Bft)
25.11.2016 04:44 2,8 °C 2,8 °C 97 % 1014,6 hPa 0,0 mm 5,3 km/h (1 Bft) O-NO 75 ° 0 min 0,000 mm 0,0 UV-I 0 W/m² 2,4 °C 8,0 km/h (2 Bft)
25.11.2016 04:45 2,8 °C 2,8 °C 97 % 1014,6 hPa 0,0 mm 9,0 km/h (2 Bft) NO 41 ° 0 min 0,000 mm 0,0 UV-I 0 W/m² 2,4 °C 12,9 km/h (3 Bft)
25.11.2016 04:46 2,8 °C 2,8 °C 97 % 1014,6 hPa 0,0 mm 10,2 km/h (2 Bft) NO 42 ° 0 min 0,000 mm 0,0 UV-I 0 W/m² 2,4 °C 14,5 km/h (3 Bft)
25.11.2016 04:47 2,8 °C 2,8 °C 97 % 1014,6 hPa 0,0 mm 8,9 km/h (2 Bft) O-NO 62 ° 0 min 0,000 mm 0,0 UV-I 0 W/m² 2,4 °C 14,5 km/h (3 Bft)
25.11.2016 04:48 2,8 °C 2,8 °C 97 % 1014,6 hPa 0,0 mm 7,2 km/h (2 Bft) O-NO 65 ° 0 min 0,000 mm 0,0 UV-I 0 W/m² 2,4 °C 11,3 km/h (2 Bft)
25.11.2016 04:49 2,8 °C 2,8 °C 97 % 1014,6 hPa 0,0 mm 9,9 km/h (2 Bft) O-NO 65 ° 0 min 0,000 mm 0,0 UV-I 0 W/m² 2,4 °C 12,9 km/h (3 Bft)
25.11.2016 04:50 2,8 °C 2,8 °C 97 % 1014,6 hPa 0,0 mm 6,4 km/h (2 Bft) O-NO 71 ° 0 min 0,000 mm 0,0 UV-I 0 W/m² 2,4 °C 12,9 km/h (3 Bft)
25.11.2016 04:51 2,8 °C 2,8 °C 97 % 1014,7 hPa 0,0 mm 7,8 km/h (2 Bft) NO 43 ° 0 min 0,000 mm 0,0 UV-I 0 W/m² 2,4 °C 12,9 km/h (3 Bft)
25.11.2016 04:52 2,8 °C 2,8 °C 97 % 1014,6 hPa 0,0 mm 6,0 km/h (2 Bft) O-NO 57 ° 0 min 0,000 mm 0,0 UV-I 0 W/m² 2,4 °C 9,7 km/h (2 Bft)
25.11.2016 04:53 2,8 °C 2,8 °C 97 % 1014,6 hPa 0,0 mm 7,3 km/h (2 Bft) N-NO 13 ° 0 min 0,000 mm 0,0 UV-I 0 W/m² 2,4 °C 11,3 km/h (2 Bft)
25.11.2016 04:54 2,8 °C 2,8 °C 97 % 1014,5 hPa 0,0 mm 6,6 km/h (2 Bft) N-NO 21 ° 0 min 0,000 mm 0,0 UV-I 0 W/m² 2,4 °C 11,3 km/h (2 Bft)
25.11.2016 04:55 2,8 °C 2,8 °C 97 % 1014,5 hPa 0,0 mm 6,0 km/h (2 Bft) NO 34 ° 0 min 0,000 mm 0,0 UV-I 0 W/m² 2,4 °C 8,0 km/h (2 Bft)
25.11.2016 04:56 2,8 °C 2,8 °C 97 % 1014,6 hPa 0,0 mm 7,2 km/h (2 Bft) O-NO 65 ° 0 min 0,000 mm 0,0 UV-I 0 W/m² 2,4 °C 9,7 km/h (2 Bft)
25.11.2016 04:57 2,8 °C 2,8 °C 97 % 1014,6 hPa 0,0 mm 9,4 km/h (2 Bft) N-NO 31 ° 0 min 0,000 mm 0,0 UV-I 0 W/m² 2,4 °C 14,5 km/h (3 Bft)
25.11.2016 04:58 2,8 °C 2,8 °C 97 % 1014,6 hPa 0,0 mm 7,3 km/h (2 Bft) NO 45 ° 0 min 0,000 mm 0,0 UV-I 0 W/m² 2,4 °C 11,3 km/h (2 Bft)
25.11.2016 04:59 2,8 °C 2,8 °C 97 % 1014,7 hPa 0,0 mm 6,8 km/h (2 Bft) O-NO 69 ° 0 min 0,000 mm 0,0 UV-I 0 W/m² 2,4 °C 11,3 km/h (2 Bft)
25.11.2016 05:00 2,8 °C 2,8 °C 97 % 1014,6 hPa 0,0 mm 4,3 km/h (1 Bft) O 87 ° 0 min 0,000 mm 0,0 UV-I 0 W/m² 2,4 °C 6,4 km/h (2 Bft)
25.11.2016 05:01 2,8 °C 2,8 °C 97 % 1014,6 hPa 0,0 mm 4,1 km/h (1 Bft) NO 49 ° 0 min 0,000 mm 0,0 UV-I 0 W/m² 2,4 °C 8,0 km/h (2 Bft)
25.11.2016 05:02 2,8 °C 2,8 °C 97 % 1014,6 hPa 0,0 mm 6,0 km/h (2 Bft) NO 47 ° 0 min 0,000 mm 0,0 UV-I 0 W/m² 2,4 °C 9,7 km/h (2 Bft)
25.11.2016 05:03 2,8 °C 2,8 °C 97 % 1014,6 hPa 0,0 mm 11,3 km/h (2 Bft) O-SO 119 ° 0 min 0,000 mm 0,0 UV-I 0 W/m² 2,4 °C 17,7 km/h (3 Bft)
25.11.2016 05:04 2,8 °C 2,8 °C 97 % 1014,7 hPa 0,0 mm 11,6 km/h (2 Bft) O 87 ° 0 min 0,000 mm 0,0 UV-I 0 W/m² 2,4 °C 14,5 km/h (3 Bft)
25.11.2016 05:05 2,8 °C 2,8 °C 97 % 1014,7 hPa 0,0 mm 9,9 km/h (2 Bft) O-NO 78 ° 0 min 0,000 mm 0,0 UV-I 0 W/m² 2,4 °C 14,5 km/h (3 Bft)
25.11.2016 05:06 2,8 °C 2,8 °C 97 % 1014,7 hPa 0,0 mm 5,2 km/h (1 Bft) O-NO 63 ° 0 min 0,000 mm 0,0 UV-I 0 W/m² 2,4 °C 9,7 km/h (2 Bft)
25.11.2016 05:07 2,8 °C 2,8 °C 97 % 1014,7 hPa 0,0 mm 6,1 km/h (2 Bft) O-NO 61 ° 0 min 0,000 mm 0,0 UV-I 0 W/m² 2,4 °C 9,7 km/h (2 Bft)
25.11.2016 05:08 2,8 °C 2,8 °C 97 % 1014,7 hPa 0,0 mm 5,0 km/h (1 Bft) NO 55 ° 0 min 0,000 mm 0,0 UV-I 0 W/m² 2,4 °C 11,3 km/h (2 Bft)
25.11.2016 05:09 2,8 °C 2,8 °C 97 % 1014,7 hPa 0,0 mm 7,4 km/h (2 Bft) O-NO 67 ° 0 min 0,000 mm 0,0 UV-I 0 W/m² 2,4 °C 11,3 km/h (2 Bft)
25.11.2016 05:10 2,8 °C 2,8 °C 97 % 1014,7 hPa 0,0 mm 6,8 km/h (2 Bft) O 84 ° 0 min 0,000 mm 0,0 UV-I 0 W/m² 2,4 °C 11,3 km/h (2 Bft)
25.11.2016 05:11 2,8 °C 2,8 °C 97 % 1014,7 hPa 0,0 mm 5,0 km/h (1 Bft) O 84 ° 0 min 0,000 mm 0,0 UV-I 0 W/m² 2,4 °C 8,0 km/h (2 Bft)
25.11.2016 05:12 2,8 °C 2,8 °C 97 % 1014,7 hPa 0,0 mm 6,7 km/h (2 Bft) O-NO 71 ° 0 min 0,000 mm 0,0 UV-I 0 W/m² 2,4 °C 8,0 km/h (2 Bft)
25.11.2016 05:13 2,8 °C 2,8 °C 97 % 1014,7 hPa 0,0 mm 5,7 km/h (1 Bft) O-NO 63 ° 0 min 0,000 mm 0,0 UV-I 0 W/m² 2,4 °C 8,0 km/h (2 Bft)
25.11.2016 05:14 2,8 °C 2,8 °C 97 % 1014,6 hPa 0,0 mm 5,4 km/h (1 Bft) O-NO 72 ° 0 min 0,000 mm 0,0 UV-I 0 W/m² 2,4 °C 8,0 km/h (2 Bft)
25.11.2016 05:15 2,8 °C 2,8 °C 97 % 1014,7 hPa 0,0 mm 3,0 km/h (1 Bft) O-SO 103 ° 0 min 0,000 mm 0,0 UV-I 0 W/m² 2,4 °C 4,8 km/h (1 Bft)
25.11.2016 05:16 2,8 °C 2,8 °C 97 % 1014,7 hPa 0,0 mm 9,4 km/h (2 Bft) O-NO 59 ° 0 min 0,000 mm 0,0 UV-I 0 W/m² 2,4 °C 16,1 km/h (3 Bft)
25.11.2016 05:17 2,8 °C 2,8 °C 97 % 1014,7 hPa 0,0 mm 5,4 km/h (1 Bft) O-NO 63 ° 0 min 0,000 mm 0,0 UV-I 0 W/m² 2,4 °C 8,0 km/h (2 Bft)
25.11.2016 05:18 2,8 °C 2,8 °C 97 % 1014,7 hPa 0,0 mm 5,4 km/h (1 Bft) NO 34 ° 0 min 0,000 mm 0,0 UV-I 0 W/m² 2,4 °C 12,9 km/h (3 Bft)
25.11.2016 05:19 2,8 °C 2,8 °C 97 % 1014,7 hPa 0,0 mm 6,3 km/h (2 Bft) O-NO 78 ° 0 min 0,000 mm 0,0 UV-I 0 W/m² 2,4 °C 11,3 km/h (2 Bft)
25.11.2016 05:20 2,8 °C 2,8 °C 97 % 1014,8 hPa 0,0 mm 3,4 km/h (1 Bft) O-NO 71 ° 0 min 0,000 mm 0,0 UV-I 0 W/m² 2,4 °C 6,4 km/h (2 Bft)
25.11.2016 05:21 2,8 °C 2,8 °C 97 % 1014,8 hPa 0,0 mm 9,0 km/h (2 Bft) NO 41 ° 0 min 0,000 mm 0,0 UV-I 0 W/m² 2,4 °C 11,3 km/h (2 Bft)
25.11.2016 05:22 2,8 °C 2,8 °C 97 % 1014,8 hPa 0,0 mm 7,4 km/h (2 Bft) O-NO 66 ° 0 min 0,000 mm 0,0 UV-I 0 W/m² 2,4 °C 9,7 km/h (2 Bft)
25.11.2016 05:23 2,8 °C 2,8 °C 97 % 1014,8 hPa 0,0 mm 4,3 km/h (1 Bft) O-NO 74 ° 0 min 0,000 mm 0,0 UV-I 0 W/m² 2,4 °C 6,4 km/h (2 Bft)
25.11.2016 05:24 2,8 °C 2,8 °C 97 % 1014,8 hPa 0,0 mm 4,0 km/h (1 Bft) O 92 ° 0 min 0,000 mm 0,0 UV-I 0 W/m² 2,4 °C 6,4 km/h (2 Bft)
25.11.2016 05:25 2,8 °C 2,8 °C 97 % 1014,8 hPa 0,0 mm 4,3 km/h (1 Bft) O-NO 61 ° 0 min 0,000 mm 0,0 UV-I 0 W/m² 2,4 °C 8,0 km/h (2 Bft)
25.11.2016 05:26 2,7 °C 2,8 °C 97 % 1014,8 hPa 0,0 mm 9,7 km/h (2 Bft) O-NO 73 ° 0 min 0,000 mm 0,0 UV-I 0 W/m² 2,3 °C 12,9 km/h (3 Bft)
25.11.2016 05:27 2,8 °C 2,8 °C 97 % 1014,8 hPa 0,0 mm 7,7 km/h (2 Bft) O-NO 66 ° 0 min 0,000 mm 0,0 UV-I 0 W/m² 2,4 °C 11,3 km/h (2 Bft)
25.11.2016 05:28 2,8 °C 2,8 °C 97 % 1014,7 hPa 0,0 mm 6,4 km/h (2 Bft) NO 46 ° 0 min 0,000 mm 0,0 UV-I 0 W/m² 2,4 °C 8,0 km/h (2 Bft)
25.11.2016 05:29 2,8 °C 2,8 °C 97 % 1014,7 hPa 0,0 mm 9,3 km/h (2 Bft) O-NO 76 ° 0 min 0,000 mm 0,0 UV-I 0 W/m² 2,4 °C 12,9 km/h (3 Bft)
25.11.2016 05:30 2,8 °C 2,8 °C 96 % 1014,7 hPa 0,0 mm 8,6 km/h (2 Bft) O-SO 117 ° 0 min 0,000 mm 0,0 UV-I 0 W/m² 2,2 °C 12,9 km/h (3 Bft)
25.11.2016 05:31 2,7 °C 2,8 °C 96 % 1014,7 hPa 0,0 mm 7,5 km/h (2 Bft) O-NO 76 ° 0 min 0,000 mm 0,0 UV-I 0 W/m² 2,1 °C 11,3 km/h (2 Bft)
25.11.2016 05:32 2,7 °C 2,7 °C 96 % 1014,6 hPa 0,0 mm 7,2 km/h (2 Bft) O-NO 63 ° 0 min 0,000 mm 0,0 UV-I 0 W/m² 2,1 °C 14,5 km/h (3 Bft)
25.11.2016 05:33 2,7 °C 2,7 °C 96 % 1014,7 hPa 0,0 mm 5,4 km/h (1 Bft) O-NO 74 ° 0 min 0,000 mm 0,0 UV-I 0 W/m² 2,1 °C 8,0 km/h (2 Bft)
25.11.2016 05:34 2,7 °C 2,7 °C 96 % 1014,6 hPa 0,0 mm 3,0 km/h (1 Bft) O 81 ° 0 min 0,000 mm 0,0 UV-I 0 W/m² 2,1 °C 8,0 km/h (2 Bft)
25.11.2016 05:35 2,7 °C 2,7 °C 96 % 1014,6 hPa 0,0 mm 6,4 km/h (2 Bft) O-NO 67 ° 0 min 0,000 mm 0,0 UV-I 0 W/m² 2,1 °C 9,7 km/h (2 Bft)
25.11.2016 05:36 2,7 °C 2,7 °C 96 % 1014,8 hPa 0,0 mm 5,4 km/h (1 Bft) O 89 ° 0 min 0,000 mm 0,0 UV-I 0 W/m² 2,1 °C 8,0 km/h (2 Bft)
25.11.2016 05:37 2,7 °C 2,7 °C 96 % 1014,8 hPa 0,0 mm 3,2 km/h (1 Bft) NO 55 ° 0 min 0,000 mm 0,0 UV-I 0 W/m² 2,1 °C 4,8 km/h (1 Bft)
25.11.2016 05:38 2,7 °C 2,7 °C 96 % 1014,8 hPa 0,0 mm 2,7 km/h (1 Bft) O-NO 60 ° 0 min 0,000 mm 0,0 UV-I 0 W/m² 2,1 °C 4,8 km/h (1 Bft)
25.11.2016 05:39 2,7 °C 2,7 °C 96 % 1014,8 hPa 0,0 mm 1,4 km/h (1 Bft) O-NO 60 ° 0 min 0,000 mm 0,0 UV-I 0 W/m² 2,1 °C 3,2 km/h (1 Bft)
25.11.2016 05:40 2,7 °C 2,7 °C 96 % 1014,8 hPa 0,0 mm 6,1 km/h (2 Bft) O-NO 61 ° 0 min 0,000 mm 0,0 UV-I 0 W/m² 2,1 °C 12,9 km/h (3 Bft)
25.11.2016 05:41 2,7 °C 2,7 °C 96 % 1014,8 hPa 0,0 mm 4,2 km/h (1 Bft) O-NO 66 ° 0 min 0,000 mm 0,0 UV-I 0 W/m² 2,1 °C 8,0 km/h (2 Bft)
25.11.2016 05:42 2,7 °C 2,7 °C 96 % 1014,8 hPa 0,0 mm 4,6 km/h (1 Bft) O-NO 61 ° 0 min 0,000 mm 0,0 UV-I 0 W/m² 2,1 °C 6,4 km/h (2 Bft)
25.11.2016 05:43 2,7 °C 2,7 °C 96 % 1014,8 hPa 0,0 mm 5,9 km/h (2 Bft) O-SO 108 ° 0 min 0,000 mm 0,0 UV-I 0 W/m² 2,1 °C 8,0 km/h (2 Bft)
25.11.2016 05:44 2,7 °C 2,7 °C 96 % 1014,8 hPa 0,0 mm 6,4 km/h (2 Bft) O-NO 77 ° 0 min 0,000 mm 0,0 UV-I 0 W/m² 2,1 °C 11,3 km/h (2 Bft)
25.11.2016 05:45 2,7 °C 2,7 °C 96 % 1014,8 hPa 0,0 mm 9,7 km/h (2 Bft) O 82 ° 0 min 0,000 mm 0,0 UV-I 0 W/m² 2,1 °C 14,5 km/h (3 Bft)
25.11.2016 05:46 2,7 °C 2,7 °C 97 % 1014,9 hPa 0,0 mm 7,4 km/h (2 Bft) O-NO 65 ° 0 min 0,000 mm 0,0 UV-I 0 W/m² 2,3 °C 11,3 km/h (2 Bft)
25.11.2016 05:47 2,7 °C 2,7 °C 96 % 1014,9 hPa 0,0 mm 9,9 km/h (2 Bft) O-NO 77 ° 0 min 0,000 mm 0,0 UV-I 0 W/m² 2,1 °C 12,9 km/h (3 Bft)
25.11.2016 05:48 2,7 °C 2,7 °C 96 % 1014,8 hPa 0,0 mm 6,3 km/h (2 Bft) O-NO 69 ° 0 min 0,000 mm 0,0 UV-I 0 W/m² 2,1 °C 12,9 km/h (3 Bft)
25.11.2016 05:49 2,7 °C 2,7 °C 96 % 1014,8 hPa 0,0 mm 5,4 km/h (1 Bft) O-NO 72 ° 0 min 0,000 mm 0,0 UV-I 0 W/m² 2,1 °C 8,0 km/h (2 Bft)
25.11.2016 05:50 2,7 °C 2,7 °C 96 % 1014,9 hPa 0,0 mm 3,3 km/h (1 Bft) O-SO 111 ° 0 min 0,000 mm 0,0 UV-I 0 W/m² 2,1 °C 8,0 km/h (2 Bft)
25.11.2016 05:51 2,7 °C 2,7 °C 97 % 1014,9 hPa 0,0 mm 3,8 km/h (1 Bft) O 86 ° 0 min 0,000 mm 0,0 UV-I 0 W/m² 2,3 °C 6,4 km/h (2 Bft)
25.11.2016 05:52 2,7 °C 2,7 °C 96 % 1014,9 hPa 0,0 mm 4,9 km/h (1 Bft) O-NO 67 ° 0 min 0,000 mm 0,0 UV-I 0 W/m² 2,1 °C 16,1 km/h (3 Bft)
25.11.2016 05:53 2,7 °C 2,7 °C 97 % 1014,9 hPa 0,0 mm 8,9 km/h (2 Bft) O 101 ° 0 min 0,000 mm 0,0 UV-I 0 W/m² 2,3 °C 14,5 km/h (3 Bft)
25.11.2016 05:54 2,7 °C 2,7 °C 97 % 1015,0 hPa 0,0 mm 3,7 km/h (1 Bft) O-NO 59 ° 0 min 0,000 mm 0,0 UV-I 0 W/m² 2,3 °C 6,4 km/h (2 Bft)
25.11.2016 05:55 2,7 °C 2,7 °C 97 % 1014,9 hPa 0,0 mm 5,2 km/h (1 Bft) O-NO 70 ° 0 min 0,000 mm 0,0 UV-I 0 W/m² 2,3 °C 6,4 km/h (2 Bft)
25.11.2016 05:56 2,7 °C 2,7 °C 96 % 1014,9 hPa 0,0 mm 6,0 km/h (2 Bft) O 80 ° 0 min 0,000 mm 0,0 UV-I 0 W/m² 2,1 °C 8,0 km/h (2 Bft)
25.11.2016 05:57 2,7 °C 2,7 °C 97 % 1014,9 hPa 0,0 mm 6,6 km/h (2 Bft) N-NO 29 ° 0 min 0,000 mm 0,0 UV-I 0 W/m² 2,3 °C 8,0 km/h (2 Bft)
25.11.2016 05:58 2,7 °C 2,7 °C 96 % 1014,8 hPa 0,0 mm 6,1 km/h (2 Bft) NO 53 ° 0 min 0,000 mm 0,0 UV-I 0 W/m² 2,1 °C 11,3 km/h (2 Bft)
25.11.2016 05:59 2,7 °C 2,7 °C 97 % 1014,8 hPa 0,0 mm 6,6 km/h (2 Bft) O-NO 67 ° 0 min 0,000 mm 0,0 UV-I 0 W/m² 2,3 °C 9,7 km/h (2 Bft)
25.11.2016 06:00 2,7 °C 2,7 °C 96 % 1014,8 hPa 0,0 mm 6,8 km/h (2 Bft) O-NO 73 ° 0 min 0,000 mm 0,0 UV-I 0 W/m² 2,1 °C 9,7 km/h (2 Bft)
25.11.2016 06:01 2,7 °C 2,7 °C 97 % 1014,8 hPa 0,0 mm 6,7 km/h (2 Bft) O-NO 61 ° 0 min 0,000 mm 0,0 UV-I 0 W/m² 2,3 °C 11,3 km/h (2 Bft)
25.11.2016 06:02 2,7 °C 2,8 °C 97 % 1014,8 hPa 0,0 mm 5,2 km/h (1 Bft) O-NO 74 ° 0 min 0,000 mm 0,0 UV-I 0 W/m² 2,3 °C 8,0 km/h (2 Bft)
25.11.2016 06:03 2,7 °C 2,8 °C 97 % 1014,8 hPa 0,0 mm 6,3 km/h (2 Bft) NO 41 ° 0 min 0,000 mm 0,0 UV-I 0 W/m² 2,3 °C 9,7 km/h (2 Bft)
25.11.2016 06:04 2,7 °C 2,8 °C 97 % 1014,8 hPa 0,0 mm 2,1 km/h (1 Bft) NO 53 ° 0 min 0,000 mm 0,0 UV-I 0 W/m² 2,3 °C 3,2 km/h (1 Bft)
25.11.2016 06:05 2,7 °C 2,7 °C 97 % 1014,9 hPa 0,0 mm 5,7 km/h (1 Bft) O 80 ° 0 min 0,000 mm 0,0 UV-I 0 W/m² 2,3 °C 8,0 km/h (2 Bft)
25.11.2016 06:06 2,7 °C 2,8 °C 97 % 1014,8 hPa 0,0 mm 3,8 km/h (1 Bft) NO 55 ° 0 min 0,000 mm 0,0 UV-I 0 W/m² 2,3 °C 6,4 km/h (2 Bft)
25.11.2016 06:07 2,7 °C 2,7 °C 97 % 1014,8 hPa 0,0 mm 4,8 km/h (1 Bft) O-NO 71 ° 0 min 0,000 mm 0,0 UV-I 0 W/m² 2,3 °C 6,4 km/h (2 Bft)
25.11.2016 06:08 2,7 °C 2,7 °C 97 % 1014,8 hPa 0,0 mm 3,9 km/h (1 Bft) O-NO 71 ° 0 min 0,000 mm 0,0 UV-I 0 W/m² 2,3 °C 4,8 km/h (1 Bft)
25.11.2016 06:09 2,7 °C 2,7 °C 97 % 1014,8 hPa 0,0 mm 4,6 km/h (1 Bft) O 84 ° 0 min 0,000 mm 0,0 UV-I 0 W/m² 2,3 °C 6,4 km/h (2 Bft)
25.11.2016 06:10 2,7 °C 2,7 °C 97 % 1014,8 hPa 0,0 mm 2,3 km/h (1 Bft) O-NO 71 ° 0 min 0,000 mm 0,0 UV-I 0 W/m² 2,3 °C 4,8 km/h (1 Bft)
25.11.2016 06:11 2,8 °C 2,8 °C 97 % 1014,8 hPa 0,0 mm 3,5 km/h (1 Bft) O-NO 72 ° 0 min 0,000 mm 0,0 UV-I 0 W/m² 2,4 °C 4,8 km/h (1 Bft)
25.11.2016 06:12 2,7 °C 2,8 °C 97 % 1014,9 hPa 0,0 mm 2,4 km/h (1 Bft) O-NO 71 ° 0 min 0,000 mm 0,0 UV-I 0 W/m² 2,3 °C 4,8 km/h (1 Bft)
25.11.2016 06:13 2,8 °C 2,8 °C 97 % 1014,9 hPa 0,0 mm 5,1 km/h (1 Bft) O-NO 78 ° 0 min 0,000 mm 0,0 UV-I 0 W/m² 2,4 °C 9,7 km/h (2 Bft)
25.11.2016 06:14 2,7 °C 2,8 °C 96 % 1014,9 hPa 0,0 mm 4,6 km/h (1 Bft) O-NO 77 ° 0 min 0,000 mm 0,0 UV-I 0 W/m² 2,1 °C 6,4 km/h (2 Bft)
25.11.2016 06:15 2,7 °C 2,8 °C 97 % 1014,9 hPa 0,0 mm 4,2 km/h (1 Bft) O-NO 65 ° 0 min 0,000 mm 0,0 UV-I 0 W/m² 2,3 °C 4,8 km/h (1 Bft)
25.11.2016 06:16 2,8 °C 2,8 °C 97 % 1014,9 hPa 0,0 mm 3,9 km/h (1 Bft) O-NO 65 ° 0 min 0,000 mm 0,0 UV-I 0 W/m² 2,4 °C 4,8 km/h (1 Bft)
25.11.2016 06:17 2,7 °C 2,8 °C 97 % 1014,9 hPa 0,0 mm 3,9 km/h (1 Bft) O-NO 70 ° 0 min 0,000 mm 0,0 UV-I 0 W/m² 2,3 °C 4,8 km/h (1 Bft)
25.11.2016 06:18 2,7 °C 2,7 °C 97 % 1014,9 hPa 0,0 mm 5,6 km/h (1 Bft) NO 54 ° 0 min 0,000 mm 0,0 UV-I 0 W/m² 2,3 °C 9,7 km/h (2 Bft)
25.11.2016 06:19 2,7 °C 2,8 °C 97 % 1014,9 hPa 0,0 mm 6,8 km/h (2 Bft) O-NO 78 ° 0 min 0,000 mm 0,0 UV-I 0 W/m² 2,3 °C 9,7 km/h (2 Bft)
25.11.2016 06:20 2,7 °C 2,7 °C 97 % 1014,8 hPa 0,0 mm 6,2 km/h (2 Bft) O-NO 69 ° 0 min 0,000 mm 0,0 UV-I 0 W/m² 2,3 °C 11,3 km/h (2 Bft)
25.11.2016 06:21 2,7 °C 2,8 °C 97 % 1014,9 hPa 0,0 mm 5,0 km/h (1 Bft) O-NO 66 ° 0 min 0,000 mm 0,0 UV-I 0 W/m² 2,3 °C 6,4 km/h (2 Bft)
25.11.2016 06:22 2,7 °C 2,8 °C 97 % 1014,9 hPa 0,0 mm 8,0 km/h (2 Bft) O-NO 78 ° 0 min 0,000 mm 0,0 UV-I 0 W/m² 2,3 °C 11,3 km/h (2 Bft)
25.11.2016 06:23 2,7 °C 2,7 °C 97 % 1014,9 hPa 0,0 mm 4,7 km/h (1 Bft) O-NO 59 ° 0 min 0,000 mm 0,0 UV-I 0 W/m² 2,3 °C 8,0 km/h (2 Bft)
25.11.2016 06:24 2,7 °C 2,7 °C 97 % 1014,9 hPa 0,0 mm 3,4 km/h (1 Bft) O 88 ° 0 min 0,000 mm 0,0 UV-I 0 W/m² 2,3 °C 6,4 km/h (2 Bft)
25.11.2016 06:25 2,7 °C 2,8 °C 97 % 1014,9 hPa 0,0 mm 3,6 km/h (1 Bft) O-SO 108 ° 0 min 0,000 mm 0,0 UV-I 0 W/m² 2,3 °C 4,8 km/h (1 Bft)
25.11.2016 06:26 2,7 °C 2,7 °C 97 % 1014,9 hPa 0,0 mm 2,5 km/h (1 Bft) O 93 ° 0 min 0,000 mm 0,0 UV-I 0 W/m² 2,3 °C 4,8 km/h (1 Bft)
25.11.2016 06:27 2,7 °C 2,7 °C 97 % 1014,8 hPa 0,0 mm 4,3 km/h (1 Bft) NO 55 ° 0 min 0,000 mm 0,0 UV-I 0 W/m² 2,3 °C 9,7 km/h (2 Bft)
25.11.2016 06:28 2,7 °C 2,8 °C 97 % 1014,8 hPa 0,0 mm 7,8 km/h (2 Bft) O-NO 71 ° 0 min 0,000 mm 0,0 UV-I 0 W/m² 2,3 °C 12,9 km/h (3 Bft)
25.11.2016 06:29 2,7 °C 2,8 °C 97 % 1014,9 hPa 0,0 mm 7,1 km/h (2 Bft) NO 50 ° 0 min 0,000 mm 0,0 UV-I 0 W/m² 2,3 °C 11,3 km/h (2 Bft)
25.11.2016 06:30 2,7 °C 2,8 °C 97 % 1014,8 hPa 0,0 mm 9,7 km/h (2 Bft) O-NO 78 ° 0 min 0,000 mm 0,0 UV-I 0 W/m² 2,3 °C 12,9 km/h (3 Bft)
25.11.2016 06:31 2,8 °C 2,8 °C 97 % 1014,8 hPa 0,0 mm 6,4 km/h (2 Bft) O-NO 78 ° 0 min 0,000 mm 0,0 UV-I 0 W/m² 2,4 °C 11,3 km/h (2 Bft)
25.11.2016 06:32 2,7 °C 2,8 °C 97 % 1014,9 hPa 0,0 mm 5,0 km/h (1 Bft) O-NO 65 ° 0 min 0,000 mm 0,0 UV-I 0 W/m² 2,3 °C 6,4 km/h (2 Bft)
25.11.2016 06:33 2,7 °C 2,7 °C 97 % 1014,9 hPa 0,0 mm 5,1 km/h (1 Bft) O-SO 115 ° 0 min 0,000 mm 0,0 UV-I 0 W/m² 2,3 °C 9,7 km/h (2 Bft)
25.11.2016 06:34 2,7 °C 2,7 °C 97 % 1014,9 hPa 0,0 mm 6,9 km/h (2 Bft) O-NO 74 ° 0 min 0,000 mm 0,0 UV-I 0 W/m² 2,3 °C 9,7 km/h (2 Bft)
25.11.2016 06:35 2,7 °C 2,8 °C 97 % 1014,9 hPa 0,0 mm 5,8 km/h (2 Bft) SO 143 ° 0 min 0,000 mm 0,0 UV-I 0 W/m² 2,3 °C 9,7 km/h (2 Bft)
25.11.2016 06:36 2,7 °C 2,7 °C 97 % 1014,9 hPa 0,0 mm 4,4 km/h (1 Bft) O-NO 74 ° 0 min 0,000 mm 0,0 UV-I 0 W/m² 2,3 °C 6,4 km/h (2 Bft)
25.11.2016 06:37 2,7 °C 2,8 °C 97 % 1014,9 hPa 0,0 mm 3,8 km/h (1 Bft) O-NO 71 ° 0 min 0,000 mm 0,0 UV-I 0 W/m² 2,3 °C 6,4 km/h (2 Bft)
25.11.2016 06:38 2,7 °C 2,7 °C 97 % 1014,9 hPa 0,0 mm 6,9 km/h (2 Bft) O-NO 70 ° 0 min 0,000 mm 0,0 UV-I 0 W/m² 2,3 °C 11,3 km/h (2 Bft)
25.11.2016 06:39 2,7 °C 2,8 °C 97 % 1014,9 hPa 0,0 mm 6,4 km/h (2 Bft) O 86 ° 0 min 0,000 mm 0,0 UV-I 0 W/m² 2,3 °C 11,3 km/h (2 Bft)
25.11.2016 06:40 2,7 °C 2,7 °C 97 % 1014,9 hPa 0,0 mm 3,1 km/h (1 Bft) O 98 ° 0 min 0,000 mm 0,0 UV-I 0 W/m² 2,3 °C 6,4 km/h (2 Bft)
25.11.2016 06:41 2,7 °C 2,7 °C 97 % 1014,9 hPa 0,0 mm 5,2 km/h (1 Bft) O-NO 71 ° 0 min 0,000 mm 0,0 UV-I 0 W/m² 2,3 °C 8,0 km/h (2 Bft)
25.11.2016 06:42 2,7 °C 2,7 °C 97 % 1014,9 hPa 0,0 mm 3,7 km/h (1 Bft) O-NO 71 ° 0 min 0,000 mm 0,0 UV-I 0 W/m² 2,3 °C 4,8 km/h (1 Bft)
25.11.2016 06:43 2,7 °C 2,7 °C 97 % 1014,9 hPa 0,0 mm 4,6 km/h (1 Bft) NO 36 ° 0 min 0,000 mm 0,0 UV-I 0 W/m² 2,3 °C 6,4 km/h (2 Bft)
25.11.2016 06:44 2,7 °C 2,8 °C 97 % 1014,9 hPa 0,0 mm 5,1 km/h (1 Bft) O-NO 63 ° 0 min 0,000 mm 0,0 UV-I 0 W/m² 2,3 °C 8,0 km/h (2 Bft)
25.11.2016 06:45 2,7 °C 2,8 °C 97 % 1014,8 hPa 0,0 mm 6,0 km/h (2 Bft) O-NO 72 ° 0 min 0,000 mm 0,0 UV-I 0 W/m² 2,3 °C 11,3 km/h (2 Bft)
25.11.2016 06:46 2,7 °C 2,8 °C 97 % 1014,8 hPa 0,0 mm 5,0 km/h (1 Bft) O-NO 64 ° 0 min 0,000 mm 0,0 UV-I 0 W/m² 2,3 °C 8,0 km/h (2 Bft)
25.11.2016 06:47 2,7 °C 2,8 °C 97 % 1014,8 hPa 0,0 mm 7,8 km/h (2 Bft) O-NO 78 ° 0 min 0,000 mm 0,0 UV-I 0 W/m² 2,3 °C 14,5 km/h (3 Bft)
25.11.2016 06:48 2,7 °C 2,8 °C 97 % 1014,8 hPa 0,0 mm 6,2 km/h (2 Bft) O-NO 72 ° 0 min 0,000 mm 0,0 UV-I 0 W/m² 2,3 °C 8,0 km/h (2 Bft)
25.11.2016 06:49 2,7 °C 2,8 °C 97 % 1014,8 hPa 0,0 mm 4,2 km/h (1 Bft) O-NO 78 ° 0 min 0,000 mm 0,0 UV-I 0 W/m² 2,3 °C 6,4 km/h (2 Bft)
25.11.2016 06:50 2,7 °C 2,7 °C 97 % 1014,8 hPa 0,0 mm 4,8 km/h (1 Bft) O-NO 62 ° 0 min 0,000 mm 0,0 UV-I 0 W/m² 2,3 °C 8,0 km/h (2 Bft)
25.11.2016 06:51 2,7 °C 2,8 °C 97 % 1014,8 hPa 0,0 mm 4,1 km/h (1 Bft) O-NO 59 ° 0 min 0,000 mm 0,0 UV-I 0 W/m² 2,3 °C 6,4 km/h (2 Bft)
25.11.2016 06:52 2,7 °C 2,8 °C 97 % 1014,8 hPa 0,0 mm 3,9 km/h (1 Bft) NO 46 ° 0 min 0,000 mm 0,0 UV-I 0 W/m² 2,3 °C 6,4 km/h (2 Bft)
25.11.2016 06:53 2,8 °C 2,8 °C 97 % 1014,8 hPa 0,0 mm 5,7 km/h (1 Bft) NO 40 ° 0 min 0,000 mm 0,0 UV-I 0 W/m² 2,4 °C 9,7 km/h (2 Bft)
25.11.2016 06:54 2,8 °C 2,8 °C 97 % 1014,8 hPa 0,0 mm 5,0 km/h (1 Bft) O-NO 69 ° 0 min 0,000 mm 0,0 UV-I 0 W/m² 2,4 °C 6,4 km/h (2 Bft)
25.11.2016 06:55 2,8 °C 2,8 °C 97 % 1014,8 hPa 0,0 mm 4,4 km/h (1 Bft) NO 43 ° 0 min 0,000 mm 0,0 UV-I 0 W/m² 2,4 °C 6,4 km/h (2 Bft)
25.11.2016 06:56 2,8 °C 2,8 °C 97 % 1014,8 hPa 0,0 mm 6,2 km/h (2 Bft) NO 46 ° 0 min 0,000 mm 0,0 UV-I 0 W/m² 2,4 °C 9,7 km/h (2 Bft)
25.11.2016 06:57 2,8 °C 2,8 °C 97 % 1014,8 hPa 0,0 mm 5,4 km/h (1 Bft) O-NO 64 ° 0 min 0,000 mm 0,0 UV-I 0 W/m² 2,4 °C 8,0 km/h (2 Bft)
25.11.2016 06:58 2,8 °C 2,8 °C 97 % 1014,8 hPa 0,0 mm 4,8 km/h (1 Bft) O-NO 61 ° 0 min 0,000 mm 0,0 UV-I 0 W/m² 2,4 °C 6,4 km/h (2 Bft)
25.11.2016 06:59 2,8 °C 2,8 °C 97 % 1014,7 hPa 0,0 mm 8,8 km/h (2 Bft) O-NO 67 ° 0 min 0,000 mm 0,0 UV-I 0 W/m² 2,4 °C 12,9 km/h (3 Bft)
25.11.2016 07:00 2,8 °C 2,8 °C 97 % 1014,8 hPa 0,0 mm 5,2 km/h (1 Bft) O-NO 59 ° 0 min 0,000 mm 0,0 UV-I 0 W/m² 2,4 °C 9,7 km/h (2 Bft)
25.11.2016 07:01 2,8 °C 2,8 °C 97 % 1014,8 hPa 0,0 mm 7,5 km/h (2 Bft) O 94 ° 0 min 0,000 mm 0,0 UV-I 0 W/m² 2,4 °C 12,9 km/h (3 Bft)
25.11.2016 07:02 2,8 °C 2,8 °C 97 % 1014,8 hPa 0,0 mm 6,2 km/h (2 Bft) N-NW 332 ° 0 min 0,000 mm 0,0 UV-I 0 W/m² 2,4 °C 8,0 km/h (2 Bft)
25.11.2016 07:03 2,8 °C 2,8 °C 97 % 1014,8 hPa 0,0 mm 7,8 km/h (2 Bft) O-NO 76 ° 0 min 0,000 mm 0,0 UV-I 0 W/m² 2,4 °C 12,9 km/h (3 Bft)
25.11.2016 07:04 2,8 °C 2,8 °C 97 % 1014,8 hPa 0,0 mm 8,2 km/h (2 Bft) O 92 ° 0 min 0,000 mm 0,0 UV-I 0 W/m² 2,4 °C 14,5 km/h (3 Bft)
25.11.2016 07:05 2,8 °C 2,8 °C 97 % 1014,8 hPa 0,0 mm 9,4 km/h (2 Bft) O 86 ° 0 min 0,000 mm 0,0 UV-I 0 W/m² 2,4 °C 12,9 km/h (3 Bft)
25.11.2016 07:06 2,8 °C 2,8 °C 97 % 1014,8 hPa 0,0 mm 9,9 km/h (2 Bft) O-NO 74 ° 0 min 0,000 mm 0,0 UV-I 0 W/m² 2,4 °C 14,5 km/h (3 Bft)
25.11.2016 07:07 2,8 °C 2,8 °C 97 % 1014,9 hPa 0,0 mm 5,3 km/h (1 Bft) O-NO 76 ° 0 min 0,000 mm 0,0 UV-I 0 W/m² 2,4 °C 8,0 km/h (2 Bft)
25.11.2016 07:08 2,8 °C 2,8 °C 97 % 1014,8 hPa 0,0 mm 4,2 km/h (1 Bft) NO 40 ° 0 min 0,000 mm 0,0 UV-I 0 W/m² 2,4 °C 6,4 km/h (2 Bft)
25.11.2016 07:09 2,8 °C 2,8 °C 97 % 1014,8 hPa 0,0 mm 4,6 km/h (1 Bft) NO 51 ° 0 min 0,000 mm 0,0 UV-I 0 W/m² 2,4 °C 6,4 km/h (2 Bft)
25.11.2016 07:10 2,8 °C 2,9 °C 97 % 1014,8 hPa 0,0 mm 4,6 km/h (1 Bft) NO 53 ° 0 min 0,000 mm 0,0 UV-I 0 W/m² 2,4 °C 6,4 km/h (2 Bft)
25.11.2016 07:11 2,8 °C 2,8 °C 97 % 1014,8 hPa 0,0 mm 5,6 km/h (1 Bft) O 82 ° 0 min 0,000 mm 0,0 UV-I 0 W/m² 2,4 °C 11,3 km/h (2 Bft)
25.11.2016 07:12 2,9 °C 2,9 °C 97 % 1014,7 hPa 0,0 mm 5,2 km/h (1 Bft) NO 43 ° 0 min 0,000 mm 0,0 UV-I 0 W/m² 2,5 °C 6,4 km/h (2 Bft)
25.11.2016 07:13 2,8 °C 2,9 °C 97 % 1014,7 hPa 0,0 mm 5,2 km/h (1 Bft) O 79 ° 0 min 0,000 mm 0,0 UV-I 0 W/m² 2,4 °C 8,0 km/h (2 Bft)
25.11.2016 07:14 2,8 °C 2,9 °C 97 % 1014,7 hPa 0,0 mm 4,0 km/h (1 Bft) O-NO 78 ° 0 min 0,000 mm 0,0 UV-I 0 W/m² 2,4 °C 4,8 km/h (1 Bft)
25.11.2016 07:15 2,8 °C 2,9 °C 97 % 1014,6 hPa 0,0 mm 2,7 km/h (1 Bft) O-NO 61 ° 0 min 0,000 mm 0,0 UV-I 0 W/m² 2,4 °C 4,8 km/h (1 Bft)
25.11.2016 07:16 2,9 °C 2,9 °C 97 % 1014,7 hPa 0,0 mm 4,1 km/h (1 Bft) O 82 ° 0 min 0,000 mm 0,0 UV-I 0 W/m² 2,5 °C 8,0 km/h (2 Bft)
25.11.2016 07:17 2,8 °C 2,9 °C 97 % 1014,7 hPa 0,0 mm 3,8 km/h (1 Bft) O 95 ° 0 min 0,000 mm 0,0 UV-I 0 W/m² 2,4 °C 6,4 km/h (2 Bft)
25.11.2016 07:18 2,9 °C 2,9 °C 97 % 1014,7 hPa 0,0 mm 2,0 km/h (1 Bft) O 95 ° 0 min 0,000 mm 0,0 UV-I 0 W/m² 2,5 °C 3,2 km/h (1 Bft)
25.11.2016 07:19 2,9 °C 2,9 °C 97 % 1014,7 hPa 0,0 mm 1,7 km/h (1 Bft) O 95 ° 0 min 0,000 mm 0,0 UV-I 0 W/m² 2,5 °C 3,2 km/h (1 Bft)
25.11.2016 07:20 2,9 °C 2,9 °C 97 % 1014,7 hPa 0,0 mm 1,3 km/h (1 Bft) O 88 ° 0 min 0,000 mm 0,0 UV-I 0 W/m² 2,5 °C 3,2 km/h (1 Bft)
25.11.2016 07:21 2,9 °C 2,9 °C 97 % 1014,8 hPa 0,0 mm 2,3 km/h (1 Bft) O 88 ° 0 min 0,000 mm 0,0 UV-I 0 W/m² 2,5 °C 3,2 km/h (1 Bft)
25.11.2016 07:22 2,9 °C 2,9 °C 97 % 1014,7 hPa 0,0 mm 4,0 km/h (1 Bft) O-NO 72 ° 0 min 0,000 mm 0,0 UV-I 0 W/m² 2,5 °C 6,4 km/h (2 Bft)
25.11.2016 07:23 2,8 °C 2,9 °C 97 % 1014,7 hPa 0,0 mm 3,6 km/h (1 Bft) O-NO 57 ° 0 min 0,000 mm 0,0 UV-I 0 W/m² 2,4 °C 6,4 km/h (2 Bft)
25.11.2016 07:24 2,9 °C 2,9 °C 97 % 1014,8 hPa 0,0 mm 3,8 km/h (1 Bft) O-SO 116 ° 0 min 0,000 mm 0,0 UV-I 0 W/m² 2,5 °C 6,4 km/h (2 Bft)
25.11.2016 07:25 2,9 °C 2,9 °C 97 % 1014,7 hPa 0,0 mm 5,4 km/h (1 Bft) O-NO 77 ° 0 min 0,000 mm 0,0 UV-I 0 W/m² 2,5 °C 6,4 km/h (2 Bft)
25.11.2016 07:26 2,8 °C 2,9 °C 97 % 1014,7 hPa 0,0 mm 2,8 km/h (1 Bft) O-NO 77 ° 0 min 0,000 mm 0,0 UV-I 0 W/m² 2,4 °C 4,8 km/h (1 Bft)
25.11.2016 07:27 2,9 °C 2,9 °C 97 % 1014,8 hPa 0,0 mm 6,0 km/h (2 Bft) O-NO 65 ° 0 min 0,000 mm 0,0 UV-I 0 W/m² 2,5 °C 11,3 km/h (2 Bft)
25.11.2016 07:28 2,9 °C 2,9 °C 97 % 1014,8 hPa 0,0 mm 5,8 km/h (2 Bft) O-NO 76 ° 0 min 0,000 mm 0,0 UV-I 0 W/m² 2,5 °C 9,7 km/h (2 Bft)
25.11.2016 07:29 2,9 °C 2,9 °C 97 % 1014,8 hPa 0,0 mm 2,8 km/h (1 Bft) O 98 ° 0 min 0,000 mm 0,0 UV-I 0 W/m² 2,5 °C 4,8 km/h (1 Bft)
25.11.2016 07:30 2,9 °C 2,9 °C 97 % 1014,7 hPa 0,0 mm 5,6 km/h (1 Bft) SO 141 ° 0 min 0,000 mm 0,0 UV-I 0 W/m² 2,5 °C 11,3 km/h (2 Bft)
25.11.2016 07:31 2,9 °C 2,9 °C 97 % 1014,7 hPa 0,0 mm 6,3 km/h (2 Bft) O-NO 70 ° 0 min 0,000 mm 0,0 UV-I 0 W/m² 2,5 °C 9,7 km/h (2 Bft)
25.11.2016 07:32 2,8 °C 2,9 °C 97 % 1014,7 hPa 0,0 mm 7,3 km/h (2 Bft) O 81 ° 0 min 0,000 mm 0,0 UV-I 0 W/m² 2,4 °C 9,7 km/h (2 Bft)
25.11.2016 07:33 2,8 °C 2,9 °C 97 % 1014,7 hPa 0,0 mm 5,9 km/h (2 Bft) O 80 ° 0 min 0,000 mm 0,0 UV-I 0 W/m² 2,4 °C 12,9 km/h (3 Bft)
25.11.2016 07:34 2,8 °C 2,8 °C 97 % 1014,7 hPa 0,0 mm 5,6 km/h (1 Bft) NO 51 ° 0 min 0,000 mm 0,0 UV-I 0 W/m² 2,4 °C 8,0 km/h (2 Bft)
25.11.2016 07:35 2,8 °C 2,8 °C 97 % 1014,7 hPa 0,0 mm 6,4 km/h (2 Bft) O 99 ° 0 min 0,000 mm 0,0 UV-I 0 W/m² 2,4 °C 8,0 km/h (2 Bft)
25.11.2016 07:36 2,8 °C 2,9 °C 97 % 1014,7 hPa 0,0 mm 5,2 km/h (1 Bft) O-NO 65 ° 0 min 0,000 mm 0,0 UV-I 0 W/m² 2,4 °C 6,4 km/h (2 Bft)
25.11.2016 07:37 2,8 °C 2,8 °C 97 % 1014,7 hPa 0,0 mm 7,2 km/h (2 Bft) O-NO 76 ° 0 min 0,000 mm 0,0 UV-I 0 W/m² 2,4 °C 11,3 km/h (2 Bft)
25.11.2016 07:38 2,8 °C 2,9 °C 97 % 1014,8 hPa 0,0 mm 5,8 km/h (2 Bft) NO 55 ° 0 min 0,000 mm 0,0 UV-I 0 W/m² 2,4 °C 8,0 km/h (2 Bft)
25.11.2016 07:39 2,8 °C 2,8 °C 97 % 1014,7 hPa 0,0 mm 4,1 km/h (1 Bft) O-NO 61 ° 0 min 0,000 mm 0,0 UV-I 0 W/m² 2,4 °C 6,4 km/h (2 Bft)
25.11.2016 07:40 2,8 °C 2,8 °C 97 % 1014,7 hPa 0,0 mm 5,2 km/h (1 Bft) O-NO 67 ° 0 min 0,000 mm 0,0 UV-I 0 W/m² 2,4 °C 8,0 km/h (2 Bft)
25.11.2016 07:41 2,8 °C 2,8 °C 97 % 1014,8 hPa 0,0 mm 5,0 km/h (1 Bft) O 93 ° 0 min 0,000 mm 0,0 UV-I 0 W/m² 2,4 °C 8,0 km/h (2 Bft)
25.11.2016 07:42 2,8 °C 2,8 °C 97 % 1014,8 hPa 0,0 mm 5,0 km/h (1 Bft) O-NO 77 ° 0 min 0,000 mm 0,0 UV-I 0 W/m² 2,4 °C 6,4 km/h (2 Bft)
25.11.2016 07:43 2,8 °C 2,8 °C 97 % 1014,8 hPa 0,0 mm 2,8 km/h (1 Bft) O-NO 78 ° 0 min 0,000 mm 0,0 UV-I 0 W/m² 2,4 °C 4,8 km/h (1 Bft)
25.11.2016 07:44 2,8 °C 2,8 °C 97 % 1014,8 hPa 0,0 mm 3,4 km/h (1 Bft) O-NO 75 ° 0 min 0,000 mm 0,0 UV-I 0 W/m² 2,4 °C 8,0 km/h (2 Bft)
25.11.2016 07:45 2,8 °C 2,8 °C 97 % 1014,8 hPa 0,0 mm 4,9 km/h (1 Bft) O-NO 63 ° 0 min 0,000 mm 0,0 UV-I 0 W/m² 2,4 °C 6,4 km/h (2 Bft)
25.11.2016 07:46 2,8 °C 2,8 °C 97 % 1014,8 hPa 0,0 mm 6,4 km/h (2 Bft) O-NO 66 ° 0 min 0,000 mm 0,0 UV-I 0 W/m² 2,4 °C 9,7 km/h (2 Bft)
25.11.2016 07:47 2,8 °C 2,8 °C 97 % 1014,8 hPa 0,0 mm 6,0 km/h (2 Bft) O-NO 57 ° 0 min 0,000 mm 0,0 UV-I 0 W/m² 2,4 °C 9,7 km/h (2 Bft)
25.11.2016 07:48 2,8 °C 2,8 °C 97 % 1014,8 hPa 0,0 mm 5,2 km/h (1 Bft) O 96 ° 0 min 0,000 mm 0,0 UV-I 0 W/m² 2,4 °C 8,0 km/h (2 Bft)
25.11.2016 07:49 2,8 °C 2,8 °C 97 % 1014,8 hPa 0,0 mm 2,9 km/h (1 Bft) O-NO 65 ° 0 min 0,000 mm 0,0 UV-I 0 W/m² 2,4 °C 6,4 km/h (2 Bft)
25.11.2016 07:50 2,8 °C 2,8 °C 97 % 1014,7 hPa 0,0 mm 4,7 km/h (1 Bft) O 82 ° 0 min 0,000 mm 0,0 UV-I 0 W/m² 2,4 °C 6,4 km/h (2 Bft)
25.11.2016 07:51 2,8 °C 2,8 °C 97 % 1014,8 hPa 0,0 mm 3,3 km/h (1 Bft) O-NO 63 ° 0 min 0,000 mm 0,0 UV-I 0 W/m² 2,4 °C 4,8 km/h (1 Bft)
25.11.2016 07:52 2,8 °C 2,8 °C 97 % 1014,9 hPa 0,0 mm 2,3 km/h (1 Bft) O-NO 63 ° 0 min 0,000 mm 0,0 UV-I 0 W/m² 2,4 °C 3,2 km/h (1 Bft)
25.11.2016 07:53 2,8 °C 2,8 °C 97 % 1014,9 hPa 0,0 mm 5,4 km/h (1 Bft) O-NO 74 ° 0 min 0,000 mm 0,0 UV-I 0 W/m² 2,4 °C 8,0 km/h (2 Bft)
25.11.2016 07:54 2,8 °C 2,8 °C 97 % 1014,9 hPa 0,0 mm 2,5 km/h (1 Bft) O-NO 76 ° 0 min 0,000 mm 0,0 UV-I 0 W/m² 2,4 °C 4,8 km/h (1 Bft)
25.11.2016 07:55 2,8 °C 2,8 °C 97 % 1014,9 hPa 0,0 mm 1,9 km/h (1 Bft) O-NO 76 ° 0 min 0,000 mm 0,0 UV-I 0 W/m² 2,4 °C 3,2 km/h (1 Bft)
25.11.2016 07:56 2,8 °C 2,8 °C 97 % 1014,8 hPa 0,0 mm 3,8 km/h (1 Bft) O-NO 59 ° 0 min 0,000 mm 0,0 UV-I 0 W/m² 2,4 °C 4,8 km/h (1 Bft)
25.11.2016 07:57 2,8 °C 2,8 °C 97 % 1014,9 hPa 0,0 mm 5,8 km/h (2 Bft) O-SO 104 ° 0 min 0,000 mm 0,0 UV-I 0 W/m² 2,4 °C 11,3 km/h (2 Bft)
25.11.2016 07:58 2,8 °C 2,8 °C 97 % 1014,9 hPa 0,0 mm 5,4 km/h (1 Bft) O-NO 71 ° 0 min 0,000 mm 0,0 UV-I 0 W/m² 2,4 °C 9,7 km/h (2 Bft)
25.11.2016 07:59 2,8 °C 2,8 °C 97 % 1014,9 hPa 0,0 mm 4,8 km/h (1 Bft) O-SO 117 ° 0 min 0,000 mm 0,0 UV-I 0 W/m² 2,4 °C 6,4 km/h (2 Bft)
25.11.2016 08:00 2,8 °C 2,8 °C 97 % 1014,9 hPa 0,0 mm 4,3 km/h (1 Bft) O-NO 58 ° 0 min 0,000 mm 0,0 UV-I 0 W/m² 2,4 °C 6,4 km/h (2 Bft)
25.11.2016 08:01 2,8 °C 2,8 °C 97 % 1014,9 hPa 0,0 mm 4,3 km/h (1 Bft) O-NO 59 ° 0 min 0,000 mm 0,0 UV-I 0 W/m² 2,4 °C 4,8 km/h (1 Bft)
25.11.2016 08:02 2,8 °C 2,8 °C 97 % 1014,9 hPa 0,0 mm 5,4 km/h (1 Bft) O-NO 67 ° 0 min 0,000 mm 0,0 UV-I 0 W/m² 2,4 °C 6,4 km/h (2 Bft)
25.11.2016 08:03 2,8 °C 2,8 °C 97 % 1014,9 hPa 0,0 mm 5,0 km/h (1 Bft) NO 49 ° 0 min 0,000 mm 0,0 UV-I 0 W/m² 2,4 °C 8,0 km/h (2 Bft)
25.11.2016 08:04 2,8 °C 2,8 °C 97 % 1014,9 hPa 0,0 mm 4,1 km/h (1 Bft) O-NO 67 ° 0 min 0,000 mm 0,0 UV-I 0 W/m² 2,4 °C 6,4 km/h (2 Bft)
25.11.2016 08:05 2,8 °C 2,8 °C 97 % 1014,9 hPa 0,0 mm 2,3 km/h (1 Bft) O-NO 59 ° 0 min 0,000 mm 0,0 UV-I 0 W/m² 2,4 °C 4,8 km/h (1 Bft)
25.11.2016 08:06 2,8 °C 2,8 °C 97 % 1015,0 hPa 0,0 mm 3,6 km/h (1 Bft) O-NO 74 ° 0 min 0,000 mm 0,0 UV-I 0 W/m² 2,4 °C 6,4 km/h (2 Bft)
25.11.2016 08:07 2,8 °C 2,8 °C 97 % 1015,0 hPa 0,0 mm 0,9 km/h (0 Bft) O-NO 74 ° 0 min 0,000 mm 0,0 UV-I 0 W/m² 2,4 °C 3,2 km/h (1 Bft)
25.11.2016 08:08 2,8 °C 2,8 °C 97 % 1015,0 hPa 0,0 mm 3,0 km/h (1 Bft) O-NO 65 ° 0 min 0,000 mm 0,0 UV-I 0 W/m² 2,4 °C 4,8 km/h (1 Bft)
25.11.2016 08:09 2,8 °C 2,8 °C 97 % 1015,0 hPa 0,0 mm 2,9 km/h (1 Bft) O-NO 65 ° 0 min 0,000 mm 0,0 UV-I 0 W/m² 2,4 °C 4,8 km/h (1 Bft)
25.11.2016 08:10 2,8 °C 2,8 °C 97 % 1015,1 hPa 0,0 mm 1,0 km/h (0 Bft) O-NO 65 ° 0 min 0,000 mm 0,0 UV-I 0 W/m² 2,4 °C 3,2 km/h (1 Bft)
25.11.2016 08:11 2,8 °C 2,8 °C 97 % 1015,1 hPa 0,0 mm 3,3 km/h (1 Bft) O-NO 78 ° 0 min 0,000 mm 0,0 UV-I 5 W/m² 2,4 °C 6,4 km/h (2 Bft)
25.11.2016 08:12 2,8 °C 2,8 °C 97 % 1015,1 hPa 0,0 mm 3,6 km/h (1 Bft) O-NO 62 ° 0 min 0,000 mm 0,0 UV-I 5 W/m² 2,4 °C 8,0 km/h (2 Bft)
25.11.2016 08:13 2,8 °C 2,8 °C 97 % 1015,2 hPa 0,0 mm 5,2 km/h (1 Bft) O-NO 66 ° 0 min 0,000 mm 0,0 UV-I 5 W/m² 2,4 °C 9,7 km/h (2 Bft)
25.11.2016 08:14 2,8 °C 2,8 °C 97 % 1015,1 hPa 0,0 mm 3,8 km/h (1 Bft) O-NO 57 ° 0 min 0,000 mm 0,0 UV-I 5 W/m² 2,4 °C 6,4 km/h (2 Bft)
25.11.2016 08:15 2,8 °C 2,8 °C 97 % 1015,2 hPa 0,0 mm 2,0 km/h (1 Bft) O-NO 57 ° 0 min 0,000 mm 0,0 UV-I 5 W/m² 2,4 °C 3,2 km/h (1 Bft)
25.11.2016 08:16 2,8 °C 2,8 °C 97 % 1015,2 hPa 0,0 mm 2,1 km/h (1 Bft) O 90 ° 0 min 0,000 mm 0,0 UV-I 5 W/m² 2,4 °C 4,8 km/h (1 Bft)
25.11.2016 08:17 2,8 °C 2,8 °C 97 % 1015,2 hPa 0,0 mm 2,8 km/h (1 Bft) O-NO 70 ° 0 min 0,000 mm 0,0 UV-I 5 W/m² 2,4 °C 6,4 km/h (2 Bft)
25.11.2016 08:18 2,8 °C 2,8 °C 97 % 1015,1 hPa 0,0 mm 3,3 km/h (1 Bft) O 95 ° 0 min 0,000 mm 0,0 UV-I 5 W/m² 2,4 °C 6,4 km/h (2 Bft)
25.11.2016 08:19 2,8 °C 2,8 °C 97 % 1015,2 hPa 0,0 mm 6,2 km/h (2 Bft) O-SO 122 ° 0 min 0,000 mm 0,0 UV-I 5 W/m² 2,4 °C 9,7 km/h (2 Bft)
25.11.2016 08:20 2,8 °C 2,8 °C 97 % 1015,2 hPa 0,0 mm 2,7 km/h (1 Bft) O-NO 77 ° 0 min 0,000 mm 0,0 UV-I 5 W/m² 2,4 °C 4,8 km/h (1 Bft)
25.11.2016 08:21 2,8 °C 2,8 °C 97 % 1015,1 hPa 0,0 mm 3,0 km/h (1 Bft) O-NO 78 ° 0 min 0,000 mm 0,0 UV-I 5 W/m² 2,4 °C 4,8 km/h (1 Bft)
25.11.2016 08:22 2,8 °C 2,8 °C 97 % 1015,1 hPa 0,0 mm 2,9 km/h (1 Bft) O 88 ° 0 min 0,000 mm 0,0 UV-I 5 W/m² 2,4 °C 6,4 km/h (2 Bft)
25.11.2016 08:23 2,8 °C 2,9 °C 97 % 1015,2 hPa 0,0 mm 4,7 km/h (1 Bft) O-NO 76 ° 0 min 0,000 mm 0,0 UV-I 5 W/m² 2,4 °C 6,4 km/h (2 Bft)
25.11.2016 08:24 2,8 °C 2,9 °C 97 % 1015,2 hPa 0,0 mm 3,4 km/h (1 Bft) O-NO 76 ° 0 min 0,000 mm 0,0 UV-I 5 W/m² 2,4 °C 4,8 km/h (1 Bft)
25.11.2016 08:25 2,8 °C 2,9 °C 97 % 1015,2 hPa 0,0 mm 2,4 km/h (1 Bft) O-NO 76 ° 0 min 0,000 mm 0,0 UV-I 5 W/m² 2,4 °C 3,2 km/h (1 Bft)
25.11.2016 08:26 2,8 °C 2,9 °C 97 % 1015,2 hPa 0,0 mm 4,2 km/h (1 Bft) NO 51 ° 0 min 0,000 mm 0,0 UV-I 5 W/m² 2,4 °C 6,4 km/h (2 Bft)
25.11.2016 08:27 2,9 °C 2,9 °C 97 % 1015,2 hPa 0,0 mm 5,1 km/h (1 Bft) NO 34 ° 0 min 0,000 mm 0,0 UV-I 5 W/m² 2,5 °C 8,0 km/h (2 Bft)
25.11.2016 08:28 2,9 °C 2,9 °C 97 % 1015,2 hPa 0,0 mm 4,0 km/h (1 Bft) N-NO 31 ° 0 min 0,000 mm 0,0 UV-I 5 W/m² 2,5 °C 6,4 km/h (2 Bft)
25.11.2016 08:29 2,9 °C 2,9 °C 97 % 1015,2 hPa 0,0 mm 8,6 km/h (2 Bft) O-NO 71 ° 0 min 0,000 mm 0,0 UV-I 5 W/m² 2,5 °C 12,9 km/h (3 Bft)
25.11.2016 08:30 2,9 °C 2,9 °C 97 % 1015,2 hPa 0,0 mm 5,4 km/h (1 Bft) O-NO 71 ° 0 min 0,000 mm 0,0 UV-I 5 W/m² 2,5 °C 8,0 km/h (2 Bft)
25.11.2016 08:31 2,8 °C 2,9 °C 97 % 1015,2 hPa 0,0 mm 3,8 km/h (1 Bft) NO 47 ° 0 min 0,000 mm 0,0 UV-I 5 W/m² 2,4 °C 6,4 km/h (2 Bft)
25.11.2016 08:32 2,9 °C 2,9 °C 97 % 1015,2 hPa 0,0 mm 3,2 km/h (1 Bft) O 88 ° 0 min 0,000 mm 0,0 UV-I 5 W/m² 2,5 °C 4,8 km/h (1 Bft)
25.11.2016 08:33 2,9 °C 2,9 °C 97 % 1015,2 hPa 0,0 mm 4,8 km/h (1 Bft) N-NO 13 ° 0 min 0,000 mm 0,0 UV-I 7 W/m² 2,5 °C 8,0 km/h (2 Bft)
25.11.2016 08:34 2,9 °C 2,9 °C 97 % 1015,3 hPa 0,0 mm 6,1 km/h (2 Bft) NO 38 ° 0 min 0,000 mm 0,0 UV-I 7 W/m² 2,5 °C 9,7 km/h (2 Bft)
25.11.2016 08:35 2,9 °C 2,9 °C 97 % 1015,2 hPa 0,0 mm 6,5 km/h (2 Bft) O-NO 60 ° 0 min 0,000 mm 0,0 UV-I 7 W/m² 2,5 °C 11,3 km/h (2 Bft)
25.11.2016 08:36 2,8 °C 2,9 °C 97 % 1015,2 hPa 0,0 mm 7,3 km/h (2 Bft) O-NO 59 ° 0 min 0,000 mm 0,0 UV-I 7 W/m² 2,4 °C 14,5 km/h (3 Bft)
25.11.2016 08:37 2,9 °C 2,9 °C 97 % 1015,2 hPa 0,0 mm 9,4 km/h (2 Bft) NO 37 ° 0 min 0,000 mm 0,0 UV-I 7 W/m² 2,5 °C 16,1 km/h (3 Bft)
25.11.2016 08:38 2,8 °C 2,9 °C 97 % 1015,3 hPa 0,0 mm 7,6 km/h (2 Bft) O 79 ° 0 min 0,000 mm 0,0 UV-I 7 W/m² 2,4 °C 11,3 km/h (2 Bft)
25.11.2016 08:39 2,8 °C 2,8 °C 97 % 1015,3 hPa 0,0 mm 5,7 km/h (1 Bft) O-NO 71 ° 0 min 0,000 mm 0,0 UV-I 7 W/m² 2,4 °C 9,7 km/h (2 Bft)
25.11.2016 08:40 2,9 °C 2,9 °C 97 % 1015,3 hPa 0,0 mm 3,8 km/h (1 Bft) O-NO 67 ° 0 min 0,000 mm 0,0 UV-I 7 W/m² 2,5 °C 6,4 km/h (2 Bft)
25.11.2016 08:41 2,8 °C 2,9 °C 97 % 1015,3 hPa 0,0 mm 7,2 km/h (2 Bft) O-NO 58 ° 0 min 0,000 mm 0,0 UV-I 7 W/m² 2,4 °C 12,9 km/h (3 Bft)
25.11.2016 08:42 2,8 °C 2,8 °C 97 % 1015,3 hPa 0,0 mm 9,4 km/h (2 Bft) O 82 ° 0 min 0,000 mm 0,0 UV-I 7 W/m² 2,4 °C 16,1 km/h (3 Bft)
25.11.2016 08:43 2,8 °C 2,8 °C 97 % 1015,3 hPa 0,0 mm 5,6 km/h (1 Bft) O-NO 62 ° 0 min 0,000 mm 0,0 UV-I 9 W/m² 2,4 °C 8,0 km/h (2 Bft)
25.11.2016 08:44 2,8 °C 2,8 °C 97 % 1015,3 hPa 0,0 mm 3,4 km/h (1 Bft) NO 43 ° 0 min 0,000 mm 0,0 UV-I 9 W/m² 2,4 °C 6,4 km/h (2 Bft)
25.11.2016 08:45 2,8 °C 2,8 °C 97 % 1015,4 hPa 0,0 mm 4,7 km/h (1 Bft) O 94 ° 0 min 0,000 mm 0,0 UV-I 9 W/m² 2,4 °C 9,7 km/h (2 Bft)
25.11.2016 08:46 2,8 °C 2,8 °C 97 % 1015,4 hPa 0,0 mm 2,7 km/h (1 Bft) O-NO 66 ° 0 min 0,000 mm 0,0 UV-I 9 W/m² 2,4 °C 4,8 km/h (1 Bft)
25.11.2016 08:47 2,8 °C 2,8 °C 97 % 1015,4 hPa 0,0 mm 4,5 km/h (1 Bft) O-NO 61 ° 0 min 0,000 mm 0,0 UV-I 9 W/m² 2,4 °C 8,0 km/h (2 Bft)
25.11.2016 08:48 2,8 °C 2,8 °C 97 % 1015,4 hPa 0,0 mm 5,9 km/h (2 Bft) NO 41 ° 0 min 0,000 mm 0,0 UV-I 9 W/m² 2,4 °C 12,9 km/h (3 Bft)
25.11.2016 08:49 2,8 °C 2,8 °C 97 % 1015,4 hPa 0,0 mm 7,0 km/h (2 Bft) NW 324 ° 0 min 0,000 mm 0,0 UV-I 9 W/m² 2,4 °C 11,3 km/h (2 Bft)
25.11.2016 08:50 2,8 °C 2,8 °C 97 % 1015,4 hPa 0,0 mm 5,6 km/h (1 Bft) O-NO 60 ° 0 min 0,000 mm 0,0 UV-I 9 W/m² 2,4 °C 9,7 km/h (2 Bft)
25.11.2016 08:51 2,8 °C 2,8 °C 97 % 1015,4 hPa 0,0 mm 4,1 km/h (1 Bft) O-NO 64 ° 0 min 0,000 mm 0,0 UV-I 9 W/m² 2,4 °C 6,4 km/h (2 Bft)
25.11.2016 08:52 2,8 °C 2,8 °C 97 % 1015,4 hPa 0,0 mm 5,9 km/h (2 Bft) O-NO 59 ° 0 min 0,000 mm 0,0 UV-I 9 W/m² 2,4 °C 8,0 km/h (2 Bft)
25.11.2016 08:53 2,8 °C 2,8 °C 97 % 1015,5 hPa 0,0 mm 6,5 km/h (2 Bft) O-NO 76 ° 0 min 0,000 mm 0,0 UV-I 9 W/m² 2,4 °C 12,9 km/h (3 Bft)
25.11.2016 08:54 2,8 °C 2,8 °C 97 % 1015,5 hPa 0,0 mm 6,6 km/h (2 Bft) O-NO 61 ° 0 min 0,000 mm 0,0 UV-I 9 W/m² 2,4 °C 11,3 km/h (2 Bft)
25.11.2016 08:55 2,8 °C 2,8 °C 97 % 1015,5 hPa 0,0 mm 6,8 km/h (2 Bft) NO 51 ° 0 min 0,000 mm 0,0 UV-I 9 W/m² 2,4 °C 11,3 km/h (2 Bft)
25.11.2016 08:56 2,7 °C 2,8 °C 97 % 1015,5 hPa 0,0 mm 6,7 km/h (2 Bft) O-NO 61 ° 0 min 0,000 mm 0,0 UV-I 11 W/m² 2,3 °C 11,3 km/h (2 Bft)
25.11.2016 08:57 2,8 °C 2,8 °C 97 % 1015,5 hPa 0,0 mm 7,1 km/h (2 Bft) NO 39 ° 0 min 0,000 mm 0,0 UV-I 11 W/m² 2,4 °C 12,9 km/h (3 Bft)
25.11.2016 08:58 2,8 °C 2,8 °C 97 % 1015,5 hPa 0,0 mm 6,5 km/h (2 Bft) O-NO 76 ° 0 min 0,000 mm 0,0 UV-I 11 W/m² 2,4 °C 8,0 km/h (2 Bft)
25.11.2016 08:59 2,8 °C 2,8 °C 97 % 1015,5 hPa 0,0 mm 4,3 km/h (1 Bft) O 86 ° 0 min 0,000 mm 0,0 UV-I 11 W/m² 2,4 °C 8,0 km/h (2 Bft)
25.11.2016 09:00 2,8 °C 2,8 °C 97 % 1015,5 hPa 0,0 mm 5,3 km/h (1 Bft) O-NO 69 ° 0 min 0,000 mm 0,0 UV-I 11 W/m² 2,4 °C 9,7 km/h (2 Bft)
25.11.2016 09:01 2,8 °C 2,8 °C 97 % 1015,5 hPa 0,0 mm 9,6 km/h (2 Bft) NO 44 ° 0 min 0,000 mm 0,0 UV-I 11 W/m² 2,4 °C 19,3 km/h (3 Bft)
25.11.2016 09:02 2,8 °C 2,8 °C 97 % 1015,5 hPa 0,0 mm 10,6 km/h (2 Bft) O-NO 62 ° 0 min 0,000 mm 0,0 UV-I 11 W/m² 2,4 °C 16,1 km/h (3 Bft)
25.11.2016 09:03 2,8 °C 2,8 °C 97 % 1015,5 hPa 0,0 mm 6,8 km/h (2 Bft) O-NO 77 ° 0 min 0,000 mm 0,0 UV-I 11 W/m² 2,4 °C 9,7 km/h (2 Bft)
25.11.2016 09:04 2,8 °C 2,8 °C 97 % 1015,5 hPa 0,0 mm 7,6 km/h (2 Bft) O 86 ° 0 min 0,000 mm 0,0 UV-I 11 W/m² 2,4 °C 11,3 km/h (2 Bft)
25.11.2016 09:05 2,7 °C 2,8 °C 97 % 1015,6 hPa 0,0 mm 9,1 km/h (2 Bft) O-NO 77 ° 0 min 0,000 mm 0,0 UV-I 11 W/m² 2,3 °C 14,5 km/h (3 Bft)
25.11.2016 09:06 2,8 °C 2,8 °C 97 % 1015,6 hPa 0,0 mm 8,9 km/h (2 Bft) O-NO 65 ° 0 min 0,000 mm 0,0 UV-I 11 W/m² 2,4 °C 14,5 km/h (3 Bft)
25.11.2016 09:07 2,8 °C 2,8 °C 97 % 1015,5 hPa 0,0 mm 7,8 km/h (2 Bft) O-NO 71 ° 0 min 0,000 mm 0,0 UV-I 12 W/m² 2,4 °C 12,9 km/h (3 Bft)
25.11.2016 09:08 2,8 °C 2,8 °C 97 % 1015,5 hPa 0,0 mm 6,6 km/h (2 Bft) N-NO 17 ° 0 min 0,000 mm 0,0 UV-I 12 W/m² 2,4 °C 12,9 km/h (3 Bft)
25.11.2016 09:09 2,8 °C 2,8 °C 97 % 1015,5 hPa 0,0 mm 10,3 km/h (2 Bft) O-NO 63 ° 0 min 0,000 mm 0,0 UV-I 12 W/m² 2,4 °C 14,5 km/h (3 Bft)
25.11.2016 09:10 2,8 °C 2,8 °C 97 % 1015,6 hPa 0,0 mm 10,3 km/h (2 Bft) O-NO 65 ° 0 min 0,000 mm 0,0 UV-I 12 W/m² 2,4 °C 16,1 km/h (3 Bft)
25.11.2016 09:11 2,8 °C 2,8 °C 97 % 1015,6 hPa 0,0 mm 10,4 km/h (2 Bft) NO 48 ° 0 min 0,000 mm 0,0 UV-I 14 W/m² 2,4 °C 16,1 km/h (3 Bft)
25.11.2016 09:12 2,7 °C 2,8 °C 97 % 1015,6 hPa 0,0 mm 8,9 km/h (2 Bft) O 93 ° 0 min 0,000 mm 0,0 UV-I 14 W/m² 2,3 °C 14,5 km/h (3 Bft)
25.11.2016 09:13 2,8 °C 2,8 °C 97 % 1015,6 hPa 0,0 mm 8,3 km/h (2 Bft) NO 40 ° 0 min 0,000 mm 0,0 UV-I 14 W/m² 2,4 °C 12,9 km/h (3 Bft)
25.11.2016 09:14 2,8 °C 2,8 °C 97 % 1015,6 hPa 0,0 mm 6,3 km/h (2 Bft) NO 53 ° 0 min 0,000 mm 0,0 UV-I 14 W/m² 2,4 °C 8,0 km/h (2 Bft)
25.11.2016 09:15 2,8 °C 2,8 °C 97 % 1015,6 hPa 0,0 mm 3,8 km/h (1 Bft) NO 40 ° 0 min 0,000 mm 0,0 UV-I 14 W/m² 2,4 °C 8,0 km/h (2 Bft)
25.11.2016 09:16 2,8 °C 2,8 °C 97 % 1015,6 hPa 0,0 mm 5,4 km/h (1 Bft) O-NO 70 ° 0 min 0,000 mm 0,0 UV-I 14 W/m² 2,4 °C 8,0 km/h (2 Bft)
25.11.2016 09:17 2,8 °C 2,8 °C 97 % 1015,6 hPa 0,0 mm 11,7 km/h (2 Bft) NO 50 ° 0 min 0,000 mm 0,0 UV-I 14 W/m² 2,4 °C 20,9 km/h (4 Bft)
25.11.2016 09:18 2,8 °C 2,8 °C 97 % 1015,5 hPa 0,0 mm 10,6 km/h (2 Bft) NO 54 ° 0 min 0,000 mm 0,0 UV-I 14 W/m² 2,4 °C 17,7 km/h (3 Bft)
25.11.2016 09:19 2,8 °C 2,8 °C 97 % 1015,5 hPa 0,0 mm 9,7 km/h (2 Bft) NO 53 ° 0 min 0,000 mm 0,0 UV-I 14 W/m² 2,4 °C 12,9 km/h (3 Bft)
25.11.2016 09:20 2,8 °C 2,8 °C 97 % 1015,5 hPa 0,0 mm 6,6 km/h (2 Bft) NO 56 ° 0 min 0,000 mm 0,0 UV-I 14 W/m² 2,4 °C 11,3 km/h (2 Bft)
25.11.2016 09:21 2,8 °C 2,8 °C 97 % 1015,5 hPa 0,0 mm 4,8 km/h (1 Bft) N-NO 30 ° 0 min 0,000 mm 0,0 UV-I 16 W/m² 2,4 °C 8,0 km/h (2 Bft)
25.11.2016 09:22 2,8 °C 2,8 °C 97 % 1015,6 hPa 0,0 mm 5,7 km/h (1 Bft) NO 46 ° 0 min 0,000 mm 0,0 UV-I 16 W/m² 2,4 °C 8,0 km/h (2 Bft)
25.11.2016 09:23 2,8 °C 2,8 °C 97 % 1015,6 hPa 0,0 mm 8,6 km/h (2 Bft) O-NO 60 ° 0 min 0,000 mm 0,0 UV-I 16 W/m² 2,4 °C 12,9 km/h (3 Bft)
25.11.2016 09:24 2,8 °C 2,8 °C 97 % 1015,6 hPa 0,0 mm 5,6 km/h (1 Bft) O-NO 60 ° 0 min 0,000 mm 0,0 UV-I 16 W/m² 2,4 °C 16,1 km/h (3 Bft)
25.11.2016 09:25 2,8 °C 2,8 °C 97 % 1015,6 hPa 0,0 mm 12,7 km/h (3 Bft) O 86 ° 0 min 0,000 mm 0,0 UV-I 18 W/m² 2,4 °C 17,7 km/h (3 Bft)
25.11.2016 09:26 2,8 °C 2,8 °C 97 % 1015,5 hPa 0,0 mm 8,2 km/h (2 Bft) O 82 ° 0 min 0,000 mm 0,0 UV-I 18 W/m² 2,4 °C 14,5 km/h (3 Bft)
25.11.2016 09:27 2,8 °C 2,8 °C 97 % 1015,6 hPa 0,0 mm 7,0 km/h (2 Bft) O-NO 78 ° 0 min 0,000 mm 0,0 UV-I 19 W/m² 2,4 °C 11,3 km/h (2 Bft)
25.11.2016 09:28 2,8 °C 2,8 °C 97 % 1015,6 hPa 0,0 mm 11,0 km/h (2 Bft) O-NO 65 ° 0 min 0,000 mm 0,0 UV-I 19 W/m² 2,4 °C 17,7 km/h (3 Bft)
25.11.2016 09:29 2,8 °C 2,8 °C 97 % 1015,6 hPa 0,0 mm 7,1 km/h (2 Bft) O-NO 67 ° 0 min 0,000 mm 0,0 UV-I 21 W/m² 2,4 °C 11,3 km/h (2 Bft)
25.11.2016 09:30 2,8 °C 2,8 °C 97 % 1015,6 hPa 0,0 mm 3,6 km/h (1 Bft) O 80 ° 0 min 0,000 mm 0,0 UV-I 21 W/m² 2,4 °C 6,4 km/h (2 Bft)
25.11.2016 09:31 2,8 °C 2,8 °C 97 % 1015,6 hPa 0,0 mm 5,0 km/h (1 Bft) O-NO 67 ° 0 min 0,000 mm 0,0 UV-I 23 W/m² 2,4 °C 11,3 km/h (2 Bft)
25.11.2016 09:32 2,8 °C 2,8 °C 97 % 1015,6 hPa 0,0 mm 6,0 km/h (2 Bft) NO 52 ° 0 min 0,000 mm 0,0 UV-I 25 W/m² 2,4 °C 9,7 km/h (2 Bft)
25.11.2016 09:33 2,8 °C 2,8 °C 97 % 1015,7 hPa 0,0 mm 9,8 km/h (2 Bft) O-NO 63 ° 0 min 0,000 mm 0,0 UV-I 25 W/m² 2,4 °C 16,1 km/h (3 Bft)
25.11.2016 09:34 2,8 °C 2,8 °C 97 % 1015,7 hPa 0,0 mm 6,3 km/h (2 Bft) NO 47 ° 0 min 0,000 mm 0,0 UV-I 25 W/m² 2,4 °C 8,0 km/h (2 Bft)
25.11.2016 09:35 2,8 °C 2,8 °C 97 % 1015,7 hPa 0,0 mm 7,8 km/h (2 Bft) NO 38 ° 0 min 0,000 mm 0,0 UV-I 25 W/m² 2,4 °C 11,3 km/h (2 Bft)
25.11.2016 09:36 2,8 °C 2,8 °C 97 % 1015,7 hPa 0,0 mm 8,0 km/h (2 Bft) O-NO 63 ° 0 min 0,000 mm 0,0 UV-I 26 W/m² 2,4 °C 14,5 km/h (3 Bft)
25.11.2016 09:37 2,8 °C 2,8 °C 97 % 1015,6 hPa 0,0 mm 9,4 km/h (2 Bft) N 360 ° 0 min 0,000 mm 0,0 UV-I 28 W/m² 2,4 °C 14,5 km/h (3 Bft)
25.11.2016 09:38 2,8 °C 2,8 °C 97 % 1015,7 hPa 0,0 mm 7,4 km/h (2 Bft) NO 51 ° 0 min 0,000 mm 0,0 UV-I 28 W/m² 2,4 °C 14,5 km/h (3 Bft)
25.11.2016 09:39 2,8 °C 2,8 °C 97 % 1015,6 hPa 0,0 mm 8,6 km/h (2 Bft) O 88 ° 0 min 0,000 mm 0,0 UV-I 30 W/m² 2,4 °C 16,1 km/h (3 Bft)
25.11.2016 09:40 2,8 °C 2,8 °C 97 % 1015,6 hPa 0,0 mm 9,7 km/h (2 Bft) N-NO 19 ° 0 min 0,000 mm 0,0 UV-I 30 W/m² 2,4 °C 14,5 km/h (3 Bft)
25.11.2016 09:41 2,8 °C 2,8 °C 97 % 1015,6 hPa 0,0 mm 5,7 km/h (1 Bft) O 98 ° 0 min 0,000 mm 0,0 UV-I 30 W/m² 2,4 °C 11,3 km/h (2 Bft)
25.11.2016 09:42 2,8 °C 2,8 °C 97 % 1015,6 hPa 0,0 mm 6,6 km/h (2 Bft) NO 42 ° 0 min 0,000 mm 0,0 UV-I 32 W/m² 2,4 °C 9,7 km/h (2 Bft)
25.11.2016 09:43 2,8 °C 2,8 °C 97 % 1015,6 hPa 0,0 mm 11,5 km/h (2 Bft) N-NO 20 ° 0 min 0,000 mm 0,0 UV-I 33 W/m² 2,4 °C 16,1 km/h (3 Bft)
25.11.2016 09:44 2,8 °C 2,8 °C 97 % 1015,6 hPa 0,0 mm 6,2 km/h (2 Bft) NO 35 ° 0 min 0,000 mm 0,0 UV-I 33 W/m² 2,4 °C 9,7 km/h (2 Bft)
25.11.2016 09:45 2,8 °C 2,8 °C 97 % 1015,6 hPa 0,0 mm 5,0 km/h (1 Bft) O 80 ° 0 min 0,000 mm 0,0 UV-I 33 W/m² 2,4 °C 8,0 km/h (2 Bft)
25.11.2016 09:46 2,8 °C 2,8 °C 97 % 1015,6 hPa 0,0 mm 7,0 km/h (2 Bft) NO 54 ° 0 min 0,000 mm 0,0 UV-I 33 W/m² 2,4 °C 9,7 km/h (2 Bft)
25.11.2016 09:47 2,8 °C 2,8 °C 97 % 1015,6 hPa 0,0 mm 6,4 km/h (2 Bft) O-NO 71 ° 0 min 0,000 mm 0,0 UV-I 33 W/m² 2,4 °C 8,0 km/h (2 Bft)
25.11.2016 09:48 2,8 °C 2,8 °C 97 % 1015,6 hPa 0,0 mm 8,6 km/h (2 Bft) O-NO 61 ° 0 min 0,000 mm 0,0 UV-I 35 W/m² 2,4 °C 16,1 km/h (3 Bft)
25.11.2016 09:49 2,8 °C 2,8 °C 97 % 1015,6 hPa 0,0 mm 10,5 km/h (2 Bft) O-NO 61 ° 0 min 0,000 mm 0,0 UV-I 35 W/m² 2,4 °C 20,9 km/h (4 Bft)
25.11.2016 09:50 2,8 °C 2,8 °C 97 % 1015,6 hPa 0,0 mm 11,3 km/h (2 Bft) NO 54 ° 0 min 0,000 mm 0,0 UV-I 37 W/m² 2,4 °C 20,9 km/h (4 Bft)
25.11.2016 09:51 2,8 °C 2,8 °C 97 % 1015,5 hPa 0,0 mm 11,4 km/h (2 Bft) O-NO 69 ° 0 min 0,000 mm 0,0 UV-I 39 W/m² 2,4 °C 17,7 km/h (3 Bft)
25.11.2016 09:52 2,8 °C 2,8 °C 97 % 1015,6 hPa 0,0 mm 11,3 km/h (2 Bft) NO 50 ° 0 min 0,000 mm 0,0 UV-I 40 W/m² 2,4 °C 16,1 km/h (3 Bft)
25.11.2016 09:53 2,8 °C 2,8 °C 97 % 1015,5 hPa 0,0 mm 7,6 km/h (2 Bft) O-NO 75 ° 0 min 0,000 mm 0,0 UV-I 39 W/m² 2,4 °C 12,9 km/h (3 Bft)
25.11.2016 09:54 2,8 °C 2,8 °C 97 % 1015,6 hPa 0,0 mm 4,8 km/h (1 Bft) O-NO 67 ° 0 min 0,000 mm 0,0 UV-I 40 W/m² 2,4 °C 8,0 km/h (2 Bft)
25.11.2016 09:55 2,8 °C 2,8 °C 97 % 1015,6 hPa 0,0 mm 4,8 km/h (1 Bft) O-NO 70 ° 0 min 0,000 mm 0,0 UV-I 40 W/m² 2,4 °C 8,0 km/h (2 Bft)
25.11.2016 09:56 2,8 °C 2,8 °C 97 % 1015,6 hPa 0,0 mm 5,6 km/h (1 Bft) O-NO 63 ° 0 min 0,000 mm 0,0 UV-I 39 W/m² 2,4 °C 9,7 km/h (2 Bft)
25.11.2016 09:57 2,8 °C 2,8 °C 97 % 1015,7 hPa 0,0 mm 8,1 km/h (2 Bft) O-NO 72 ° 0 min 0,000 mm 0,0 UV-I 39 W/m² 2,4 °C 14,5 km/h (3 Bft)
25.11.2016 09:58 2,8 °C 2,8 °C 97 % 1015,7 hPa 0,0 mm 12,5 km/h (3 Bft) O 84 ° 0 min 0,000 mm 0,0 UV-I 40 W/m² 2,4 °C 16,1 km/h (3 Bft)
25.11.2016 09:59 2,8 °C 2,8 °C 97 % 1015,7 hPa 0,0 mm 10,0 km/h (2 Bft) NO 45 ° 0 min 0,000 mm 0,0 UV-I 39 W/m² 2,4 °C 14,5 km/h (3 Bft)
25.11.2016 10:00 2,8 °C 2,8 °C 97 % 1015,7 hPa 0,0 mm 8,2 km/h (2 Bft) O 92 ° 0 min 0,000 mm 0,0 UV-I 37 W/m² 2,4 °C 11,3 km/h (2 Bft)
25.11.2016 10:01 2,8 °C 2,8 °C 97 % 1015,7 hPa 0,0 mm 5,6 km/h (1 Bft) O-NO 70 ° 0 min 0,000 mm 0,0 UV-I 39 W/m² 2,4 °C 8,0 km/h (2 Bft)
25.11.2016 10:02 2,8 °C 2,8 °C 97 % 1015,6 hPa 0,0 mm 6,6 km/h (2 Bft) O-NO 72 ° 0 min 0,000 mm 0,0 UV-I 39 W/m² 2,4 °C 9,7 km/h (2 Bft)
25.11.2016 10:03 2,8 °C 2,8 °C 97 % 1015,7 hPa 0,0 mm 9,0 km/h (2 Bft) NO 56 ° 0 min 0,000 mm 0,0 UV-I 40 W/m² 2,4 °C 14,5 km/h (3 Bft)
25.11.2016 10:04 2,8 °C 2,8 °C 97 % 1015,6 hPa 0,0 mm 10,5 km/h (2 Bft) O-NO 65 ° 0 min 0,000 mm 0,0 UV-I 39 W/m² 2,4 °C 16,1 km/h (3 Bft)
25.11.2016 10:05 2,8 °C 2,9 °C 97 % 1015,7 hPa 0,0 mm 13,6 km/h (3 Bft) O 94 ° 0 min 0,000 mm 0,0 UV-I 39 W/m² 2,4 °C 17,7 km/h (3 Bft)
25.11.2016 10:06 2,8 °C 2,9 °C 97 % 1015,6 hPa 0,0 mm 8,3 km/h (2 Bft) O 99 ° 0 min 0,000 mm 0,0 UV-I 39 W/m² 2,4 °C 12,9 km/h (3 Bft)
25.11.2016 10:07 2,9 °C 2,9 °C 97 % 1015,6 hPa 0,0 mm 8,3 km/h (2 Bft) NO 36 ° 0 min 0,000 mm 0,0 UV-I 37 W/m² 2,5 °C 12,9 km/h (3 Bft)
25.11.2016 10:08 2,9 °C 2,9 °C 97 % 1015,6 hPa 0,0 mm 10,5 km/h (2 Bft) N 360 ° 0 min 0,000 mm 0,0 UV-I 37 W/m² 2,5 °C 14,5 km/h (3 Bft)
25.11.2016 10:09 2,8 °C 2,9 °C 97 % 1015,7 hPa 0,0 mm 7,8 km/h (2 Bft) NO 47 ° 0 min 0,000 mm 0,0 UV-I 33 W/m² 2,4 °C 12,9 km/h (3 Bft)
25.11.2016 10:10 2,8 °C 2,8 °C 97 % 1015,7 hPa 0,0 mm 6,9 km/h (2 Bft) O-NO 60 ° 0 min 0,000 mm 0,0 UV-I 32 W/m² 2,4 °C 14,5 km/h (3 Bft)
25.11.2016 10:11 2,8 °C 2,9 °C 97 % 1015,8 hPa 0,0 mm 7,1 km/h (2 Bft) O-NO 73 ° 0 min 0,000 mm 0,0 UV-I 32 W/m² 2,4 °C 11,3 km/h (2 Bft)
25.11.2016 10:12 2,9 °C 2,9 °C 97 % 1015,7 hPa 0,0 mm 6,4 km/h (2 Bft) O 85 ° 0 min 0,000 mm 0,0 UV-I 30 W/m² 2,5 °C 11,3 km/h (2 Bft)
25.11.2016 10:13 2,9 °C 2,9 °C 97 % 1015,7 hPa 0,0 mm 3,0 km/h (1 Bft) NO 42 ° 0 min 0,000 mm 0,0 UV-I 30 W/m² 2,5 °C 8,0 km/h (2 Bft)
25.11.2016 10:14 2,9 °C 2,9 °C 97 % 1015,7 hPa 0,0 mm 5,1 km/h (1 Bft) O 79 ° 0 min 0,000 mm 0,0 UV-I 30 W/m² 2,5 °C 8,0 km/h (2 Bft)
25.11.2016 10:15 2,9 °C 2,9 °C 97 % 1015,7 hPa 0,0 mm 5,8 km/h (2 Bft) N-NO 32 ° 0 min 0,000 mm 0,0 UV-I 30 W/m² 2,5 °C 8,0 km/h (2 Bft)
25.11.2016 10:16 2,9 °C 2,9 °C 97 % 1015,6 hPa 0,0 mm 9,3 km/h (2 Bft) O-NO 71 ° 0 min 0,000 mm 0,0 UV-I 30 W/m² 2,5 °C 12,9 km/h (3 Bft)
25.11.2016 10:17 2,9 °C 2,9 °C 97 % 1015,6 hPa 0,0 mm 11,7 km/h (2 Bft) NO 52 ° 0 min 0,000 mm 0,0 UV-I 30 W/m² 2,5 °C 17,7 km/h (3 Bft)
25.11.2016 10:18 2,9 °C 2,9 °C 97 % 1015,6 hPa 0,0 mm 7,9 km/h (2 Bft) O-NO 58 ° 0 min 0,000 mm 0,0 UV-I 26 W/m² 2,5 °C 11,3 km/h (2 Bft)
25.11.2016 10:19 2,9 °C 2,9 °C 97 % 1015,6 hPa 0,0 mm 10,2 km/h (2 Bft) O-NO 65 ° 0 min 0,000 mm 0,0 UV-I 19 W/m² 2,5 °C 14,5 km/h (3 Bft)
25.11.2016 10:20 2,9 °C 2,9 °C 97 % 1015,6 hPa 0,0 mm 12,2 km/h (2 Bft) NO 49 ° 0 min 0,000 mm 0,0 UV-I 16 W/m² 2,5 °C 17,7 km/h (3 Bft)
25.11.2016 10:21 2,9 °C 2,9 °C 97 % 1015,6 hPa 0,0 mm 11,5 km/h (2 Bft) O-NO 57 ° 0 min 0,000 mm 0,0 UV-I 14 W/m² 2,5 °C 14,5 km/h (3 Bft)
25.11.2016 10:22 2,9 °C 2,9 °C 97 % 1015,6 hPa 0,0 mm 7,7 km/h (2 Bft) O 86 ° 0 min 0,000 mm 0,0 UV-I 12 W/m² 2,5 °C 12,9 km/h (3 Bft)
25.11.2016 10:23 2,9 °C 2,9 °C 97 % 1015,6 hPa 0,0 mm 5,9 km/h (2 Bft) O-NO 57 ° 0 min 0,000 mm 0,0 UV-I 12 W/m² 2,5 °C 8,0 km/h (2 Bft)
25.11.2016 10:24 2,9 °C 2,9 °C 97 % 1015,6 hPa 0,0 mm 8,0 km/h (2 Bft) O 86 ° 0 min 0,000 mm 0,0 UV-I 11 W/m² 2,5 °C 16,1 km/h (3 Bft)
25.11.2016 10:25 2,8 °C 2,9 °C 97 % 1015,7 hPa 0,0 mm 8,9 km/h (2 Bft) O-NO 65 ° 0 min 0,000 mm 0,0 UV-I 11 W/m² 2,4 °C 16,1 km/h (3 Bft)
25.11.2016 10:26 2,8 °C 2,9 °C 97 % 1015,7 hPa 0,0 mm 11,8 km/h (2 Bft) O-NO 77 ° 0 min 0,000 mm 0,0 UV-I 11 W/m² 2,4 °C 16,1 km/h (3 Bft)
25.11.2016 10:27 2,9 °C 2,9 °C 97 % 1015,7 hPa 0,0 mm 8,6 km/h (2 Bft) O 84 ° 0 min 0,000 mm 0,0 UV-I 11 W/m² 2,5 °C 12,9 km/h (3 Bft)
25.11.2016 10:28 2,8 °C 2,9 °C 97 % 1015,7 hPa 0,0 mm 14,0 km/h (3 Bft) NO 43 ° 0 min 0,000 mm 0,0 UV-I 11 W/m² 2,4 °C 19,3 km/h (3 Bft)
25.11.2016 10:29 2,8 °C 2,9 °C 97 % 1015,8 hPa 0,0 mm 10,8 km/h (2 Bft) O-NO 67 ° 0 min 0,000 mm 0,0 UV-I 11 W/m² 2,4 °C 16,1 km/h (3 Bft)
25.11.2016 10:30 2,8 °C 2,8 °C 97 % 1015,7 hPa 0,0 mm 6,9 km/h (2 Bft) O-NO 66 ° 0 min 0,000 mm 0,0 UV-I 11 W/m² 2,4 °C 9,7 km/h (2 Bft)
25.11.2016 10:31 2,8 °C 2,8 °C 97 % 1015,7 hPa 0,0 mm 7,5 km/h (2 Bft) NO 44 ° 0 min 0,000 mm 0,0 UV-I 11 W/m² 2,4 °C 9,7 km/h (2 Bft)
25.11.2016 10:32 2,8 °C 2,8 °C 97 % 1015,7 hPa 0,0 mm 10,5 km/h (2 Bft) O-NO 71 ° 0 min 0,000 mm 0,0 UV-I 11 W/m² 2,4 °C 14,5 km/h (3 Bft)
25.11.2016 10:33 2,8 °C 2,8 °C 97 % 1015,7 hPa 0,0 mm 8,4 km/h (2 Bft) NO 39 ° 0 min 0,000 mm 0,0 UV-I 11 W/m² 2,4 °C 14,5 km/h (3 Bft)
25.11.2016 10:34 2,8 °C 2,8 °C 97 % 1015,8 hPa 0,0 mm 5,6 km/h (1 Bft) NO 55 ° 0 min 0,000 mm 0,0 UV-I 11 W/m² 2,4 °C 8,0 km/h (2 Bft)
25.11.2016 10:35 2,8 °C 2,8 °C 97 % 1015,7 hPa 0,0 mm 6,7 km/h (2 Bft) O 83 ° 0 min 0,000 mm 0,0 UV-I 11 W/m² 2,4 °C 11,3 km/h (2 Bft)
25.11.2016 10:36 2,8 °C 2,8 °C 97 % 1015,7 hPa 0,0 mm 9,4 km/h (2 Bft) N 10 ° 0 min 0,000 mm 0,0 UV-I 11 W/m² 2,4 °C 16,1 km/h (3 Bft)
25.11.2016 10:37 2,8 °C 2,8 °C 97 % 1015,7 hPa 0,0 mm 7,2 km/h (2 Bft) NO 49 ° 0 min 0,000 mm 0,0 UV-I 11 W/m² 2,4 °C 12,9 km/h (3 Bft)
25.11.2016 10:38 2,8 °C 2,8 °C 97 % 1015,7 hPa 0,0 mm 6,6 km/h (2 Bft) O-NO 61 ° 0 min 0,000 mm 0,0 UV-I 11 W/m² 2,4 °C 8,0 km/h (2 Bft)
25.11.2016 10:39 2,8 °C 2,8 °C 97 % 1015,6 hPa 0,0 mm 6,6 km/h (2 Bft) O-NO 68 ° 0 min 0,000 mm 0,0 UV-I 12 W/m² 2,4 °C 12,9 km/h (3 Bft)
25.11.2016 10:40 2,8 °C 2,8 °C 97 % 1015,7 hPa 0,0 mm 5,6 km/h (1 Bft) NO 52 ° 0 min 0,000 mm 0,0 UV-I 11 W/m² 2,4 °C 6,4 km/h (2 Bft)
25.11.2016 10:41 2,8 °C 2,8 °C 97 % 1015,7 hPa 0,0 mm 6,2 km/h (2 Bft) O-NO 76 ° 0 min 0,000 mm 0,0 UV-I 12 W/m² 2,4 °C 9,7 km/h (2 Bft)
25.11.2016 10:42 2,8 °C 2,8 °C 97 % 1015,7 hPa 0,0 mm 5,4 km/h (1 Bft) NO 55 ° 0 min 0,000 mm 0,0 UV-I 12 W/m² 2,4 °C 8,0 km/h (2 Bft)
25.11.2016 10:43 2,8 °C 2,8 °C 97 % 1015,7 hPa 0,0 mm 4,2 km/h (1 Bft) NO 51 ° 0 min 0,000 mm 0,0 UV-I 14 W/m² 2,4 °C 6,4 km/h (2 Bft)
25.11.2016 10:44 2,8 °C 2,8 °C 97 % 1015,7 hPa 0,0 mm 4,0 km/h (1 Bft) O-NO 65 ° 0 min 0,000 mm 0,0 UV-I 14 W/m² 2,4 °C 6,4 km/h (2 Bft)
25.11.2016 10:45 2,8 °C 2,8 °C 97 % 1015,7 hPa 0,0 mm 5,3 km/h (1 Bft) O 92 ° 0 min 0,000 mm 0,0 UV-I 14 W/m² 2,4 °C 9,7 km/h (2 Bft)
25.11.2016 10:46 2,8 °C 2,9 °C 97 % 1015,8 hPa 0,0 mm 4,0 km/h (1 Bft) O-NO 65 ° 0 min 0,000 mm 0,0 UV-I 14 W/m² 2,4 °C 4,8 km/h (1 Bft)
25.11.2016 10:47 2,9 °C 2,9 °C 97 % 1015,7 hPa 0,0 mm 5,0 km/h (1 Bft) SO 126 ° 0 min 0,000 mm 0,0 UV-I 12 W/m² 2,5 °C 9,7 km/h (2 Bft)
25.11.2016 10:48 2,9 °C 2,9 °C 97 % 1015,7 hPa 0,0 mm 5,0 km/h (1 Bft) NO 51 ° 0 min 0,000 mm 0,0 UV-I 14 W/m² 2,5 °C 9,7 km/h (2 Bft)
25.11.2016 10:49 2,8 °C 2,9 °C 97 % 1015,8 hPa 0,0 mm 7,9 km/h (2 Bft) O 92 ° 0 min 0,000 mm 0,0 UV-I 14 W/m² 2,4 °C 9,7 km/h (2 Bft)
25.11.2016 10:50 2,9 °C 2,9 °C 97 % 1015,8 hPa 0,0 mm 6,5 km/h (2 Bft) O 84 ° 0 min 0,000 mm 0,0 UV-I 16 W/m² 2,5 °C 11,3 km/h (2 Bft)
25.11.2016 10:51 2,8 °C 2,9 °C 97 % 1015,8 hPa 0,0 mm 6,7 km/h (2 Bft) O-NO 75 ° 0 min 0,000 mm 0,0 UV-I 16 W/m² 2,4 °C 9,7 km/h (2 Bft)
25.11.2016 10:52 2,9 °C 2,9 °C 97 % 1015,8 hPa 0,0 mm 10,5 km/h (2 Bft) O-NO 66 ° 0 min 0,000 mm 0,0 UV-I 16 W/m² 2,5 °C 16,1 km/h (3 Bft)
25.11.2016 10:53 2,8 °C 2,9 °C 97 % 1015,8 hPa 0,0 mm 6,8 km/h (2 Bft) O 91 ° 0 min 0,000 mm 0,0 UV-I 18 W/m² 2,4 °C 12,9 km/h (3 Bft)
25.11.2016 10:54 2,8 °C 2,8 °C 97 % 1015,8 hPa 0,0 mm 7,5 km/h (2 Bft) NO 51 ° 0 min 0,000 mm 0,0 UV-I 18 W/m² 2,4 °C 11,3 km/h (2 Bft)
25.11.2016 10:55 2,9 °C 2,9 °C 97 % 1015,8 hPa 0,0 mm 3,9 km/h (1 Bft) NO 56 ° 0 min 0,000 mm 0,0 UV-I 18 W/m² 2,5 °C 6,4 km/h (2 Bft)
25.11.2016 10:56 2,9 °C 2,9 °C 97 % 1015,8 hPa 0,0 mm 7,6 km/h (2 Bft) O 91 ° 0 min 0,000 mm 0,0 UV-I 18 W/m² 2,5 °C 14,5 km/h (3 Bft)
25.11.2016 10:57 2,8 °C 2,9 °C 97 % 1015,8 hPa 0,0 mm 6,8 km/h (2 Bft) O-NO 65 ° 0 min 0,000 mm 0,0 UV-I 18 W/m² 2,4 °C 11,3 km/h (2 Bft)
25.11.2016 10:58 2,8 °C 2,8 °C 97 % 1015,8 hPa 0,0 mm 10,8 km/h (2 Bft) NO 41 ° 0 min 0,000 mm 0,0 UV-I 18 W/m² 2,4 °C 16,1 km/h (3 Bft)
25.11.2016 10:59 2,8 °C 2,8 °C 97 % 1015,8 hPa 0,0 mm 8,8 km/h (2 Bft) O-NO 72 ° 0 min 0,000 mm 0,0 UV-I 19 W/m² 2,4 °C 14,5 km/h (3 Bft)
25.11.2016 11:00 2,8 °C 2,8 °C 97 % 1015,8 hPa 0,0 mm 7,6 km/h (2 Bft) O-NO 73 ° 0 min 0,000 mm 0,0 UV-I 19 W/m² 2,4 °C 9,7 km/h (2 Bft)
25.11.2016 11:01 2,8 °C 2,8 °C 97 % 1015,8 hPa 0,0 mm 6,9 km/h (2 Bft) O-NO 67 ° 0 min 0,000 mm 0,0 UV-I 19 W/m² 2,4 °C 11,3 km/h (2 Bft)
25.11.2016 11:02 2,8 °C 2,8 °C 97 % 1015,7 hPa 0,0 mm 8,7 km/h (2 Bft) NO 38 ° 0 min 0,000 mm 0,0 UV-I 21 W/m² 2,4 °C 12,9 km/h (3 Bft)
25.11.2016 11:03 2,8 °C 2,8 °C 97 % 1015,7 hPa 0,0 mm 5,1 km/h (1 Bft) O-NO 60 ° 0 min 0,000 mm 0,0 UV-I 25 W/m² 2,4 °C 8,0 km/h (2 Bft)
25.11.2016 11:04 2,8 °C 2,8 °C 97 % 1015,6 hPa 0,0 mm 5,9 km/h (2 Bft) NO 49 ° 0 min 0,000 mm 0,0 UV-I 25 W/m² 2,4 °C 9,7 km/h (2 Bft)
25.11.2016 11:05 2,8 °C 2,8 °C 97 % 1015,6 hPa 0,0 mm 6,8 km/h (2 Bft) N-NO 27 ° 0 min 0,000 mm 0,0 UV-I 25 W/m² 2,4 °C 8,0 km/h (2 Bft)
25.11.2016 11:06 2,8 °C 2,8 °C 97 % 1015,6 hPa 0,0 mm 9,3 km/h (2 Bft) O-NO 71 ° 0 min 0,000 mm 0,0 UV-I 25 W/m² 2,4 °C 11,3 km/h (2 Bft)
25.11.2016 11:07 2,8 °C 2,8 °C 97 % 1015,7 hPa 0,0 mm 8,5 km/h (2 Bft) O 82 ° 0 min 0,000 mm 0,0 UV-I 26 W/m² 2,4 °C 12,9 km/h (3 Bft)
25.11.2016 11:08 2,8 °C 2,8 °C 97 % 1015,6 hPa 0,0 mm 6,6 km/h (2 Bft) O-NO 74 ° 0 min 0,000 mm 0,0 UV-I 26 W/m² 2,4 °C 9,7 km/h (2 Bft)
25.11.2016 11:09 2,8 °C 2,8 °C 97 % 1015,6 hPa 0,0 mm 6,4 km/h (2 Bft) NO 42 ° 0 min 0,000 mm 0,0 UV-I 26 W/m² 2,4 °C 11,3 km/h (2 Bft)
25.11.2016 11:10 2,8 °C 2,8 °C 97 % 1015,6 hPa 0,0 mm 8,0 km/h (2 Bft) O 79 ° 0 min 0,000 mm 0,0 UV-I 26 W/m² 2,4 °C 12,9 km/h (3 Bft)
25.11.2016 11:11 2,8 °C 2,8 °C 97 % 1015,6 hPa 0,0 mm 8,9 km/h (2 Bft) O-NO 78 ° 0 min 0,000 mm 0,0 UV-I 23 W/m² 2,4 °C 14,5 km/h (3 Bft)
25.11.2016 11:12 2,8 °C 2,8 °C 97 % 1015,6 hPa 0,0 mm 9,1 km/h (2 Bft) NO 34 ° 0 min 0,000 mm 0,0 UV-I 23 W/m² 2,4 °C 12,9 km/h (3 Bft)
25.11.2016 11:13 2,8 °C 2,8 °C 97 % 1015,6 hPa 0,0 mm 5,8 km/h (2 Bft) O-NO 68 ° 0 min 0,000 mm 0,0 UV-I 25 W/m² 2,4 °C 9,7 km/h (2 Bft)
25.11.2016 11:14 2,8 °C 2,8 °C 97 % 1015,6 hPa 0,0 mm 5,6 km/h (1 Bft) O 88 ° 0 min 0,000 mm 0,0 UV-I 25 W/m² 2,4 °C 9,7 km/h (2 Bft)
25.11.2016 11:15 2,8 °C 2,8 °C 97 % 1015,7 hPa 0,0 mm 5,5 km/h (1 Bft) NO 34 ° 0 min 0,000 mm 0,0 UV-I 26 W/m² 2,4 °C 8,0 km/h (2 Bft)
25.11.2016 11:16 2,8 °C 2,8 °C 97 % 1015,6 hPa 0,0 mm 10,0 km/h (2 Bft) NO 49 ° 0 min 0,000 mm 0,0 UV-I 26 W/m² 2,4 °C 16,1 km/h (3 Bft)
25.11.2016 11:17 2,8 °C 2,8 °C 97 % 1015,6 hPa 0,0 mm 7,0 km/h (2 Bft) NO 55 ° 0 min 0,000 mm 0,0 UV-I 26 W/m² 2,4 °C 11,3 km/h (2 Bft)
25.11.2016 11:18 2,8 °C 2,8 °C 97 % 1015,6 hPa 0,0 mm 4,3 km/h (1 Bft) O-NO 71 ° 0 min 0,000 mm 0,0 UV-I 26 W/m² 2,4 °C 6,4 km/h (2 Bft)
25.11.2016 11:19 2,8 °C 2,8 °C 97 % 1015,6 hPa 0,0 mm 5,6 km/h (1 Bft) NO 38 ° 0 min 0,000 mm 0,0 UV-I 26 W/m² 2,4 °C 8,0 km/h (2 Bft)
25.11.2016 11:20 2,8 °C 2,8 °C 97 % 1015,6 hPa 0,0 mm 7,0 km/h (2 Bft) O-NO 60 ° 0 min 0,000 mm 0,0 UV-I 26 W/m² 2,4 °C 8,0 km/h (2 Bft)
25.11.2016 11:21 2,8 °C 2,8 °C 97 % 1015,6 hPa 0,0 mm 5,0 km/h (1 Bft) O-NO 67 ° 0 min 0,000 mm 0,0 UV-I 25 W/m² 2,4 °C 9,7 km/h (2 Bft)
25.11.2016 11:22 2,8 °C 2,8 °C 97 % 1015,5 hPa 0,0 mm 10,4 km/h (2 Bft) O-SO 102 ° 0 min 0,000 mm 0,0 UV-I 28 W/m² 2,4 °C 14,5 km/h (3 Bft)
25.11.2016 11:23 2,9 °C 2,9 °C 97 % 1015,5 hPa 0,0 mm 10,7 km/h (2 Bft) O 79 ° 0 min 0,000 mm 0,0 UV-I 28 W/m² 2,5 °C 14,5 km/h (3 Bft)
25.11.2016 11:24 2,9 °C 2,9 °C 97 % 1015,6 hPa 0,0 mm 8,2 km/h (2 Bft) NO 35 ° 0 min 0,000 mm 0,0 UV-I 28 W/m² 2,5 °C 11,3 km/h (2 Bft)
25.11.2016 11:25 2,9 °C 2,9 °C 97 % 1015,5 hPa 0,0 mm 7,4 km/h (2 Bft) O-NO 65 ° 0 min 0,000 mm 0,0 UV-I 28 W/m² 2,5 °C 14,5 km/h (3 Bft)
25.11.2016 11:26 2,9 °C 2,9 °C 97 % 1015,6 hPa 0,0 mm 7,6 km/h (2 Bft) O-NO 63 ° 0 min 0,000 mm 0,0 UV-I 28 W/m² 2,5 °C 9,7 km/h (2 Bft)
25.11.2016 11:27 2,9 °C 2,9 °C 97 % 1015,5 hPa 0,0 mm 5,7 km/h (1 Bft) O 94 ° 0 min 0,000 mm 0,0 UV-I 28 W/m² 2,5 °C 8,0 km/h (2 Bft)
25.11.2016 11:28 2,8 °C 2,9 °C 97 % 1015,6 hPa 0,0 mm 4,8 km/h (1 Bft) NO 34 ° 0 min 0,000 mm 0,0 UV-I 28 W/m² 2,4 °C 8,0 km/h (2 Bft)
25.11.2016 11:29 2,8 °C 2,9 °C 97 % 1015,5 hPa 0,0 mm 5,8 km/h (2 Bft) O-NO 66 ° 0 min 0,000 mm 0,0 UV-I 30 W/m² 2,4 °C 9,7 km/h (2 Bft)
25.11.2016 11:30 2,9 °C 2,9 °C 97 % 1015,6 hPa 0,0 mm 8,8 km/h (2 Bft) O-NO 70 ° 0 min 0,000 mm 0,0 UV-I 30 W/m² 2,5 °C 12,9 km/h (3 Bft)
25.11.2016 11:31 2,8 °C 2,9 °C 97 % 1015,6 hPa 0,0 mm 6,8 km/h (2 Bft) O-NO 64 ° 0 min 0,000 mm 0,0 UV-I 30 W/m² 2,4 °C 11,3 km/h (2 Bft)
25.11.2016 11:32 2,9 °C 2,9 °C 97 % 1015,5 hPa 0,0 mm 5,7 km/h (1 Bft) O-NO 66 ° 0 min 0,000 mm 0,0 UV-I 28 W/m² 2,5 °C 9,7 km/h (2 Bft)
25.11.2016 11:33 2,9 °C 2,9 °C 97 % 1015,5 hPa 0,0 mm 4,5 km/h (1 Bft) O-NO 59 ° 0 min 0,000 mm 0,0 UV-I 25 W/m² 2,5 °C 6,4 km/h (2 Bft)
25.11.2016 11:34 2,9 °C 2,9 °C 97 % 1015,6 hPa 0,0 mm 7,2 km/h (2 Bft) O-NO 57 ° 0 min 0,000 mm 0,0 UV-I 21 W/m² 2,5 °C 12,9 km/h (3 Bft)
25.11.2016 11:35 2,9 °C 2,9 °C 97 % 1015,6 hPa 0,0 mm 8,1 km/h (2 Bft) O-NO 70 ° 0 min 0,000 mm 0,0 UV-I 19 W/m² 2,5 °C 14,5 km/h (3 Bft)
25.11.2016 11:36 2,9 °C 2,9 °C 97 % 1015,5 hPa 0,0 mm 7,2 km/h (2 Bft) O 81 ° 0 min 0,000 mm 0,0 UV-I 19 W/m² 2,5 °C 12,9 km/h (3 Bft)
25.11.2016 11:37 2,9 °C 2,9 °C 97 % 1015,5 hPa 0,0 mm 5,1 km/h (1 Bft) NO 47 ° 0 min 0,000 mm 0,0 UV-I 19 W/m² 2,5 °C 8,0 km/h (2 Bft)
25.11.2016 11:38 2,9 °C 2,9 °C 97 % 1015,5 hPa 0,0 mm 5,8 km/h (2 Bft) NO 51 ° 0 min 0,000 mm 0,0 UV-I 19 W/m² 2,5 °C 11,3 km/h (2 Bft)
25.11.2016 11:39 2,9 °C 2,9 °C 97 % 1015,6 hPa 0,0 mm 5,8 km/h (2 Bft) O-NO 59 ° 0 min 0,000 mm 0,0 UV-I 21 W/m² 2,5 °C 9,7 km/h (2 Bft)
25.11.2016 11:40 2,9 °C 2,9 °C 97 % 1015,6 hPa 0,0 mm 6,4 km/h (2 Bft) O-NO 65 ° 0 min 0,000 mm 0,0 UV-I 26 W/m² 2,5 °C 9,7 km/h (2 Bft)
25.11.2016 11:41 2,9 °C 2,9 °C 97 % 1015,5 hPa 0,0 mm 7,4 km/h (2 Bft) O-NO 68 ° 0 min 0,000 mm 0,0 UV-I 25 W/m² 2,5 °C 11,3 km/h (2 Bft)
25.11.2016 11:42 2,9 °C 2,9 °C 97 % 1015,6 hPa 0,0 mm 5,8 km/h (2 Bft) O-NO 60 ° 0 min 0,000 mm 0,0 UV-I 25 W/m² 2,5 °C 6,4 km/h (2 Bft)
25.11.2016 11:43 2,9 °C 2,9 °C 97 % 1015,6 hPa 0,0 mm 2,8 km/h (1 Bft) NO 53 ° 0 min 0,000 mm 0,0 UV-I 21 W/m² 2,5 °C 4,8 km/h (1 Bft)
25.11.2016 11:44 2,9 °C 2,9 °C 97 % 1015,5 hPa 0,0 mm 4,8 km/h (1 Bft) O-NO 69 ° 0 min 0,000 mm 0,0 UV-I 19 W/m² 2,5 °C 6,4 km/h (2 Bft)
25.11.2016 11:45 2,9 °C 2,9 °C 97 % 1015,5 hPa 0,0 mm 3,2 km/h (1 Bft) N-NO 33 ° 0 min 0,000 mm 0,0 UV-I 19 W/m² 2,5 °C 6,4 km/h (2 Bft)
25.11.2016 11:46 2,9 °C 2,9 °C 97 % 1015,5 hPa 0,0 mm 3,8 km/h (1 Bft) NO 40 ° 0 min 0,000 mm 0,0 UV-I 19 W/m² 2,5 °C 6,4 km/h (2 Bft)
25.11.2016 11:47 2,9 °C 2,9 °C 97 % 1015,5 hPa 0,0 mm 4,7 km/h (1 Bft) N-NO 19 ° 0 min 0,000 mm 0,0 UV-I 21 W/m² 2,5 °C 6,4 km/h (2 Bft)
25.11.2016 11:48 2,9 °C 2,9 °C 97 % 1015,4 hPa 0,0 mm 5,4 km/h (1 Bft) NO 38 ° 0 min 0,000 mm 0,0 UV-I 21 W/m² 2,5 °C 6,4 km/h (2 Bft)
25.11.2016 11:49 2,9 °C 2,9 °C 97 % 1015,4 hPa 0,0 mm 6,2 km/h (2 Bft) NO 55 ° 0 min 0,000 mm 0,0 UV-I 23 W/m² 2,5 °C 8,0 km/h (2 Bft)
25.11.2016 11:50 2,9 °C 2,9 °C 97 % 1015,5 hPa 0,0 mm 6,3 km/h (2 Bft) N-NO 26 ° 0 min 0,000 mm 0,0 UV-I 23 W/m² 2,5 °C 9,7 km/h (2 Bft)
25.11.2016 11:51 2,9 °C 2,9 °C 97 % 1015,4 hPa 0,0 mm 3,7 km/h (1 Bft) NO 51 ° 0 min 0,000 mm 0,0 UV-I 23 W/m² 2,5 °C 6,4 km/h (2 Bft)
25.11.2016 11:52 2,9 °C 2,9 °C 97 % 1015,5 hPa 0,0 mm 5,5 km/h (1 Bft) O-NO 72 ° 0 min 0,000 mm 0,0 UV-I 25 W/m² 2,5 °C 11,3 km/h (2 Bft)
25.11.2016 11:53 2,9 °C 2,9 °C 97 % 1015,5 hPa 0,0 mm 7,3 km/h (2 Bft) N-NO 18 ° 0 min 0,000 mm 0,0 UV-I 25 W/m² 2,5 °C 9,7 km/h (2 Bft)
25.11.2016 11:54 2,9 °C 2,9 °C 97 % 1015,4 hPa 0,0 mm 5,8 km/h (2 Bft) O 93 ° 0 min 0,000 mm 0,0 UV-I 23 W/m² 2,5 °C 9,7 km/h (2 Bft)
25.11.2016 11:55 2,9 °C 2,9 °C 97 % 1015,4 hPa 0,0 mm 6,6 km/h (2 Bft) O-SO 116 ° 0 min 0,000 mm 0,0 UV-I 23 W/m² 2,5 °C 12,9 km/h (3 Bft)
25.11.2016 11:56 2,9 °C 2,9 °C 97 % 1015,4 hPa 0,0 mm 5,3 km/h (1 Bft) O 94 ° 0 min 0,000 mm 0,0 UV-I 25 W/m² 2,5 °C 9,7 km/h (2 Bft)
25.11.2016 11:57 2,9 °C 2,9 °C 97 % 1015,5 hPa 0,0 mm 5,6 km/h (1 Bft) SO 126 ° 0 min 0,000 mm 0,0 UV-I 23 W/m² 2,5 °C 9,7 km/h (2 Bft)
25.11.2016 11:58 2,9 °C 2,9 °C 97 % 1015,4 hPa 0,0 mm 8,2 km/h (2 Bft) NO 53 ° 0 min 0,000 mm 0,0 UV-I 25 W/m² 2,5 °C 14,5 km/h (3 Bft)
25.11.2016 11:59 2,9 °C 2,9 °C 97 % 1015,4 hPa 0,0 mm 5,1 km/h (1 Bft) O 80 ° 0 min 0,000 mm 0,0 UV-I 25 W/m² 2,5 °C 6,4 km/h (2 Bft)
25.11.2016 12:00 2,9 °C 2,9 °C 97 % 1015,5 hPa 0,0 mm 2,8 km/h (1 Bft) O-NO 77 ° 0 min 0,000 mm 0,0 UV-I 25 W/m² 2,5 °C 4,8 km/h (1 Bft)
25.11.2016 12:01 2,9 °C 2,9 °C 97 % 1015,4 hPa 0,0 mm 4,0 km/h (1 Bft) NO 46 ° 0 min 0,000 mm 0,0 UV-I 25 W/m² 2,5 °C 4,8 km/h (1 Bft)
25.11.2016 12:02 2,9 °C 2,9 °C 97 % 1015,4 hPa 0,0 mm 6,1 km/h (2 Bft) O 88 ° 0 min 0,000 mm 0,0 UV-I 25 W/m² 2,5 °C 9,7 km/h (2 Bft)
25.11.2016 12:03 2,9 °C 2,9 °C 97 % 1015,4 hPa 0,0 mm 6,6 km/h (2 Bft) O 89 ° 0 min 0,000 mm 0,0 UV-I 25 W/m² 2,5 °C 8,0 km/h (2 Bft)
25.11.2016 12:04 2,9 °C 2,9 °C 97 % 1015,5 hPa 0,0 mm 3,7 km/h (1 Bft) O-NO 71 ° 0 min 0,000 mm 0,0 UV-I 25 W/m² 2,5 °C 4,8 km/h (1 Bft)
25.11.2016 12:05 2,9 °C 3,0 °C 97 % 1015,4 hPa 0,0 mm 4,9 km/h (1 Bft) O 84 ° 0 min 0,000 mm 0,0 UV-I 25 W/m² 2,5 °C 8,0 km/h (2 Bft)
25.11.2016 12:06 3,0 °C 3,0 °C 97 % 1015,5 hPa 0,0 mm 5,6 km/h (1 Bft) O-NO 65 ° 0 min 0,000 mm 0,0 UV-I 25 W/m² 2,6 °C 8,0 km/h (2 Bft)
25.11.2016 12:07 3,0 °C 3,0 °C 97 % 1015,4 hPa 0,0 mm 2,4 km/h (1 Bft) NO 49 ° 0 min 0,000 mm 0,0 UV-I 25 W/m² 2,6 °C 4,8 km/h (1 Bft)
25.11.2016 12:08 3,0 °C 3,0 °C 97 % 1015,4 hPa 0,0 mm 3,4 km/h (1 Bft) O-NO 65 ° 0 min 0,000 mm 0,0 UV-I 25 W/m² 2,6 °C 4,8 km/h (1 Bft)
25.11.2016 12:09 3,0 °C 3,0 °C 97 % 1015,4 hPa 0,0 mm 4,0 km/h (1 Bft) O-NO 70 ° 0 min 0,000 mm 0,0 UV-I 26 W/m² 2,6 °C 4,8 km/h (1 Bft)
25.11.2016 12:10 3,0 °C 3,0 °C 97 % 1015,5 hPa 0,0 mm 4,2 km/h (1 Bft) N-NO 31 ° 0 min 0,000 mm 0,0 UV-I 26 W/m² 2,6 °C 6,4 km/h (2 Bft)
25.11.2016 12:11 3,0 °C 3,0 °C 97 % 1015,4 hPa 0,0 mm 5,1 km/h (1 Bft) O 80 ° 0 min 0,000 mm 0,0 UV-I 26 W/m² 2,6 °C 6,4 km/h (2 Bft)
25.11.2016 12:12 3,0 °C 3,0 °C 97 % 1015,4 hPa 0,0 mm 5,0 km/h (1 Bft) O-NO 71 ° 0 min 0,000 mm 0,0 UV-I 28 W/m² 2,6 °C 6,4 km/h (2 Bft)
25.11.2016 12:13 3,0 °C 3,0 °C 97 % 1015,4 hPa 0,0 mm 4,1 km/h (1 Bft) O-NO 64 ° 0 min 0,000 mm 0,0 UV-I 28 W/m² 2,6 °C 6,4 km/h (2 Bft)
25.11.2016 12:14 3,0 °C 3,1 °C 97 % 1015,4 hPa 0,0 mm 4,8 km/h (1 Bft) O-NO 65 ° 0 min 0,000 mm 0,0 UV-I 30 W/m² 2,6 °C 6,4 km/h (2 Bft)
25.11.2016 12:15 3,0 °C 3,1 °C 97 % 1015,4 hPa 0,0 mm 6,0 km/h (2 Bft) O-NO 71 ° 0 min 0,000 mm 0,0 UV-I 30 W/m² 2,6 °C 8,0 km/h (2 Bft)
25.11.2016 12:16 3,1 °C 3,1 °C 97 % 1015,4 hPa 0,0 mm 6,6 km/h (2 Bft) O-NO 61 ° 0 min 0,000 mm 0,0 UV-I 30 W/m² 2,7 °C 8,0 km/h (2 Bft)
25.11.2016 12:17 3,1 °C 3,1 °C 97 % 1015,4 hPa 0,0 mm 6,4 km/h (2 Bft) NO 54 ° 0 min 0,000 mm 0,0 UV-I 30 W/m² 2,7 °C 8,0 km/h (2 Bft)
25.11.2016 12:18 3,1 °C 3,1 °C 97 % 1015,4 hPa 0,0 mm 6,6 km/h (2 Bft) O-NO 74 ° 0 min 0,000 mm 0,0 UV-I 30 W/m² 2,7 °C 8,0 km/h (2 Bft)
25.11.2016 12:19 3,1 °C 3,1 °C 97 % 1015,4 hPa 0,0 mm 7,1 km/h (2 Bft) O 81 ° 0 min 0,000 mm 0,0 UV-I 32 W/m² 2,7 °C 9,7 km/h (2 Bft)
25.11.2016 12:20 3,0 °C 3,1 °C 97 % 1015,4 hPa 0,0 mm 5,1 km/h (1 Bft) O-NO 76 ° 0 min 0,000 mm 0,0 UV-I 35 W/m² 2,6 °C 8,0 km/h (2 Bft)
25.11.2016 12:21 3,1 °C 3,1 °C 97 % 1015,4 hPa 0,0 mm 5,6 km/h (1 Bft) O-NO 67 ° 0 min 0,000 mm 0,0 UV-I 35 W/m² 2,7 °C 8,0 km/h (2 Bft)
25.11.2016 12:22 3,1 °C 3,1 °C 97 % 1015,4 hPa 0,0 mm 6,6 km/h (2 Bft) O-NO 61 ° 0 min 0,000 mm 0,0 UV-I 37 W/m² 2,7 °C 9,7 km/h (2 Bft)
25.11.2016 12:23 3,1 °C 3,1 °C 97 % 1015,4 hPa 0,0 mm 5,2 km/h (1 Bft) O-NO 75 ° 0 min 0,000 mm 0,0 UV-I 39 W/m² 2,7 °C 8,0 km/h (2 Bft)
25.11.2016 12:24 3,1 °C 3,1 °C 97 % 1015,4 hPa 0,0 mm 5,1 km/h (1 Bft) O-NO 67 ° 0 min 0,000 mm 0,0 UV-I 40 W/m² 2,7 °C 6,4 km/h (2 Bft)
25.11.2016 12:25 3,1 °C 3,1 °C 97 % 1015,4 hPa 0,0 mm 4,2 km/h (1 Bft) O-NO 61 ° 0 min 0,000 mm 0,0 UV-I 42 W/m² 2,7 °C 6,4 km/h (2 Bft)
25.11.2016 12:26 3,1 °C 3,1 °C 97 % 1015,4 hPa 0,0 mm 1,7 km/h (1 Bft) O-NO 61 ° 0 min 0,000 mm 0,0 UV-I 42 W/m² 2,7 °C 3,2 km/h (1 Bft)
25.11.2016 12:27 3,1 °C 3,1 °C 97 % 1015,4 hPa 0,0 mm 0,8 km/h (0 Bft) O-NO 61 ° 0 min 0,000 mm 0,0 UV-I 44 W/m² 2,7 °C 1,6 km/h (1 Bft)
25.11.2016 12:28 3,1 °C 3,1 °C 97 % 1015,4 hPa 0,0 mm 3,6 km/h (1 Bft) N-NO 32 ° 0 min 0,000 mm 0,0 UV-I 44 W/m² 2,7 °C 4,8 km/h (1 Bft)
25.11.2016 12:29 3,1 °C 3,1 °C 97 % 1015,4 hPa 0,0 mm 3,3 km/h (1 Bft) NO 51 ° 0 min 0,000 mm 0,0 UV-I 44 W/m² 2,7 °C 4,8 km/h (1 Bft)
25.11.2016 12:30 3,1 °C 3,1 °C 97 % 1015,4 hPa 0,0 mm 5,6 km/h (1 Bft) NO 42 ° 0 min 0,000 mm 0,0 UV-I 46 W/m² 2,7 °C 8,0 km/h (2 Bft)
25.11.2016 12:31 3,1 °C 3,2 °C 97 % 1015,5 hPa 0,0 mm 8,9 km/h (2 Bft) NO 55 ° 0 min 0,000 mm 0,0 UV-I 46 W/m² 2,7 °C 12,9 km/h (3 Bft)
25.11.2016 12:32 3,1 °C 3,2 °C 97 % 1015,5 hPa 0,0 mm 8,9 km/h (2 Bft) O-NO 66 ° 0 min 0,000 mm 0,0 UV-I 47 W/m² 2,7 °C 12,9 km/h (3 Bft)
25.11.2016 12:33 3,1 °C 3,1 °C 97 % 1015,4 hPa 0,0 mm 7,3 km/h (2 Bft) O-NO 69 ° 0 min 0,000 mm 0,0 UV-I 49 W/m² 2,7 °C 11,3 km/h (2 Bft)
25.11.2016 12:34 3,1 °C 3,1 °C 97 % 1015,4 hPa 0,0 mm 5,7 km/h (1 Bft) O 80 ° 0 min 0,000 mm 0,0 UV-I 49 W/m² 2,7 °C 9,7 km/h (2 Bft)
25.11.2016 12:35 3,1 °C 3,1 °C 97 % 1015,4 hPa 0,0 mm 4,0 km/h (1 Bft) N-NO 21 ° 0 min 0,000 mm 0,0 UV-I 49 W/m² 2,7 °C 6,4 km/h (2 Bft)
25.11.2016 12:36 3,1 °C 3,2 °C 97 % 1015,4 hPa 0,0 mm 2,3 km/h (1 Bft) NO 49 ° 0 min 0,000 mm 0,0 UV-I 51 W/m² 2,7 °C 3,2 km/h (1 Bft)
25.11.2016 12:37 3,1 °C 3,1 °C 97 % 1015,5 hPa 0,0 mm 4,4 km/h (1 Bft) O-NO 78 ° 0 min 0,000 mm 0,0 UV-I 51 W/m² 2,7 °C 6,4 km/h (2 Bft)
25.11.2016 12:38 3,1 °C 3,2 °C 97 % 1015,5 hPa 0,0 mm 6,6 km/h (2 Bft) O-NO 74 ° 0 min 0,000 mm 0,0 UV-I 51 W/m² 2,7 °C 9,7 km/h (2 Bft)
25.11.2016 12:39 3,2 °C 3,2 °C 97 % 1015,5 hPa 0,0 mm 6,2 km/h (2 Bft) O-NO 61 ° 0 min 0,000 mm 0,0 UV-I 51 W/m² 2,8 °C 8,0 km/h (2 Bft)
25.11.2016 12:40 3,1 °C 3,2 °C 97 % 1015,4 hPa 0,0 mm 8,2 km/h (2 Bft) N-NO 30 ° 0 min 0,000 mm 0,0 UV-I 51 W/m² 2,7 °C 9,7 km/h (2 Bft)
25.11.2016 12:41 3,1 °C 3,2 °C 97 % 1015,5 hPa 0,0 mm 6,9 km/h (2 Bft) O-NO 58 ° 0 min 0,000 mm 0,0 UV-I 49 W/m² 2,7 °C 12,9 km/h (3 Bft)
25.11.2016 12:42 3,1 °C 3,2 °C 97 % 1015,5 hPa 0,0 mm 7,4 km/h (2 Bft) NO 46 ° 0 min 0,000 mm 0,0 UV-I 47 W/m² 2,7 °C 11,3 km/h (2 Bft)
25.11.2016 12:43 3,1 °C 3,1 °C 97 % 1015,5 hPa 0,0 mm 9,8 km/h (2 Bft) NO 49 ° 0 min 0,000 mm 0,0 UV-I 47 W/m² 2,7 °C 16,1 km/h (3 Bft)
25.11.2016 12:44 3,1 °C 3,1 °C 97 % 1015,4 hPa 0,0 mm 5,2 km/h (1 Bft) O-NO 71 ° 0 min 0,000 mm 0,0 UV-I 47 W/m² 2,7 °C 8,0 km/h (2 Bft)
25.11.2016 12:45 3,1 °C 3,1 °C 97 % 1015,4 hPa 0,0 mm 5,2 km/h (1 Bft) N-NO 27 ° 0 min 0,000 mm 0,0 UV-I 49 W/m² 2,7 °C 11,3 km/h (2 Bft)
25.11.2016 12:46 3,1 °C 3,1 °C 97 % 1015,4 hPa 0,0 mm 5,4 km/h (1 Bft) N-NO 24 ° 0 min 0,000 mm 0,0 UV-I 51 W/m² 2,7 °C 9,7 km/h (2 Bft)
25.11.2016 12:47 3,1 °C 3,1 °C 97 % 1015,4 hPa 0,0 mm 6,6 km/h (2 Bft) NO 34 ° 0 min 0,000 mm 0,0 UV-I 51 W/m² 2,7 °C 11,3 km/h (2 Bft)
25.11.2016 12:48 3,1 °C 3,1 °C 97 % 1015,4 hPa 0,0 mm 8,6 km/h (2 Bft) O-NO 67 ° 0 min 0,000 mm 0,0 UV-I 49 W/m² 2,7 °C 12,9 km/h (3 Bft)
25.11.2016 12:49 3,1 °C 3,1 °C 97 % 1015,4 hPa 0,0 mm 6,6 km/h (2 Bft) O-NO 78 ° 0 min 0,000 mm 0,0 UV-I 47 W/m² 2,7 °C 11,3 km/h (2 Bft)
25.11.2016 12:50 3,1 °C 3,1 °C 97 % 1015,4 hPa 0,0 mm 2,5 km/h (1 Bft) NO 55 ° 0 min 0,000 mm 0,0 UV-I 47 W/m² 2,7 °C 4,8 km/h (1 Bft)
25.11.2016 12:51 3,1 °C 3,1 °C 97 % 1015,4 hPa 0,0 mm 5,4 km/h (1 Bft) O-NO 61 ° 0 min 0,000 mm 0,0 UV-I 47 W/m² 2,7 °C 6,4 km/h (2 Bft)
25.11.2016 12:52 3,1 °C 3,1 °C 97 % 1015,4 hPa 0,0 mm 8,6 km/h (2 Bft) O 84 ° 0 min 0,000 mm 0,0 UV-I 47 W/m² 2,7 °C 14,5 km/h (3 Bft)
25.11.2016 12:53 3,1 °C 3,1 °C 97 % 1015,4 hPa 0,0 mm 6,0 km/h (2 Bft) N-NO 28 ° 0 min 0,000 mm 0,0 UV-I 49 W/m² 2,7 °C 11,3 km/h (2 Bft)
25.11.2016 12:54 3,2 °C 3,2 °C 97 % 1015,3 hPa 0,0 mm 8,6 km/h (2 Bft) O-NO 61 ° 0 min 0,000 mm 0,0 UV-I 49 W/m² 2,8 °C 14,5 km/h (3 Bft)
25.11.2016 12:55 3,1 °C 3,2 °C 97 % 1015,4 hPa 0,0 mm 8,0 km/h (2 Bft) O-SO 104 ° 0 min 0,000 mm 0,0 UV-I 47 W/m² 2,7 °C 11,3 km/h (2 Bft)
25.11.2016 12:56 3,1 °C 3,1 °C 97 % 1015,3 hPa 0,0 mm 6,4 km/h (2 Bft) O-NO 75 ° 0 min 0,000 mm 0,0 UV-I 47 W/m² 2,7 °C 11,3 km/h (2 Bft)
25.11.2016 12:57 3,2 °C 3,2 °C 97 % 1015,3 hPa 0,0 mm 5,8 km/h (2 Bft) O-NO 74 ° 0 min 0,000 mm 0,0 UV-I 47 W/m² 2,8 °C 9,7 km/h (2 Bft)
25.11.2016 12:58 3,1 °C 3,2 °C 97 % 1015,3 hPa 0,0 mm 4,6 km/h (1 Bft) O-NO 62 ° 0 min 0,000 mm 0,0 UV-I 47 W/m² 2,7 °C 9,7 km/h (2 Bft)
25.11.2016 12:59 3,2 °C 3,2 °C 97 % 1015,3 hPa 0,0 mm 2,4 km/h (1 Bft) O-NO 61 ° 0 min 0,000 mm 0,0 UV-I 47 W/m² 2,8 °C 4,8 km/h (1 Bft)
25.11.2016 13:00 3,2 °C 3,2 °C 97 % 1015,3 hPa 0,0 mm 4,8 km/h (1 Bft) O-NO 63 ° 0 min 0,025 mm 0,0 UV-I 47 W/m² 2,8 °C 6,4 km/h (2 Bft)
25.11.2016 13:01 3,2 °C 3,2 °C 97 % 1015,3 hPa 0,0 mm 6,9 km/h (2 Bft) N-NO 22 ° 0 min 0,000 mm 0,0 UV-I 47 W/m² 2,8 °C 11,3 km/h (2 Bft)
25.11.2016 13:02 3,2 °C 3,2 °C 97 % 1015,3 hPa 0,0 mm 8,8 km/h (2 Bft) O-NO 74 ° 0 min 0,000 mm 0,0 UV-I 47 W/m² 2,8 °C 12,9 km/h (3 Bft)
25.11.2016 13:03 3,1 °C 3,2 °C 97 % 1015,3 hPa 0,0 mm 6,9 km/h (2 Bft) O-NO 58 ° 0 min 0,000 mm 0,0 UV-I 46 W/m² 2,7 °C 11,3 km/h (2 Bft)
25.11.2016 13:04 3,1 °C 3,2 °C 97 % 1015,4 hPa 0,0 mm 6,6 km/h (2 Bft) NO 43 ° 0 min 0,000 mm 0,0 UV-I 44 W/m² 2,7 °C 11,3 km/h (2 Bft)
25.11.2016 13:05 3,1 °C 3,1 °C 97 % 1015,4 hPa 0,0 mm 7,1 km/h (2 Bft) N-NO 32 ° 0 min 0,000 mm 0,0 UV-I 40 W/m² 2,7 °C 11,3 km/h (2 Bft)
25.11.2016 13:06 3,1 °C 3,1 °C 97 % 1015,4 hPa 0,0 mm 4,1 km/h (1 Bft) NO 39 ° 0 min 0,000 mm 0,0 UV-I 40 W/m² 2,7 °C 6,4 km/h (2 Bft)
25.11.2016 13:07 3,1 °C 3,1 °C 97 % 1015,3 hPa 0,0 mm 4,0 km/h (1 Bft) N-NO 26 ° 0 min 0,000 mm 0,0 UV-I 42 W/m² 2,7 °C 4,8 km/h (1 Bft)
25.11.2016 13:08 3,1 °C 3,1 °C 97 % 1015,4 hPa 0,0 mm 4,6 km/h (1 Bft) NO 40 ° 0 min 0,000 mm 0,0 UV-I 40 W/m² 2,7 °C 6,4 km/h (2 Bft)
25.11.2016 13:09 3,1 °C 3,2 °C 97 % 1015,4 hPa 0,0 mm 6,0 km/h (2 Bft) NO 54 ° 0 min 0,000 mm 0,0 UV-I 39 W/m² 2,7 °C 11,3 km/h (2 Bft)
25.11.2016 13:10 3,2 °C 3,2 °C 97 % 1015,5 hPa 0,0 mm 6,4 km/h (2 Bft) O-NO 73 ° 0 min 0,000 mm 0,0 UV-I 37 W/m² 2,8 °C 11,3 km/h (2 Bft)
25.11.2016 13:11 3,2 °C 3,2 °C 97 % 1015,4 hPa 0,0 mm 7,9 km/h (2 Bft) O-NO 67 ° 0 min 0,000 mm 0,0 UV-I 33 W/m² 2,8 °C 14,5 km/h (3 Bft)
25.11.2016 13:12 3,1 °C 3,2 °C 97 % 1015,4 hPa 0,0 mm 6,8 km/h (2 Bft) O 83 ° 0 min 0,000 mm 0,0 UV-I 35 W/m² 2,7 °C 12,9 km/h (3 Bft)
25.11.2016 13:13 3,1 °C 3,2 °C 97 % 1015,4 hPa 0,0 mm 7,6 km/h (2 Bft) O 85 ° 0 min 0,000 mm 0,0 UV-I 33 W/m² 2,7 °C 14,5 km/h (3 Bft)
25.11.2016 13:14 3,1 °C 3,1 °C 97 % 1015,4 hPa 0,0 mm 5,3 km/h (1 Bft) O-NO 64 ° 0 min 0,000 mm 0,0 UV-I 33 W/m² 2,7 °C 9,7 km/h (2 Bft)
25.11.2016 13:15 3,1 °C 3,1 °C 97 % 1015,4 hPa 0,0 mm 5,8 km/h (2 Bft) O-NO 57 ° 0 min 0,000 mm 0,0 UV-I 33 W/m² 2,7 °C 8,0 km/h (2 Bft)
25.11.2016 13:16 3,2 °C 3,2 °C 97 % 1015,4 hPa 0,0 mm 5,0 km/h (1 Bft) O-NO 75 ° 0 min 0,000 mm 0,0 UV-I 32 W/m² 2,8 °C 8,0 km/h (2 Bft)
25.11.2016 13:17 3,1 °C 3,2 °C 97 % 1015,4 hPa 0,0 mm 5,4 km/h (1 Bft) O-NO 65 ° 0 min 0,000 mm 0,0 UV-I 32 W/m² 2,7 °C 8,0 km/h (2 Bft)
25.11.2016 13:18 3,1 °C 3,2 °C 97 % 1015,4 hPa 0,0 mm 7,3 km/h (2 Bft) O 86 ° 0 min 0,000 mm 0,0 UV-I 30 W/m² 2,7 °C 8,0 km/h (2 Bft)
25.11.2016 13:19 3,1 °C 3,2 °C 97 % 1015,4 hPa 0,0 mm 5,0 km/h (1 Bft) NO 54 ° 0 min 0,000 mm 0,0 UV-I 30 W/m² 2,7 °C 6,4 km/h (2 Bft)
25.11.2016 13:20 3,2 °C 3,2 °C 97 % 1015,4 hPa 0,0 mm 2,8 km/h (1 Bft) O-NO 61 ° 0 min 0,000 mm 0,0 UV-I 30 W/m² 2,8 °C 4,8 km/h (1 Bft)
25.11.2016 13:21 3,2 °C 3,2 °C 97 % 1015,4 hPa 0,0 mm 6,2 km/h (2 Bft) O-NO 76 ° 0 min 0,000 mm 0,0 UV-I 30 W/m² 2,8 °C 9,7 km/h (2 Bft)
25.11.2016 13:22 3,2 °C 3,2 °C 97 % 1015,4 hPa 0,0 mm 6,1 km/h (2 Bft) NO 55 ° 0 min 0,000 mm 0,0 UV-I 32 W/m² 2,8 °C 8,0 km/h (2 Bft)
25.11.2016 13:23 3,2 °C 3,2 °C 97 % 1015,4 hPa 0,0 mm 5,1 km/h (1 Bft) O-NO 65 ° 0 min 0,000 mm 0,0 UV-I 33 W/m² 2,8 °C 6,4 km/h (2 Bft)
25.11.2016 13:24 3,2 °C 3,2 °C 97 % 1015,4 hPa 0,0 mm 7,7 km/h (2 Bft) O-NO 63 ° 0 min 0,000 mm 0,0 UV-I 33 W/m² 2,8 °C 14,5 km/h (3 Bft)
25.11.2016 13:25 3,2 °C 3,2 °C 97 % 1015,4 hPa 0,0 mm 5,8 km/h (2 Bft) O-NO 57 ° 0 min 0,000 mm 0,0 UV-I 30 W/m² 2,8 °C 9,7 km/h (2 Bft)
25.11.2016 13:26 3,2 °C 3,2 °C 97 % 1015,4 hPa 0,0 mm 6,6 km/h (2 Bft) O-NO 73 ° 0 min 0,000 mm 0,0 UV-I 28 W/m² 2,8 °C 12,9 km/h (3 Bft)
25.11.2016 13:27 3,2 °C 3,2 °C 97 % 1015,4 hPa 0,0 mm 9,1 km/h (2 Bft) NO 43 ° 0 min 0,000 mm 0,0 UV-I 26 W/m² 2,8 °C 14,5 km/h (3 Bft)
25.11.2016 13:28 3,2 °C 3,2 °C 97 % 1015,4 hPa 0,0 mm 5,6 km/h (1 Bft) NO 55 ° 0 min 0,000 mm 0,0 UV-I 25 W/m² 2,8 °C 8,0 km/h (2 Bft)
25.11.2016 13:29 3,2 °C 3,2 °C 97 % 1015,4 hPa 0,0 mm 3,8 km/h (1 Bft) NO 38 ° 0 min 0,000 mm 0,0 UV-I 25 W/m² 2,8 °C 8,0 km/h (2 Bft)
25.11.2016 13:30 3,2 °C 3,2 °C 97 % 1015,4 hPa 0,0 mm 3,0 km/h (1 Bft) O-NO 61 ° 0 min 0,000 mm 0,0 UV-I 25 W/m² 2,8 °C 4,8 km/h (1 Bft)
25.11.2016 13:31 3,2 °C 3,2 °C 97 % 1015,4 hPa 0,0 mm 1,8 km/h (1 Bft) O-NO 61 ° 0 min 0,000 mm 0,0 UV-I 26 W/m² 2,8 °C 3,2 km/h (1 Bft)
25.11.2016 13:32 3,2 °C 3,2 °C 97 % 1015,3 hPa 0,0 mm 3,4 km/h (1 Bft) O-NO 60 ° 0 min 0,000 mm 0,0 UV-I 28 W/m² 2,8 °C 4,8 km/h (1 Bft)
25.11.2016 13:33 3,2 °C 3,2 °C 97 % 1015,4 hPa 0,0 mm 1,5 km/h (1 Bft) O-NO 60 ° 0 min 0,000 mm 0,0 UV-I 26 W/m² 2,8 °C 3,2 km/h (1 Bft)
25.11.2016 13:34 3,2 °C 3,2 °C 97 % 1015,3 hPa 0,0 mm 3,5 km/h (1 Bft) O-NO 59 ° 0 min 0,000 mm 0,0 UV-I 23 W/m² 2,8 °C 4,8 km/h (1 Bft)
25.11.2016 13:35 3,2 °C 3,2 °C 97 % 1015,4 hPa 0,0 mm 7,7 km/h (2 Bft) O 86 ° 0 min 0,000 mm 0,0 UV-I 23 W/m² 2,8 °C 11,3 km/h (2 Bft)
25.11.2016 13:36 3,2 °C 3,2 °C 97 % 1015,4 hPa 0,0 mm 6,0 km/h (2 Bft) O-NO 71 ° 0 min 0,000 mm 0,0 UV-I 23 W/m² 2,8 °C 8,0 km/h (2 Bft)
25.11.2016 13:37 3,2 °C 3,2 °C 97 % 1015,4 hPa 0,0 mm 7,7 km/h (2 Bft) O-NO 67 ° 0 min 0,000 mm 0,0 UV-I 23 W/m² 2,8 °C 11,3 km/h (2 Bft)
25.11.2016 13:38 3,2 °C 3,2 °C 97 % 1015,4 hPa 0,0 mm 3,9 km/h (1 Bft) O 80 ° 0 min 0,000 mm 0,0 UV-I 21 W/m² 2,8 °C 6,4 km/h (2 Bft)
25.11.2016 13:39 3,2 °C 3,2 °C 97 % 1015,3 hPa 0,0 mm 6,2 km/h (2 Bft) O-SO 102 ° 0 min 0,000 mm 0,0 UV-I 23 W/m² 2,8 °C 9,7 km/h (2 Bft)
25.11.2016 13:40 3,2 °C 3,2 °C 97 % 1015,3 hPa 0,0 mm 6,5 km/h (2 Bft) NO 36 ° 0 min 0,000 mm 0,0 UV-I 23 W/m² 2,8 °C 12,9 km/h (3 Bft)
25.11.2016 13:41 3,2 °C 3,2 °C 97 % 1015,3 hPa 0,0 mm 5,9 km/h (2 Bft) NO 47 ° 0 min 0,000 mm 0,0 UV-I 23 W/m² 2,8 °C 8,0 km/h (2 Bft)
25.11.2016 13:42 3,2 °C 3,2 °C 97 % 1015,3 hPa 0,0 mm 7,6 km/h (2 Bft) O-NO 59 ° 0 min 0,000 mm 0,0 UV-I 21 W/m² 2,8 °C 11,3 km/h (2 Bft)
25.11.2016 13:43 3,2 °C 3,2 °C 97 % 1015,4 hPa 0,0 mm 5,1 km/h (1 Bft) N-NO 32 ° 0 min 0,000 mm 0,0 UV-I 21 W/m² 2,8 °C 8,0 km/h (2 Bft)
25.11.2016 13:44 3,1 °C 3,2 °C 97 % 1015,4 hPa 0,0 mm 3,7 km/h (1 Bft) O-NO 70 ° 0 min 0,000 mm 0,0 UV-I 21 W/m² 2,7 °C 4,8 km/h (1 Bft)
25.11.2016 13:45 3,2 °C 3,2 °C 97 % 1015,4 hPa 0,0 mm 4,7 km/h (1 Bft) NO 49 ° 0 min 0,000 mm 0,0 UV-I 23 W/m² 2,8 °C 8,0 km/h (2 Bft)
25.11.2016 13:46 3,1 °C 3,2 °C 97 % 1015,4 hPa 0,0 mm 4,5 km/h (1 Bft) NO 51 ° 0 min 0,000 mm 0,0 UV-I 23 W/m² 2,7 °C 6,4 km/h (2 Bft)
25.11.2016 13:47 3,2 °C 3,2 °C 97 % 1015,3 hPa 0,0 mm 3,9 km/h (1 Bft) NO 45 ° 0 min 0,000 mm 0,0 UV-I 25 W/m² 2,8 °C 4,8 km/h (1 Bft)
25.11.2016 13:48 3,2 °C 3,2 °C 97 % 1015,3 hPa 0,0 mm 4,9 km/h (1 Bft) NO 44 ° 0 min 0,000 mm 0,0 UV-I 26 W/m² 2,8 °C 11,3 km/h (2 Bft)
25.11.2016 13:49 3,2 °C 3,2 °C 97 % 1015,3 hPa 0,0 mm 5,4 km/h (1 Bft) NO 48 ° 0 min 0,000 mm 0,0 UV-I 26 W/m² 2,8 °C 8,0 km/h (2 Bft)
25.11.2016 13:50 3,2 °C 3,2 °C 97 % 1015,2 hPa 0,0 mm 5,3 km/h (1 Bft) O 96 ° 0 min 0,000 mm 0,0 UV-I 26 W/m² 2,8 °C 9,7 km/h (2 Bft)
25.11.2016 13:51 3,2 °C 3,2 °C 97 % 1015,2 hPa 0,0 mm 3,4 km/h (1 Bft) N 360 ° 0 min 0,000 mm 0,0 UV-I 25 W/m² 2,8 °C 6,4 km/h (2 Bft)
25.11.2016 13:52 3,2 °C 3,2 °C 97 % 1015,2 hPa 0,0 mm 9,1 km/h (2 Bft) O 80 ° 0 min 0,000 mm 0,0 UV-I 25 W/m² 2,8 °C 12,9 km/h (3 Bft)
25.11.2016 13:53 3,2 °C 3,2 °C 97 % 1015,3 hPa 0,0 mm 5,5 km/h (1 Bft) O-NO 61 ° 0 min 0,000 mm 0,0 UV-I 25 W/m² 2,8 °C 8,0 km/h (2 Bft)
25.11.2016 13:54 3,2 °C 3,2 °C 97 % 1015,2 hPa 0,0 mm 5,2 km/h (1 Bft) O-NO 57 ° 0 min 0,000 mm 0,0 UV-I 25 W/m² 2,8 °C 9,7 km/h (2 Bft)
25.11.2016 13:55 3,2 °C 3,2 °C 97 % 1015,2 hPa 0,0 mm 4,8 km/h (1 Bft) NO 40 ° 0 min 0,000 mm 0,0 UV-I 25 W/m² 2,8 °C 6,4 km/h (2 Bft)
25.11.2016 13:56 3,2 °C 3,2 °C 97 % 1015,3 hPa 0,0 mm 4,5 km/h (1 Bft) NO 53 ° 0 min 0,000 mm 0,0 UV-I 25 W/m² 2,8 °C 8,0 km/h (2 Bft)
25.11.2016 13:57 3,2 °C 3,2 °C 97 % 1015,2 hPa 0,0 mm 4,6 km/h (1 Bft) O-NO 63 ° 0 min 0,000 mm 0,0 UV-I 25 W/m² 2,8 °C 6,4 km/h (2 Bft)
25.11.2016 13:58 3,2 °C 3,2 °C 97 % 1015,3 hPa 0,0 mm 5,4 km/h (1 Bft) O-NO 65 ° 0 min 0,000 mm 0,0 UV-I 25 W/m² 2,8 °C 6,4 km/h (2 Bft)
25.11.2016 13:59 3,2 °C 3,2 °C 97 % 1015,3 hPa 0,0 mm 5,1 km/h (1 Bft) NO 54 ° 0 min 0,000 mm 0,0 UV-I 25 W/m² 2,8 °C 6,4 km/h (2 Bft)
25.11.2016 14:00 3,2 °C 3,2 °C 97 % 1015,3 hPa 0,0 mm 8,5 km/h (2 Bft) O-NO 61 ° 0 min 0,000 mm 0,0 UV-I 25 W/m² 2,8 °C 17,7 km/h (3 Bft)
25.11.2016 14:01 3,1 °C 3,2 °C 97 % 1015,4 hPa 0,0 mm 6,5 km/h (2 Bft) N-NO 33 ° 0 min 0,000 mm 0,0 UV-I 25 W/m² 2,7 °C 8,0 km/h (2 Bft)
25.11.2016 14:02 3,1 °C 3,2 °C 97 % 1015,3 hPa 0,0 mm 5,6 km/h (1 Bft) N-NO 31 ° 0 min 0,000 mm 0,0 UV-I 25 W/m² 2,7 °C 6,4 km/h (2 Bft)
25.11.2016 14:03 3,2 °C 3,2 °C 97 % 1015,3 hPa 0,0 mm 7,4 km/h (2 Bft) O-NO 61 ° 0 min 0,000 mm 0,0 UV-I 25 W/m² 2,8 °C 9,7 km/h (2 Bft)
25.11.2016 14:04 3,2 °C 3,2 °C 97 % 1015,3 hPa 0,0 mm 5,6 km/h (1 Bft) NO 46 ° 0 min 0,000 mm 0,0 UV-I 25 W/m² 2,8 °C 9,7 km/h (2 Bft)
25.11.2016 14:05 3,2 °C 3,2 °C 97 % 1015,3 hPa 0,0 mm 5,7 km/h (1 Bft) NO 51 ° 0 min 0,000 mm 0,0 UV-I 25 W/m² 2,8 °C 6,4 km/h (2 Bft)
25.11.2016 14:06 3,2 °C 3,2 °C 97 % 1015,4 hPa 0,0 mm 4,8 km/h (1 Bft) NO 53 ° 0 min 0,000 mm 0,0 UV-I 25 W/m² 2,8 °C 6,4 km/h (2 Bft)
25.11.2016 14:07 3,2 °C 3,2 °C 97 % 1015,4 hPa 0,0 mm 5,0 km/h (1 Bft) N-NO 25 ° 0 min 0,000 mm 0,0 UV-I 25 W/m² 2,8 °C 6,4 km/h (2 Bft)
25.11.2016 14:08 3,2 °C 3,2 °C 97 % 1015,4 hPa 0,0 mm 4,9 km/h (1 Bft) NO 40 ° 0 min 0,000 mm 0,0 UV-I 25 W/m² 2,8 °C 6,4 km/h (2 Bft)
25.11.2016 14:09 3,1 °C 3,2 °C 97 % 1015,4 hPa 0,0 mm 5,3 km/h (1 Bft) NO 45 ° 0 min 0,000 mm 0,0 UV-I 25 W/m² 2,7 °C 8,0 km/h (2 Bft)
25.11.2016 14:10 3,2 °C 3,2 °C 97 % 1015,3 hPa 0,0 mm 3,9 km/h (1 Bft) O-NO 59 ° 0 min 0,000 mm 0,0 UV-I 25 W/m² 2,8 °C 6,4 km/h (2 Bft)
25.11.2016 14:11 3,2 °C 3,2 °C 97 % 1015,3 hPa 0,0 mm 4,9 km/h (1 Bft) O-NO 64 ° 0 min 0,000 mm 0,0 UV-I 25 W/m² 2,8 °C 6,4 km/h (2 Bft)
25.11.2016 14:12 3,2 °C 3,2 °C 97 % 1015,3 hPa 0,0 mm 4,2 km/h (1 Bft) NO 38 ° 0 min 0,000 mm 0,0 UV-I 25 W/m² 2,8 °C 6,4 km/h (2 Bft)
25.11.2016 14:13 3,2 °C 3,2 °C 97 % 1015,3 hPa 0,0 mm 3,8 km/h (1 Bft) O-NO 73 ° 0 min 0,000 mm 0,0 UV-I 23 W/m² 2,8 °C 6,4 km/h (2 Bft)
25.11.2016 14:14 3,2 °C 3,2 °C 97 % 1015,3 hPa 0,0 mm 2,5 km/h (1 Bft) O-NO 58 ° 0 min 0,000 mm 0,0 UV-I 25 W/m² 2,8 °C 4,8 km/h (1 Bft)
25.11.2016 14:15 3,2 °C 3,2 °C 97 % 1015,3 hPa 0,0 mm 3,1 km/h (1 Bft) O-NO 64 ° 0 min 0,000 mm 0,0 UV-I 25 W/m² 2,8 °C 6,4 km/h (2 Bft)
25.11.2016 14:16 3,2 °C 3,2 °C 97 % 1015,3 hPa 0,0 mm 5,5 km/h (1 Bft) NO 55 ° 0 min 0,000 mm 0,0 UV-I 25 W/m² 2,8 °C 8,0 km/h (2 Bft)
25.11.2016 14:17 3,2 °C 3,2 °C 97 % 1015,3 hPa 0,0 mm 5,3 km/h (1 Bft) O-NO 61 ° 0 min 0,000 mm 0,0 UV-I 25 W/m² 2,8 °C 8,0 km/h (2 Bft)
25.11.2016 14:18 3,2 °C 3,2 °C 97 % 1015,3 hPa 0,0 mm 4,8 km/h (1 Bft) NO 40 ° 0 min 0,000 mm 0,0 UV-I 25 W/m² 2,8 °C 6,4 km/h (2 Bft)
25.11.2016 14:19 3,2 °C 3,2 °C 97 % 1015,2 hPa 0,0 mm 4,2 km/h (1 Bft) O 82 ° 0 min 0,000 mm 0,0 UV-I 25 W/m² 2,8 °C 6,4 km/h (2 Bft)
25.11.2016 14:20 3,2 °C 3,2 °C 97 % 1015,2 hPa 0,0 mm 3,9 km/h (1 Bft) O 82 ° 0 min 0,000 mm 0,0 UV-I 23 W/m² 2,8 °C 6,4 km/h (2 Bft)
25.11.2016 14:21 3,2 °C 3,2 °C 97 % 1015,3 hPa 0,0 mm 4,1 km/h (1 Bft) NO 43 ° 0 min 0,000 mm 0,0 UV-I 23 W/m² 2,8 °C 6,4 km/h (2 Bft)
25.11.2016 14:22 3,2 °C 3,2 °C 97 % 1015,3 hPa 0,0 mm 2,9 km/h (1 Bft) NO 48 ° 0 min 0,000 mm 0,0 UV-I 25 W/m² 2,8 °C 6,4 km/h (2 Bft)
25.11.2016 14:23 3,2 °C 3,2 °C 97 % 1015,3 hPa 0,0 mm 6,7 km/h (2 Bft) O-NO 57 ° 0 min 0,000 mm 0,0 UV-I 25 W/m² 2,8 °C 11,3 km/h (2 Bft)
25.11.2016 14:24 3,2 °C 3,2 °C 97 % 1015,3 hPa 0,0 mm 5,8 km/h (2 Bft) O-NO 57 ° 0 min 0,000 mm 0,0 UV-I 23 W/m² 2,8 °C 8,0 km/h (2 Bft)
25.11.2016 14:25 3,2 °C 3,2 °C 97 % 1015,3 hPa 0,0 mm 6,8 km/h (2 Bft) O-NO 61 ° 0 min 0,000 mm 0,0 UV-I 23 W/m² 2,8 °C 11,3 km/h (2 Bft)
25.11.2016 14:26 3,2 °C 3,2 °C 97 % 1015,3 hPa 0,0 mm 5,3 km/h (1 Bft) O-NO 77 ° 0 min 0,000 mm 0,0 UV-I 21 W/m² 2,8 °C 8,0 km/h (2 Bft)
25.11.2016 14:27 3,2 °C 3,2 °C 97 % 1015,4 hPa 0,0 mm 2,5 km/h (1 Bft) O-NO 77 ° 0 min 0,000 mm 0,0 UV-I 21 W/m² 2,8 °C 4,8 km/h (1 Bft)
25.11.2016 14:28 3,2 °C 3,2 °C 97 % 1015,4 hPa 0,0 mm 4,9 km/h (1 Bft) O-NO 78 ° 0 min 0,000 mm 0,0 UV-I 21 W/m² 2,8 °C 9,7 km/h (2 Bft)
25.11.2016 14:29 3,2 °C 3,2 °C 97 % 1015,3 hPa 0,0 mm 4,2 km/h (1 Bft) NO 42 ° 0 min 0,000 mm 0,0 UV-I 21 W/m² 2,8 °C 8,0 km/h (2 Bft)
25.11.2016 14:30 3,2 °C 3,2 °C 97 % 1015,4 hPa 0,0 mm 2,4 km/h (1 Bft) NO 42 ° 0 min 0,000 mm 0,0 UV-I 21 W/m² 2,8 °C 4,8 km/h (1 Bft)
25.11.2016 14:31 3,2 °C 3,2 °C 97 % 1015,3 hPa 0,0 mm 4,9 km/h (1 Bft) O 79 ° 0 min 0,000 mm 0,0 UV-I 19 W/m² 2,8 °C 8,0 km/h (2 Bft)
25.11.2016 14:32 3,2 °C 3,2 °C 97 % 1015,3 hPa 0,0 mm 5,7 km/h (1 Bft) O-NO 71 ° 0 min 0,000 mm 0,0 UV-I 19 W/m² 2,8 °C 6,4 km/h (2 Bft)
25.11.2016 14:33 3,2 °C 3,2 °C 97 % 1015,3 hPa 0,0 mm 8,1 km/h (2 Bft) O-NO 67 ° 0 min 0,000 mm 0,0 UV-I 19 W/m² 2,8 °C 12,9 km/h (3 Bft)
25.11.2016 14:34 3,2 °C 3,2 °C 97 % 1015,3 hPa 0,0 mm 5,4 km/h (1 Bft) O-NO 59 ° 0 min 0,000 mm 0,0 UV-I 19 W/m² 2,8 °C 8,0 km/h (2 Bft)
25.11.2016 14:35 3,2 °C 3,2 °C 97 % 1015,3 hPa 0,0 mm 3,5 km/h (1 Bft) O-NO 76 ° 0 min 0,000 mm 0,0 UV-I 19 W/m² 2,8 °C 6,4 km/h (2 Bft)
25.11.2016 14:36 3,2 °C 3,2 °C 97 % 1015,3 hPa 0,0 mm 5,3 km/h (1 Bft) NO 54 ° 0 min 0,000 mm 0,0 UV-I 19 W/m² 2,8 °C 8,0 km/h (2 Bft)
25.11.2016 14:37 3,2 °C 3,2 °C 97 % 1015,3 hPa 0,0 mm 5,2 km/h (1 Bft) O 88 ° 0 min 0,000 mm 0,0 UV-I 19 W/m² 2,8 °C 8,0 km/h (2 Bft)
25.11.2016 14:38 3,2 °C 3,2 °C 97 % 1015,3 hPa 0,0 mm 4,0 km/h (1 Bft) N-NO 32 ° 0 min 0,000 mm 0,0 UV-I 19 W/m² 2,8 °C 6,4 km/h (2 Bft)
25.11.2016 14:39 3,2 °C 3,2 °C 97 % 1015,3 hPa 0,0 mm 4,1 km/h (1 Bft) O-NO 77 ° 0 min 0,000 mm 0,0 UV-I 19 W/m² 2,8 °C 6,4 km/h (2 Bft)
25.11.2016 14:40 3,2 °C 3,2 °C 97 % 1015,3 hPa 0,0 mm 3,0 km/h (1 Bft) NO 51 ° 0 min 0,000 mm 0,0 UV-I 18 W/m² 2,8 °C 4,8 km/h (1 Bft)
25.11.2016 14:41 3,2 °C 3,2 °C 97 % 1015,3 hPa 0,0 mm 6,2 km/h (2 Bft) O 82 ° 0 min 0,000 mm 0,0 UV-I 18 W/m² 2,8 °C 8,0 km/h (2 Bft)
25.11.2016 14:42 3,2 °C 3,2 °C 97 % 1015,3 hPa 0,0 mm 6,4 km/h (2 Bft) O 89 ° 0 min 0,000 mm 0,0 UV-I 18 W/m² 2,8 °C 11,3 km/h (2 Bft)
25.11.2016 14:43 3,2 °C 3,2 °C 97 % 1015,2 hPa 0,0 mm 4,4 km/h (1 Bft) O-NO 69 ° 0 min 0,000 mm 0,0 UV-I 18 W/m² 2,8 °C 6,4 km/h (2 Bft)
25.11.2016 14:44 3,2 °C 3,2 °C 97 % 1015,2 hPa 0,0 mm 5,9 km/h (2 Bft) O 84 ° 0 min 0,000 mm 0,0 UV-I 18 W/m² 2,8 °C 11,3 km/h (2 Bft)
25.11.2016 14:45 3,2 °C 3,2 °C 97 % 1015,2 hPa 0,0 mm 8,2 km/h (2 Bft) O 86 ° 0 min 0,000 mm 0,0 UV-I 18 W/m² 2,8 °C 11,3 km/h (2 Bft)
25.11.2016 14:46 3,2 °C 3,2 °C 97 % 1015,2 hPa 0,0 mm 5,9 km/h (2 Bft) O-NO 65 ° 0 min 0,000 mm 0,0 UV-I 18 W/m² 2,8 °C 9,7 km/h (2 Bft)
25.11.2016 14:47 3,2 °C 3,2 °C 97 % 1015,3 hPa 0,0 mm 6,5 km/h (2 Bft) NO 44 ° 0 min 0,000 mm 0,0 UV-I 18 W/m² 2,8 °C 8,0 km/h (2 Bft)
25.11.2016 14:48 3,2 °C 3,2 °C 97 % 1015,3 hPa 0,0 mm 4,5 km/h (1 Bft) O-NO 61 ° 0 min 0,000 mm 0,0 UV-I 18 W/m² 2,8 °C 6,4 km/h (2 Bft)
25.11.2016 14:49 3,2 °C 3,2 °C 97 % 1015,3 hPa 0,0 mm 4,7 km/h (1 Bft) NO 54 ° 0 min 0,000 mm 0,0 UV-I 18 W/m² 2,8 °C 6,4 km/h (2 Bft)
25.11.2016 14:50 3,2 °C 3,2 °C 97 % 1015,3 hPa 0,0 mm 2,4 km/h (1 Bft) NO 52 ° 0 min 0,000 mm 0,0 UV-I 16 W/m² 2,8 °C 4,8 km/h (1 Bft)
25.11.2016 14:51 3,2 °C 3,2 °C 97 % 1015,3 hPa 0,0 mm 4,5 km/h (1 Bft) NO 40 ° 0 min 0,000 mm 0,0 UV-I 16 W/m² 2,8 °C 8,0 km/h (2 Bft)
25.11.2016 14:52 3,2 °C 3,2 °C 97 % 1015,3 hPa 0,0 mm 5,0 km/h (1 Bft) NO 38 ° 0 min 0,000 mm 0,0 UV-I 16 W/m² 2,8 °C 6,4 km/h (2 Bft)
25.11.2016 14:53 3,2 °C 3,2 °C 97 % 1015,3 hPa 0,0 mm 7,5 km/h (2 Bft) O-NO 60 ° 0 min 0,000 mm 0,0 UV-I 16 W/m² 2,8 °C 12,9 km/h (3 Bft)
25.11.2016 14:54 3,2 °C 3,2 °C 97 % 1015,3 hPa 0,0 mm 4,7 km/h (1 Bft) O-NO 58 ° 0 min 0,000 mm 0,0 UV-I 16 W/m² 2,8 °C 9,7 km/h (2 Bft)
25.11.2016 14:55 3,2 °C 3,2 °C 97 % 1015,3 hPa 0,0 mm 8,5 km/h (2 Bft) O-NO 74 ° 0 min 0,000 mm 0,0 UV-I 16 W/m² 2,8 °C 12,9 km/h (3 Bft)
25.11.2016 14:56 3,2 °C 3,2 °C 97 % 1015,3 hPa 0,0 mm 8,3 km/h (2 Bft) O-NO 63 ° 0 min 0,000 mm 0,0 UV-I 16 W/m² 2,8 °C 12,9 km/h (3 Bft)
25.11.2016 14:57 3,2 °C 3,2 °C 97 % 1015,3 hPa 0,0 mm 7,2 km/h (2 Bft) NO 51 ° 0 min 0,000 mm 0,0 UV-I 14 W/m² 2,8 °C 11,3 km/h (2 Bft)
25.11.2016 14:58 3,2 °C 3,2 °C 97 % 1015,3 hPa 0,0 mm 5,6 km/h (1 Bft) NO 42 ° 0 min 0,000 mm 0,0 UV-I 14 W/m² 2,8 °C 9,7 km/h (2 Bft)
25.11.2016 14:59 3,2 °C 3,2 °C 97 % 1015,3 hPa 0,0 mm 7,1 km/h (2 Bft) O-NO 60 ° 0 min 0,000 mm 0,0 UV-I 14 W/m² 2,8 °C 11,3 km/h (2 Bft)
25.11.2016 15:00 3,2 °C 3,2 °C 97 % 1015,3 hPa 0,0 mm 6,2 km/h (2 Bft) O-NO 59 ° 0 min 0,000 mm 0,0 UV-I 14 W/m² 2,8 °C 12,9 km/h (3 Bft)
25.11.2016 15:01 3,1 °C 3,2 °C 97 % 1015,3 hPa 0,0 mm 4,0 km/h (1 Bft) O-NO 72 ° 0 min 0,000 mm 0,0 UV-I 14 W/m² 2,7 °C 4,8 km/h (1 Bft)
25.11.2016 15:02 3,2 °C 3,2 °C 97 % 1015,3 hPa 0,0 mm 7,0 km/h (2 Bft) NO 34 ° 0 min 0,000 mm 0,0 UV-I 14 W/m² 2,8 °C 9,7 km/h (2 Bft)
25.11.2016 15:03 3,2 °C 3,2 °C 97 % 1015,3 hPa 0,0 mm 3,2 km/h (1 Bft) NO 34 ° 0 min 0,000 mm 0,0 UV-I 14 W/m² 2,8 °C 6,4 km/h (2 Bft)
25.11.2016 15:04 3,2 °C 3,2 °C 97 % 1015,3 hPa 0,0 mm 3,5 km/h (1 Bft) O 86 ° 0 min 0,000 mm 0,0 UV-I 14 W/m² 2,8 °C 6,4 km/h (2 Bft)
25.11.2016 15:05 3,2 °C 3,2 °C 97 % 1015,3 hPa 0,0 mm 5,3 km/h (1 Bft) NO 42 ° 0 min 0,000 mm 0,0 UV-I 12 W/m² 2,8 °C 12,9 km/h (3 Bft)
25.11.2016 15:06 3,2 °C 3,2 °C 97 % 1015,3 hPa 0,0 mm 6,3 km/h (2 Bft) NO 45 ° 0 min 0,000 mm 0,0 UV-I 12 W/m² 2,8 °C 9,7 km/h (2 Bft)
25.11.2016 15:07 3,2 °C 3,2 °C 97 % 1015,3 hPa 0,0 mm 8,7 km/h (2 Bft) O-NO 67 ° 0 min 0,000 mm 0,0 UV-I 12 W/m² 2,8 °C 12,9 km/h (3 Bft)
25.11.2016 15:08 3,2 °C 3,2 °C 97 % 1015,3 hPa 0,0 mm 6,0 km/h (2 Bft) NO 34 ° 0 min 0,000 mm 0,0 UV-I 14 W/m² 2,8 °C 8,0 km/h (2 Bft)
25.11.2016 15:09 3,2 °C 3,2 °C 97 % 1015,3 hPa 0,0 mm 8,9 km/h (2 Bft) O 85 ° 0 min 0,000 mm 0,0 UV-I 12 W/m² 2,8 °C 14,5 km/h (3 Bft)
25.11.2016 15:10 3,2 °C 3,2 °C 97 % 1015,3 hPa 0,0 mm 2,7 km/h (1 Bft) O 82 ° 0 min 0,000 mm 0,0 UV-I 12 W/m² 2,8 °C 6,4 km/h (2 Bft)
25.11.2016 15:11 3,2 °C 3,2 °C 97 % 1015,4 hPa 0,0 mm 5,9 km/h (2 Bft) O 86 ° 0 min 0,000 mm 0,0 UV-I 12 W/m² 2,8 °C 11,3 km/h (2 Bft)
25.11.2016 15:12 3,1 °C 3,2 °C 97 % 1015,4 hPa 0,0 mm 3,6 km/h (1 Bft) NO 34 ° 0 min 0,000 mm 0,0 UV-I 12 W/m² 2,7 °C 4,8 km/h (1 Bft)
25.11.2016 15:13 3,1 °C 3,2 °C 97 % 1015,4 hPa 0,0 mm 4,9 km/h (1 Bft) O-NO 69 ° 0 min 0,000 mm 0,0 UV-I 12 W/m² 2,7 °C 9,7 km/h (2 Bft)
25.11.2016 15:14 3,1 °C 3,2 °C 97 % 1015,4 hPa 0,0 mm 9,1 km/h (2 Bft) N 360 ° 0 min 0,000 mm 0,0 UV-I 11 W/m² 2,7 °C 14,5 km/h (3 Bft)
25.11.2016 15:15 3,1 °C 3,2 °C 97 % 1015,4 hPa 0,0 mm 7,9 km/h (2 Bft) O-NO 75 ° 0 min 0,000 mm 0,0 UV-I 11 W/m² 2,7 °C 12,9 km/h (3 Bft)
25.11.2016 15:16 3,1 °C 3,2 °C 97 % 1015,4 hPa 0,0 mm 7,1 km/h (2 Bft) NO 52 ° 0 min 0,000 mm 0,0 UV-I 11 W/m² 2,7 °C 12,9 km/h (3 Bft)
25.11.2016 15:17 3,2 °C 3,2 °C 97 % 1015,4 hPa 0,0 mm 8,2 km/h (2 Bft) NO 47 ° 0 min 0,000 mm 0,0 UV-I 9 W/m² 2,8 °C 11,3 km/h (2 Bft)
25.11.2016 15:18 3,1 °C 3,2 °C 97 % 1015,4 hPa 0,0 mm 5,5 km/h (1 Bft) O-NO 69 ° 0 min 0,000 mm 0,0 UV-I 9 W/m² 2,7 °C 8,0 km/h (2 Bft)
25.11.2016 15:19 3,1 °C 3,1 °C 97 % 1015,5 hPa 0,0 mm 5,8 km/h (2 Bft) NO 49 ° 0 min 0,000 mm 0,0 UV-I 9 W/m² 2,7 °C 8,0 km/h (2 Bft)
25.11.2016 15:20 3,1 °C 3,2 °C 97 % 1015,5 hPa 0,0 mm 4,4 km/h (1 Bft) O-NO 64 ° 0 min 0,000 mm 0,0 UV-I 7 W/m² 2,7 °C 6,4 km/h (2 Bft)
25.11.2016 15:21 3,2 °C 3,2 °C 97 % 1015,5 hPa 0,0 mm 7,6 km/h (2 Bft) NO 48 ° 0 min 0,000 mm 0,0 UV-I 7 W/m² 2,8 °C 11,3 km/h (2 Bft)
25.11.2016 15:22 3,1 °C 3,2 °C 97 % 1015,5 hPa 0,0 mm 5,6 km/h (1 Bft) O-NO 61 ° 0 min 0,000 mm 0,0 UV-I 7 W/m² 2,7 °C 8,0 km/h (2 Bft)
25.11.2016 15:23 3,1 °C 3,1 °C 97 % 1015,6 hPa 0,0 mm 5,5 km/h (1 Bft) NO 47 ° 0 min 0,000 mm 0,0 UV-I 7 W/m² 2,7 °C 9,7 km/h (2 Bft)
25.11.2016 15:24 3,1 °C 3,1 °C 97 % 1015,5 hPa 0,0 mm 6,4 km/h (2 Bft) O-NO 68 ° 0 min 0,000 mm 0,0 UV-I 7 W/m² 2,7 °C 11,3 km/h (2 Bft)
25.11.2016 15:25 3,1 °C 3,1 °C 97 % 1015,6 hPa 0,0 mm 6,1 km/h (2 Bft) NO 38 ° 0 min 0,000 mm 0,0 UV-I 7 W/m² 2,7 °C 9,7 km/h (2 Bft)
25.11.2016 15:26 3,1 °C 3,1 °C 97 % 1015,6 hPa 0,0 mm 7,8 km/h (2 Bft) NO 46 ° 0 min 0,000 mm 0,0 UV-I 7 W/m² 2,7 °C 12,9 km/h (3 Bft)
25.11.2016 15:27 3,1 °C 3,1 °C 97 % 1015,6 hPa 0,0 mm 7,0 km/h (2 Bft) O 79 ° 0 min 0,000 mm 0,0 UV-I 7 W/m² 2,7 °C 11,3 km/h (2 Bft)
25.11.2016 15:28 3,1 °C 3,1 °C 97 % 1015,6 hPa 0,0 mm 7,1 km/h (2 Bft) NO 56 ° 0 min 0,000 mm 0,0 UV-I 5 W/m² 2,7 °C 9,7 km/h (2 Bft)
25.11.2016 15:29 3,1 °C 3,1 °C 97 % 1015,7 hPa 0,0 mm 6,4 km/h (2 Bft) O-NO 71 ° 0 min 0,000 mm 0,0 UV-I 5 W/m² 2,7 °C 12,9 km/h (3 Bft)
25.11.2016 15:30 3,1 °C 3,1 °C 97 % 1015,7 hPa 0,0 mm 7,9 km/h (2 Bft) NO 37 ° 0 min 0,000 mm 0,0 UV-I 5 W/m² 2,7 °C 12,9 km/h (3 Bft)
25.11.2016 15:31 3,1 °C 3,1 °C 97 % 1015,7 hPa 0,0 mm 7,4 km/h (2 Bft) NO 56 ° 0 min 0,000 mm 0,0 UV-I 5 W/m² 2,7 °C 12,9 km/h (3 Bft)
25.11.2016 15:32 3,1 °C 3,1 °C 97 % 1015,7 hPa 0,0 mm 5,2 km/h (1 Bft) O-NO 59 ° 0 min 0,000 mm 0,0 UV-I 5 W/m² 2,7 °C 8,0 km/h (2 Bft)
25.11.2016 15:33 3,1 °C 3,1 °C 97 % 1015,7 hPa 0,0 mm 6,2 km/h (2 Bft) NO 51 ° 0 min 0,000 mm 0,0 UV-I 5 W/m² 2,7 °C 11,3 km/h (2 Bft)
25.11.2016 15:34 3,0 °C 3,1 °C 97 % 1015,7 hPa 0,0 mm 5,2 km/h (1 Bft) NO 56 ° 0 min 0,000 mm 0,0 UV-I 5 W/m² 2,6 °C 8,0 km/h (2 Bft)
25.11.2016 15:35 3,0 °C 3,1 °C 97 % 1015,7 hPa 0,0 mm 4,3 km/h (1 Bft) O-NO 58 ° 0 min 0,000 mm 0,0 UV-I 5 W/m² 2,6 °C 6,4 km/h (2 Bft)
25.11.2016 15:36 3,0 °C 3,1 °C 97 % 1015,7 hPa 0,0 mm 7,0 km/h (2 Bft) NO 42 ° 0 min 0,000 mm 0,0 UV-I 5 W/m² 2,6 °C 12,9 km/h (3 Bft)
25.11.2016 15:37 3,0 °C 3,1 °C 97 % 1015,7 hPa 0,0 mm 6,4 km/h (2 Bft) O-NO 61 ° 0 min 0,000 mm 0,0 UV-I 5 W/m² 2,6 °C 9,7 km/h (2 Bft)
25.11.2016 15:38 3,0 °C 3,0 °C 97 % 1015,8 hPa 0,0 mm 7,7 km/h (2 Bft) NO 42 ° 0 min 0,000 mm 0,0 UV-I 5 W/m² 2,6 °C 14,5 km/h (3 Bft)
25.11.2016 15:39 3,0 °C 3,0 °C 97 % 1015,8 hPa 0,0 mm 5,3 km/h (1 Bft) O-NO 67 ° 0 min 0,000 mm 0,0 UV-I 5 W/m² 2,6 °C 9,7 km/h (2 Bft)
25.11.2016 15:40 3,0 °C 3,0 °C 97 % 1015,8 hPa 0,0 mm 3,1 km/h (1 Bft) NO 36 ° 0 min 0,000 mm 0,0 UV-I 5 W/m² 2,6 °C 4,8 km/h (1 Bft)
25.11.2016 15:41 3,0 °C 3,0 °C 97 % 1015,8 hPa 0,0 mm 4,3 km/h (1 Bft) NO 39 ° 0 min 0,000 mm 0,0 UV-I 5 W/m² 2,6 °C 6,4 km/h (2 Bft)
25.11.2016 15:42 3,0 °C 3,0 °C 97 % 1015,8 hPa 0,0 mm 3,5 km/h (1 Bft) NO 36 ° 0 min 0,000 mm 0,0 UV-I 5 W/m² 2,6 °C 6,4 km/h (2 Bft)
25.11.2016 15:43 3,0 °C 3,0 °C 97 % 1015,8 hPa 0,0 mm 6,4 km/h (2 Bft) O-NO 75 ° 0 min 0,000 mm 0,0 UV-I 5 W/m² 2,6 °C 8,0 km/h (2 Bft)
25.11.2016 15:44 3,0 °C 3,0 °C 97 % 1015,8 hPa 0,0 mm 5,9 km/h (2 Bft) NO 53 ° 0 min 0,000 mm 0,0 UV-I 0 W/m² 2,6 °C 8,0 km/h (2 Bft)
25.11.2016 15:45 3,0 °C 3,0 °C 97 % 1015,8 hPa 0,0 mm 5,3 km/h (1 Bft) O-NO 75 ° 0 min 0,000 mm 0,0 UV-I 0 W/m² 2,6 °C 9,7 km/h (2 Bft)
25.11.2016 15:46 3,0 °C 3,0 °C 97 % 1015,8 hPa 0,0 mm 4,8 km/h (1 Bft) O-NO 68 ° 0 min 0,000 mm 0,0 UV-I 0 W/m² 2,6 °C 6,4 km/h (2 Bft)
25.11.2016 15:47 3,0 °C 3,0 °C 97 % 1015,8 hPa 0,0 mm 5,8 km/h (2 Bft) O-NO 76 ° 0 min 0,000 mm 0,0 UV-I 0 W/m² 2,6 °C 8,0 km/h (2 Bft)
25.11.2016 15:48 3,0 °C 3,1 °C 97 % 1015,8 hPa 0,0 mm 5,6 km/h (1 Bft) NO 37 ° 0 min 0,000 mm 0,0 UV-I 0 W/m² 2,6 °C 8,0 km/h (2 Bft)
25.11.2016 15:49 3,0 °C 3,0 °C 97 % 1015,8 hPa 0,0 mm 7,4 km/h (2 Bft) O-NO 74 ° 0 min 0,000 mm 0,0 UV-I 0 W/m² 2,6 °C 11,3 km/h (2 Bft)
25.11.2016 15:50 3,0 °C 3,0 °C 97 % 1015,8 hPa 0,0 mm 5,0 km/h (1 Bft) NO 46 ° 0 min 0,000 mm 0,0 UV-I 0 W/m² 2,6 °C 8,0 km/h (2 Bft)
25.11.2016 15:51 3,0 °C 3,0 °C 97 % 1015,8 hPa 0,0 mm 5,2 km/h (1 Bft) NO 43 ° 0 min 0,000 mm 0,0 UV-I 0 W/m² 2,6 °C 8,0 km/h (2 Bft)
25.11.2016 15:52 3,0 °C 3,0 °C 97 % 1015,8 hPa 0,0 mm 6,4 km/h (2 Bft) N-NO 33 ° 0 min 0,000 mm 0,0 UV-I 0 W/m² 2,6 °C 9,7 km/h (2 Bft)
25.11.2016 15:53 3,0 °C 3,0 °C 97 % 1015,8 hPa 0,0 mm 5,0 km/h (1 Bft) NO 35 ° 0 min 0,000 mm 0,0 UV-I 0 W/m² 2,6 °C 8,0 km/h (2 Bft)
25.11.2016 15:54 3,0 °C 3,0 °C 97 % 1015,8 hPa 0,0 mm 5,7 km/h (1 Bft) N-NO 29 ° 0 min 0,000 mm 0,0 UV-I 0 W/m² 2,6 °C 6,4 km/h (2 Bft)
25.11.2016 15:55 3,0 °C 3,0 °C 97 % 1015,8 hPa 0,0 mm 6,2 km/h (2 Bft) NO 50 ° 0 min 0,000 mm 0,0 UV-I 0 W/m² 2,6 °C 8,0 km/h (2 Bft)
25.11.2016 15:56 3,0 °C 3,0 °C 97 % 1015,8 hPa 0,0 mm 8,6 km/h (2 Bft) N-NO 24 ° 0 min 0,000 mm 0,0 UV-I 0 W/m² 2,6 °C 12,9 km/h (3 Bft)
25.11.2016 15:57 3,0 °C 3,0 °C 97 % 1015,8 hPa 0,0 mm 5,5 km/h (1 Bft) NO 50 ° 0 min 0,000 mm 0,0 UV-I 0 W/m² 2,6 °C 8,0 km/h (2 Bft)
25.11.2016 15:58 3,0 °C 3,0 °C 97 % 1015,8 hPa 0,0 mm 8,6 km/h (2 Bft) N-NO 17 ° 0 min 0,000 mm 0,0 UV-I 0 W/m² 2,6 °C 14,5 km/h (3 Bft)
25.11.2016 15:59 3,0 °C 3,0 °C 97 % 1015,9 hPa 0,0 mm 4,9 km/h (1 Bft) N-NO 30 ° 0 min 0,000 mm 0,0 UV-I 0 W/m² 2,6 °C 6,4 km/h (2 Bft)
25.11.2016 16:00 3,0 °C 3,0 °C 97 % 1015,9 hPa 0,0 mm 5,2 km/h (1 Bft) N-NW 340 ° 0 min 0,000 mm 0,0 UV-I 0 W/m² 2,6 °C 6,4 km/h (2 Bft)
25.11.2016 16:01 3,0 °C 3,0 °C 97 % 1015,9 hPa 0,0 mm 6,6 km/h (2 Bft) NO 47 ° 0 min 0,000 mm 0,0 UV-I 0 W/m² 2,6 °C 8,0 km/h (2 Bft)
25.11.2016 16:02 3,0 °C 3,0 °C 97 % 1016,0 hPa 0,0 mm 6,2 km/h (2 Bft) O-NO 72 ° 0 min 0,000 mm 0,0 UV-I 0 W/m² 2,6 °C 8,0 km/h (2 Bft)
25.11.2016 16:03 3,0 °C 3,0 °C 97 % 1015,9 hPa 0,0 mm 6,4 km/h (2 Bft) O-NO 76 ° 0 min 0,000 mm 0,0 UV-I 0 W/m² 2,6 °C 9,7 km/h (2 Bft)
25.11.2016 16:04 3,0 °C 3,0 °C 97 % 1015,9 hPa 0,0 mm 5,8 km/h (2 Bft) O-NO 62 ° 0 min 0,000 mm 0,0 UV-I 0 W/m² 2,6 °C 11,3 km/h (2 Bft)
25.11.2016 16:05 3,0 °C 3,0 °C 97 % 1015,9 hPa 0,0 mm 1,5 km/h (1 Bft) O-NO 57 ° 0 min 0,000 mm 0,0 UV-I 0 W/m² 2,6 °C 4,8 km/h (1 Bft)
25.11.2016 16:06 3,0 °C 3,0 °C 97 % 1016,0 hPa 0,0 mm 5,2 km/h (1 Bft) O 85 ° 0 min 0,000 mm 0,0 UV-I 0 W/m² 2,6 °C 9,7 km/h (2 Bft)
25.11.2016 16:07 3,0 °C 3,0 °C 97 % 1016,0 hPa 0,0 mm 6,1 km/h (2 Bft) O-NO 74 ° 0 min 0,000 mm 0,0 UV-I 0 W/m² 2,6 °C 8,0 km/h (2 Bft)
25.11.2016 16:08 3,0 °C 3,0 °C 97 % 1016,1 hPa 0,0 mm 4,4 km/h (1 Bft) O-SO 103 ° 0 min 0,000 mm 0,0 UV-I 0 W/m² 2,6 °C 9,7 km/h (2 Bft)
25.11.2016 16:09 3,0 °C 3,0 °C 97 % 1016,1 hPa 0,0 mm 3,4 km/h (1 Bft) O-NO 59 ° 0 min 0,000 mm 0,0 UV-I 0 W/m² 2,6 °C 6,4 km/h (2 Bft)
25.11.2016 16:10 3,0 °C 3,0 °C 97 % 1016,1 hPa 0,0 mm 4,8 km/h (1 Bft) N-NO 32 ° 0 min 0,000 mm 0,0 UV-I 0 W/m² 2,6 °C 8,0 km/h (2 Bft)
25.11.2016 16:11 3,0 °C 3,0 °C 97 % 1016,1 hPa 0,0 mm 4,4 km/h (1 Bft) NO 39 ° 0 min 0,000 mm 0,0 UV-I 0 W/m² 2,6 °C 6,4 km/h (2 Bft)
25.11.2016 16:12 3,0 °C 3,0 °C 97 % 1016,1 hPa 0,0 mm 4,4 km/h (1 Bft) NO 42 ° 0 min 0,000 mm 0,0 UV-I 0 W/m² 2,6 °C 6,4 km/h (2 Bft)
25.11.2016 16:13 3,0 °C 3,0 °C 97 % 1016,1 hPa 0,0 mm 4,0 km/h (1 Bft) NO 38 ° 0 min 0,000 mm 0,0 UV-I 0 W/m² 2,6 °C 6,4 km/h (2 Bft)
25.11.2016 16:14 3,0 °C 3,1 °C 97 % 1016,1 hPa 0,0 mm 5,6 km/h (1 Bft) O-NO 77 ° 0 min 0,000 mm 0,0 UV-I 0 W/m² 2,6 °C 9,7 km/h (2 Bft)
25.11.2016 16:15 3,0 °C 3,1 °C 97 % 1016,1 hPa 0,0 mm 6,2 km/h (2 Bft) NO 34 ° 0 min 0,000 mm 0,0 UV-I 0 W/m² 2,6 °C 9,7 km/h (2 Bft)
25.11.2016 16:16 3,0 °C 3,1 °C 97 % 1016,1 hPa 0,0 mm 6,0 km/h (2 Bft) O 80 ° 0 min 0,000 mm 0,0 UV-I 0 W/m² 2,6 °C 8,0 km/h (2 Bft)
25.11.2016 16:17 3,0 °C 3,0 °C 97 % 1016,2 hPa 0,0 mm 5,7 km/h (1 Bft) O-NO 69 ° 0 min 0,000 mm 0,0 UV-I 0 W/m² 2,6 °C 8,0 km/h (2 Bft)
25.11.2016 16:18 3,0 °C 3,1 °C 97 % 1016,2 hPa 0,0 mm 4,8 km/h (1 Bft) O-NO 71 ° 0 min 0,000 mm 0,0 UV-I 0 W/m² 2,6 °C 8,0 km/h (2 Bft)
25.11.2016 16:19 3,0 °C 3,0 °C 97 % 1016,1 hPa 0,0 mm 2,1 km/h (1 Bft) O-NO 71 ° 0 min 0,000 mm 0,0 UV-I 0 W/m² 2,6 °C 3,2 km/h (1 Bft)
25.11.2016 16:20 3,0 °C 3,1 °C 97 % 1016,2 hPa 0,0 mm 2,3 km/h (1 Bft) NO 46 ° 0 min 0,000 mm 0,0 UV-I 0 W/m² 2,6 °C 4,8 km/h (1 Bft)
25.11.2016 16:21 3,1 °C 3,1 °C 97 % 1016,2 hPa 0,0 mm 2,5 km/h (1 Bft) NO 46 ° 0 min 0,000 mm 0,0 UV-I 0 W/m² 2,7 °C 3,2 km/h (1 Bft)
25.11.2016 16:22 3,1 °C 3,1 °C 97 % 1016,2 hPa 0,0 mm 3,5 km/h (1 Bft) NO 45 ° 0 min 0,000 mm 0,0 UV-I 0 W/m² 2,7 °C 4,8 km/h (1 Bft)
25.11.2016 16:23 3,1 °C 3,1 °C 97 % 1016,3 hPa 0,0 mm 2,5 km/h (1 Bft) NO 45 ° 0 min 0,000 mm 0,0 UV-I 0 W/m² 2,7 °C 4,8 km/h (1 Bft)
25.11.2016 16:24 3,0 °C 3,1 °C 97 % 1016,2 hPa 0,0 mm 2,1 km/h (1 Bft) NO 47 ° 0 min 0,000 mm 0,0 UV-I 0 W/m² 2,6 °C 3,2 km/h (1 Bft)
25.11.2016 16:25 3,0 °C 3,1 °C 97 % 1016,2 hPa 0,0 mm 0,7 km/h (0 Bft) NO 47 ° 0 min 0,000 mm 0,0 UV-I 0 W/m² 2,6 °C 3,2 km/h (1 Bft)
25.11.2016 16:26 3,0 °C 3,0 °C 97 % 1016,2 hPa 0,0 mm 3,2 km/h (1 Bft) NO 47 ° 0 min 0,000 mm 0,0 UV-I 0 W/m² 2,6 °C 4,8 km/h (1 Bft)
25.11.2016 16:27 3,0 °C 3,1 °C 97 % 1016,3 hPa 0,0 mm 3,0 km/h (1 Bft) N-NO 22 ° 0 min 0,000 mm 0,0 UV-I 0 W/m² 2,6 °C 6,4 km/h (2 Bft)
25.11.2016 16:28 3,0 °C 3,1 °C 97 % 1016,3 hPa 0,0 mm 4,5 km/h (1 Bft) NO 55 ° 0 min 0,000 mm 0,0 UV-I 0 W/m² 2,6 °C 6,4 km/h (2 Bft)
25.11.2016 16:29 3,1 °C 3,1 °C 97 % 1016,3 hPa 0,0 mm 4,4 km/h (1 Bft) O 80 ° 0 min 0,000 mm 0,0 UV-I 0 W/m² 2,7 °C 6,4 km/h (2 Bft)
25.11.2016 16:30 3,1 °C 3,1 °C 97 % 1016,3 hPa 0,0 mm 4,0 km/h (1 Bft) O-NO 65 ° 0 min 0,000 mm 0,0 UV-I 0 W/m² 2,7 °C 6,4 km/h (2 Bft)
25.11.2016 16:31 3,0 °C 3,1 °C 97 % 1016,4 hPa 0,0 mm 4,7 km/h (1 Bft) O 84 ° 0 min 0,000 mm 0,0 UV-I 0 W/m² 2,6 °C 6,4 km/h (2 Bft)
25.11.2016 16:32 3,1 °C 3,1 °C 97 % 1016,4 hPa 0,0 mm 3,7 km/h (1 Bft) N 5 ° 0 min 0,000 mm 0,0 UV-I 0 W/m² 2,7 °C 4,8 km/h (1 Bft)
25.11.2016 16:33 3,1 °C 3,1 °C 97 % 1016,4 hPa 0,0 mm 3,2 km/h (1 Bft) N-NO 12 ° 0 min 0,000 mm 0,0 UV-I 0 W/m² 2,7 °C 4,8 km/h (1 Bft)
25.11.2016 16:34 3,0 °C 3,1 °C 97 % 1016,4 hPa 0,0 mm 3,8 km/h (1 Bft) O-NO 59 ° 0 min 0,000 mm 0,0 UV-I 0 W/m² 2,6 °C 4,8 km/h (1 Bft)
25.11.2016 16:35 3,1 °C 3,1 °C 97 % 1016,4 hPa 0,0 mm 5,0 km/h (1 Bft) O-NO 67 ° 0 min 0,000 mm 0,0 UV-I 0 W/m² 2,7 °C 6,4 km/h (2 Bft)
25.11.2016 16:36 3,0 °C 3,1 °C 97 % 1016,4 hPa 0,0 mm 2,0 km/h (1 Bft) O-NO 67 ° 0 min 0,000 mm 0,0 UV-I 0 W/m² 2,6 °C 3,2 km/h (1 Bft)
25.11.2016 16:37 3,0 °C 3,1 °C 97 % 1016,5 hPa 0,0 mm 4,2 km/h (1 Bft) NO 49 ° 0 min 0,000 mm 0,0 UV-I 0 W/m² 2,6 °C 6,4 km/h (2 Bft)
25.11.2016 16:38 3,1 °C 3,1 °C 97 % 1016,5 hPa 0,0 mm 1,0 km/h (0 Bft) NO 49 ° 0 min 0,000 mm 0,0 UV-I 0 W/m² 2,7 °C 3,2 km/h (1 Bft)
25.11.2016 16:39 3,0 °C 3,1 °C 97 % 1016,5 hPa 0,0 mm 1,5 km/h (1 Bft) NO 49 ° 0 min 0,000 mm 0,0 UV-I 0 W/m² 2,6 °C 3,2 km/h (1 Bft)
25.11.2016 16:40 3,0 °C 3,1 °C 97 % 1016,5 hPa 0,0 mm 3,6 km/h (1 Bft) NO 54 ° 0 min 0,000 mm 0,0 UV-I 0 W/m² 2,6 °C 4,8 km/h (1 Bft)
25.11.2016 16:41 3,1 °C 3,1 °C 97 % 1016,5 hPa 0,0 mm 3,7 km/h (1 Bft) N 360 ° 0 min 0,000 mm 0,0 UV-I 0 W/m² 2,7 °C 4,8 km/h (1 Bft)
25.11.2016 16:42 3,1 °C 3,1 °C 97 % 1016,5 hPa 0,0 mm 2,7 km/h (1 Bft) N 5 ° 0 min 0,000 mm 0,0 UV-I 0 W/m² 2,7 °C 4,8 km/h (1 Bft)
25.11.2016 16:43 3,1 °C 3,1 °C 97 % 1016,6 hPa 0,0 mm 3,0 km/h (1 Bft) N-NO 32 ° 0 min 0,000 mm 0,0 UV-I 0 W/m² 2,7 °C 4,8 km/h (1 Bft)
25.11.2016 16:44 3,0 °C 3,1 °C 97 % 1016,6 hPa 0,0 mm 1,8 km/h (1 Bft) N-NO 32 ° 0 min 0,000 mm 0,0 UV-I 0 W/m² 2,6 °C 3,2 km/h (1 Bft)
25.11.2016 16:45 3,1 °C 3,1 °C 97 % 1016,6 hPa 0,0 mm 2,2 km/h (1 Bft) NO 36 ° 0 min 0,000 mm 0,0 UV-I 0 W/m² 2,7 °C 3,2 km/h (1 Bft)
25.11.2016 16:46 3,1 °C 3,1 °C 97 % 1016,6 hPa 0,0 mm 3,6 km/h (1 Bft) NO 42 ° 0 min 0,000 mm 0,0 UV-I 0 W/m² 2,7 °C 6,4 km/h (2 Bft)
25.11.2016 16:47 3,1 °C 3,1 °C 97 % 1016,6 hPa 0,0 mm 3,7 km/h (1 Bft) NO 46 ° 0 min 0,000 mm 0,0 UV-I 0 W/m² 2,7 °C 4,8 km/h (1 Bft)
25.11.2016 16:48 3,0 °C 3,1 °C 97 % 1016,6 hPa 0,0 mm 2,1 km/h (1 Bft) NO 46 ° 0 min 0,000 mm 0,0 UV-I 0 W/m² 2,6 °C 3,2 km/h (1 Bft)
25.11.2016 16:49 3,0 °C 3,1 °C 97 % 1016,7 hPa 0,0 mm 2,1 km/h (1 Bft) NO 46 ° 0 min 0,000 mm 0,0 UV-I 0 W/m² 2,6 °C 3,2 km/h (1 Bft)
25.11.2016 16:50 3,1 °C 3,1 °C 97 % 1016,6 hPa 0,0 mm 1,7 km/h (1 Bft) NO 46 ° 0 min 0,000 mm 0,0 UV-I 0 W/m² 2,7 °C 3,2 km/h (1 Bft)
25.11.2016 16:51 3,0 °C 3,1 °C 97 % 1016,7 hPa 0,0 mm 1,5 km/h (1 Bft) NO 46 ° 0 min 0,000 mm 0,0 UV-I 0 W/m² 2,6 °C 3,2 km/h (1 Bft)
25.11.2016 16:52 3,0 °C 3,1 °C 97 % 1016,7 hPa 0,0 mm 1,0 km/h (0 Bft) NO 46 ° 0 min 0,000 mm 0,0 UV-I 0 W/m² 2,6 °C 3,2 km/h (1 Bft)
25.11.2016 16:53 3,0 °C 3,1 °C 97 % 1016,7 hPa 0,0 mm 0,7 km/h (0 Bft) NO 46 ° 0 min 0,000 mm 0,0 UV-I 0 W/m² 2,6 °C 1,6 km/h (1 Bft)
25.11.2016 16:54 3,0 °C 3,1 °C 97 % 1016,7 hPa 0,0 mm 0,1 km/h (0 Bft) NO 46 ° 0 min 0,000 mm 0,0 UV-I 0 W/m² 2,6 °C 1,6 km/h (1 Bft)
25.11.2016 16:55 3,0 °C 3,1 °C 97 % 1016,7 hPa 0,0 mm 1,0 km/h (0 Bft) NO 46 ° 0 min 0,000 mm 0,0 UV-I 0 W/m² 2,6 °C 1,6 km/h (1 Bft)
25.11.2016 16:56 3,1 °C 3,1 °C 97 % 1016,7 hPa 0,0 mm 0,9 km/h (0 Bft) NO 46 ° 0 min 0,000 mm 0,0 UV-I 0 W/m² 2,7 °C 1,6 km/h (1 Bft)
25.11.2016 16:57 3,1 °C 3,1 °C 97 % 1016,7 hPa 0,0 mm 0,1 km/h (0 Bft) NO 46 ° 0 min 0,000 mm 0,0 UV-I 0 W/m² 2,7 °C 1,6 km/h (1 Bft)
25.11.2016 16:58 3,0 °C 3,1 °C 97 % 1016,7 hPa 0,0 mm 0,0 km/h (0 Bft) NO 46 ° 0 min 0,000 mm 0,0 UV-I 0 W/m² 2,6 °C 0,0 km/h (0 Bft)
25.11.2016 16:59 3,0 °C 3,1 °C 97 % 1016,7 hPa 0,0 mm 0,0 km/h (0 Bft) NO 46 ° 0 min 0,000 mm 0,0 UV-I 0 W/m² 2,6 °C 0,0 km/h (0 Bft)
25.11.2016 17:00 3,1 °C 3,1 °C 97 % 1016,7 hPa 0,0 mm 0,0 km/h (0 Bft) NO 46 ° 0 min 0,000 mm 0,0 UV-I 0 W/m² 2,7 °C 0,0 km/h (0 Bft)
25.11.2016 17:01 3,1 °C 3,1 °C 97 % 1016,7 hPa 0,0 mm 0,2 km/h (0 Bft) NO 46 ° 0 min 0,000 mm 0,0 UV-I 0 W/m² 2,7 °C 1,6 km/h (1 Bft)
25.11.2016 17:02 3,0 °C 3,1 °C 97 % 1016,7 hPa 0,0 mm 1,1 km/h (1 Bft) NO 46 ° 0 min 0,000 mm 0,0 UV-I 0 W/m² 2,6 °C 1,6 km/h (1 Bft)
25.11.2016 17:03 3,0 °C 3,1 °C 97 % 1016,7 hPa 0,0 mm 1,8 km/h (1 Bft) NO 46 ° 0 min 0,000 mm 0,0 UV-I 0 W/m² 2,6 °C 3,2 km/h (1 Bft)
25.11.2016 17:04 3,1 °C 3,1 °C 97 % 1016,7 hPa 0,0 mm 1,1 km/h (1 Bft) NO 46 ° 0 min 0,000 mm 0,0 UV-I 0 W/m² 2,7 °C 1,6 km/h (1 Bft)
25.11.2016 17:05 3,0 °C 3,1 °C 97 % 1016,8 hPa 0,0 mm 1,2 km/h (1 Bft) NO 46 ° 0 min 0,000 mm 0,0 UV-I 0 W/m² 2,6 °C 1,6 km/h (1 Bft)
25.11.2016 17:06 3,0 °C 3,0 °C 97 % 1016,7 hPa 0,0 mm 0,3 km/h (0 Bft) NO 46 ° 0 min 0,000 mm 0,0 UV-I 0 W/m² 2,6 °C 1,6 km/h (1 Bft)
25.11.2016 17:07 3,0 °C 3,0 °C 97 % 1016,8 hPa 0,0 mm 0,1 km/h (0 Bft) NO 46 ° 0 min 0,000 mm 0,0 UV-I 0 W/m² 2,6 °C 1,6 km/h (1 Bft)
25.11.2016 17:08 3,0 °C 3,0 °C 97 % 1016,8 hPa 0,0 mm 1,5 km/h (1 Bft) NO 46 ° 0 min 0,000 mm 0,0 UV-I 0 W/m² 2,6 °C 3,2 km/h (1 Bft)
25.11.2016 17:09 3,0 °C 3,0 °C 97 % 1016,8 hPa 0,0 mm 1,7 km/h (1 Bft) NO 46 ° 0 min 0,000 mm 0,0 UV-I 0 W/m² 2,6 °C 3,2 km/h (1 Bft)
25.11.2016 17:10 3,0 °C 3,0 °C 97 % 1016,8 hPa 0,0 mm 0,7 km/h (0 Bft) NO 46 ° 0 min 0,000 mm 0,0 UV-I 0 W/m² 2,6 °C 1,6 km/h (1 Bft)
25.11.2016 17:11 3,0 °C 3,0 °C 97 % 1016,9 hPa 0,0 mm 0,3 km/h (0 Bft) NO 46 ° 0 min 0,000 mm 0,0 UV-I 0 W/m² 2,6 °C 1,6 km/h (1 Bft)
25.11.2016 17:12 3,0 °C 3,0 °C 97 % 1016,8 hPa 0,0 mm 0,3 km/h (0 Bft) NO 46 ° 0 min 0,000 mm 0,0 UV-I 0 W/m² 2,6 °C 1,6 km/h (1 Bft)
25.11.2016 17:13 3,0 °C 3,0 °C 97 % 1016,8 hPa 0,0 mm 0,2 km/h (0 Bft) NO 46 ° 0 min 0,000 mm 0,0 UV-I 0 W/m² 2,6 °C 1,6 km/h (1 Bft)
25.11.2016 17:14 3,0 °C 3,0 °C 97 % 1016,9 hPa 0,0 mm 0,1 km/h (0 Bft) NO 46 ° 0 min 0,000 mm 0,0 UV-I 0 W/m² 2,6 °C 1,6 km/h (1 Bft)
25.11.2016 17:15 3,0 °C 3,0 °C 97 % 1016,9 hPa 0,0 mm 0,0 km/h (0 Bft) NO 46 ° 0 min 0,000 mm 0,0 UV-I 0 W/m² 2,6 °C 0,0 km/h (0 Bft)
25.11.2016 17:16 3,0 °C 3,0 °C 97 % 1016,9 hPa 0,0 mm 0,0 km/h (0 Bft) NO 46 ° 0 min 0,000 mm 0,0 UV-I 0 W/m² 2,6 °C 0,0 km/h (0 Bft)
25.11.2016 17:17 3,0 °C 3,0 °C 97 % 1016,9 hPa 0,0 mm 0,1 km/h (0 Bft) NO 46 ° 0 min 0,000 mm 0,0 UV-I 0 W/m² 2,6 °C 1,6 km/h (1 Bft)
25.11.2016 17:18 3,0 °C 3,0 °C 97 % 1016,9 hPa 0,0 mm 1,0 km/h (0 Bft) NO 46 ° 0 min 0,000 mm 0,0 UV-I 0 W/m² 2,6 °C 1,6 km/h (1 Bft)
25.11.2016 17:19 3,0 °C 3,0 °C 97 % 1016,9 hPa 0,0 mm 0,9 km/h (0 Bft) NO 46 ° 0 min 0,000 mm 0,0 UV-I 0 W/m² 2,6 °C 1,6 km/h (1 Bft)
25.11.2016 17:20 3,0 °C 3,0 °C 97 % 1017,0 hPa 0,0 mm 0,1 km/h (0 Bft) NO 46 ° 0 min 0,000 mm 0,0 UV-I 0 W/m² 2,6 °C 1,6 km/h (1 Bft)
25.11.2016 17:21 3,0 °C 3,0 °C 97 % 1017,0 hPa 0,0 mm 0,2 km/h (0 Bft) NO 46 ° 0 min 0,000 mm 0,0 UV-I 0 W/m² 2,6 °C 1,6 km/h (1 Bft)
25.11.2016 17:22 3,0 °C 3,0 °C 97 % 1017,0 hPa 0,0 mm 0,0 km/h (0 Bft) NO 46 ° 0 min 0,000 mm 0,0 UV-I 0 W/m² 2,6 °C 0,0 km/h (0 Bft)
25.11.2016 17:23 3,0 °C 3,0 °C 97 % 1017,0 hPa 0,0 mm 0,0 km/h (0 Bft) NO 46 ° 0 min 0,000 mm 0,0 UV-I 0 W/m² 2,6 °C 0,0 km/h (0 Bft)
25.11.2016 17:24 3,0 °C 3,0 °C 97 % 1016,9 hPa 0,0 mm 0,0 km/h (0 Bft) NO 46 ° 0 min 0,000 mm 0,0 UV-I 0 W/m² 2,6 °C 0,0 km/h (0 Bft)
25.11.2016 17:25 3,0 °C 3,1 °C 97 % 1017,0 hPa 0,0 mm 0,0 km/h (0 Bft) NO 46 ° 0 min 0,000 mm 0,0 UV-I 0 W/m² 2,6 °C 0,0 km/h (0 Bft)
25.11.2016 17:26 3,0 °C 3,0 °C 97 % 1017,0 hPa 0,0 mm 0,0 km/h (0 Bft) NO 46 ° 0 min 0,000 mm 0,0 UV-I 0 W/m² 2,6 °C 0,0 km/h (0 Bft)
25.11.2016 17:27 3,0 °C 3,0 °C 97 % 1017,0 hPa 0,0 mm 0,0 km/h (0 Bft) NO 46 ° 0 min 0,000 mm 0,0 UV-I 0 W/m² 2,6 °C 0,0 km/h (0 Bft)
25.11.2016 17:28 3,0 °C 3,0 °C 97 % 1017,0 hPa 0,0 mm 0,0 km/h (0 Bft) NO 46 ° 0 min 0,000 mm 0,0 UV-I 0 W/m² 2,6 °C 0,0 km/h (0 Bft)
25.11.2016 17:29 3,0 °C 3,0 °C 97 % 1017,1 hPa 0,0 mm 0,1 km/h (0 Bft) NO 46 ° 0 min 0,000 mm 0,0 UV-I 0 W/m² 2,6 °C 1,6 km/h (1 Bft)
25.11.2016 17:30 3,0 °C 3,0 °C 97 % 1017,1 hPa 0,0 mm 0,0 km/h (0 Bft) NO 46 ° 0 min 0,000 mm 0,0 UV-I 0 W/m² 2,6 °C 0,0 km/h (0 Bft)
25.11.2016 17:31 3,0 °C 3,1 °C 97 % 1017,1 hPa 0,0 mm 0,6 km/h (0 Bft) NO 46 ° 0 min 0,000 mm 0,0 UV-I 0 W/m² 2,6 °C 1,6 km/h (1 Bft)
25.11.2016 17:32 3,0 °C 3,1 °C 97 % 1017,1 hPa 0,0 mm 0,3 km/h (0 Bft) NO 46 ° 0 min 0,000 mm 0,0 UV-I 0 W/m² 2,6 °C 1,6 km/h (1 Bft)
25.11.2016 17:33 3,0 °C 3,0 °C 97 % 1017,1 hPa 0,0 mm 0,0 km/h (0 Bft) NO 46 ° 0 min 0,000 mm 0,0 UV-I 0 W/m² 2,6 °C 0,0 km/h (0 Bft)
25.11.2016 17:34 3,0 °C 3,0 °C 97 % 1017,2 hPa 0,0 mm 0,0 km/h (0 Bft) NO 46 ° 0 min 0,000 mm 0,0 UV-I 0 W/m² 2,6 °C 0,0 km/h (0 Bft)
25.11.2016 17:35 3,0 °C 3,1 °C 97 % 1017,2 hPa 0,0 mm 0,1 km/h (0 Bft) NO 46 ° 0 min 0,000 mm 0,0 UV-I 0 W/m² 2,6 °C 1,6 km/h (1 Bft)
25.11.2016 17:36 3,0 °C 3,0 °C 97 % 1017,2 hPa 0,0 mm 0,9 km/h (0 Bft) NO 46 ° 0 min 0,000 mm 0,0 UV-I 0 W/m² 2,6 °C 1,6 km/h (1 Bft)
25.11.2016 17:37 3,0 °C 3,1 °C 97 % 1017,2 hPa 0,0 mm 1,3 km/h (1 Bft) NO 46 ° 0 min 0,000 mm 0,0 UV-I 0 W/m² 2,6 °C 1,6 km/h (1 Bft)
25.11.2016 17:38 3,0 °C 3,0 °C 97 % 1017,2 hPa 0,0 mm 1,7 km/h (1 Bft) NO 46 ° 0 min 0,000 mm 0,0 UV-I 0 W/m² 2,6 °C 3,2 km/h (1 Bft)
25.11.2016 17:39 3,0 °C 3,0 °C 97 % 1017,2 hPa 0,0 mm 1,6 km/h (1 Bft) NO 46 ° 0 min 0,000 mm 0,0 UV-I 0 W/m² 2,6 °C 3,2 km/h (1 Bft)
25.11.2016 17:40 3,0 °C 3,0 °C 97 % 1017,3 hPa 0,0 mm 2,0 km/h (1 Bft) NO 46 ° 0 min 0,000 mm 0,0 UV-I 0 W/m² 2,6 °C 3,2 km/h (1 Bft)
25.11.2016 17:41 3,0 °C 3,1 °C 97 % 1017,3 hPa 0,0 mm 1,1 km/h (1 Bft) NO 46 ° 0 min 0,000 mm 0,0 UV-I 0 W/m² 2,6 °C 1,6 km/h (1 Bft)
25.11.2016 17:42 3,1 °C 3,1 °C 97 % 1017,3 hPa 0,0 mm 1,2 km/h (1 Bft) NO 46 ° 0 min 0,000 mm 0,0 UV-I 0 W/m² 2,7 °C 3,2 km/h (1 Bft)
25.11.2016 17:43 3,0 °C 3,1 °C 97 % 1017,3 hPa 0,0 mm 0,3 km/h (0 Bft) NO 46 ° 0 min 0,000 mm 0,0 UV-I 0 W/m² 2,6 °C 1,6 km/h (1 Bft)
25.11.2016 17:44 3,0 °C 3,0 °C 97 % 1017,4 hPa 0,0 mm 0,1 km/h (0 Bft) NO 46 ° 0 min 0,000 mm 0,0 UV-I 0 W/m² 2,6 °C 1,6 km/h (1 Bft)
25.11.2016 17:45 3,0 °C 3,0 °C 97 % 1017,4 hPa 0,0 mm 0,7 km/h (0 Bft) NO 46 ° 0 min 0,000 mm 0,0 UV-I 0 W/m² 2,6 °C 3,2 km/h (1 Bft)
25.11.2016 17:46 3,0 °C 3,1 °C 97 % 1017,4 hPa 0,0 mm 2,9 km/h (1 Bft) NO 46 ° 0 min 0,000 mm 0,0 UV-I 0 W/m² 2,6 °C 4,8 km/h (1 Bft)
25.11.2016 17:47 3,1 °C 3,1 °C 97 % 1017,5 hPa 0,0 mm 3,2 km/h (1 Bft) NO 46 ° 0 min 0,000 mm 0,0 UV-I 0 W/m² 2,7 °C 4,8 km/h (1 Bft)
25.11.2016 17:48 3,0 °C 3,1 °C 97 % 1017,5 hPa 0,0 mm 3,1 km/h (1 Bft) NO 46 ° 0 min 0,000 mm 0,0 UV-I 0 W/m² 2,6 °C 4,8 km/h (1 Bft)
25.11.2016 17:49 3,0 °C 3,1 °C 97 % 1017,4 hPa 0,0 mm 2,4 km/h (1 Bft) NO 46 ° 0 min 0,000 mm 0,0 UV-I 0 W/m² 2,6 °C 4,8 km/h (1 Bft)
25.11.2016 17:50 3,1 °C 3,1 °C 97 % 1017,5 hPa 0,0 mm 2,0 km/h (1 Bft) NO 46 ° 0 min 0,000 mm 0,0 UV-I 0 W/m² 2,7 °C 3,2 km/h (1 Bft)
25.11.2016 17:51 3,1 °C 3,1 °C 97 % 1017,5 hPa 0,0 mm 1,9 km/h (1 Bft) NO 46 ° 0 min 0,000 mm 0,0 UV-I 0 W/m² 2,7 °C 3,2 km/h (1 Bft)
25.11.2016 17:52 3,1 °C 3,1 °C 97 % 1017,5 hPa 0,0 mm 1,7 km/h (1 Bft) NO 46 ° 0 min 0,000 mm 0,0 UV-I 0 W/m² 2,7 °C 3,2 km/h (1 Bft)
25.11.2016 17:53 3,0 °C 3,1 °C 97 % 1017,5 hPa 0,0 mm 1,1 km/h (1 Bft) NO 46 ° 0 min 0,000 mm 0,0 UV-I 0 W/m² 2,6 °C 1,6 km/h (1 Bft)
25.11.2016 17:54 3,1 °C 3,1 °C 97 % 1017,5 hPa 0,0 mm 0,6 km/h (0 Bft) NO 46 ° 0 min 0,000 mm 0,0 UV-I 0 W/m² 2,7 °C 1,6 km/h (1 Bft)
25.11.2016 17:55 3,1 °C 3,1 °C 97 % 1017,5 hPa 0,0 mm 0,6 km/h (0 Bft) NO 46 ° 0 min 0,000 mm 0,0 UV-I 0 W/m² 2,7 °C 1,6 km/h (1 Bft)
25.11.2016 17:56 3,1 °C 3,1 °C 97 % 1017,5 hPa 0,0 mm 0,3 km/h (0 Bft) NO 46 ° 0 min 0,000 mm 0,0 UV-I 0 W/m² 2,7 °C 1,6 km/h (1 Bft)
25.11.2016 17:57 3,1 °C 3,1 °C 97 % 1017,5 hPa 0,0 mm 1,8 km/h (1 Bft) NO 46 ° 0 min 0,000 mm 0,0 UV-I 0 W/m² 2,7 °C 3,2 km/h (1 Bft)
25.11.2016 17:58 3,1 °C 3,1 °C 97 % 1017,6 hPa 0,0 mm 1,8 km/h (1 Bft) NO 46 ° 0 min 0,000 mm 0,0 UV-I 0 W/m² 2,7 °C 3,2 km/h (1 Bft)
25.11.2016 17:59 3,1 °C 3,1 °C 97 % 1017,6 hPa 0,0 mm 0,5 km/h (0 Bft) NO 46 ° 0 min 0,000 mm 0,0 UV-I 0 W/m² 2,7 °C 1,6 km/h (1 Bft)
25.11.2016 18:00 3,1 °C 3,1 °C 97 % 1017,6 hPa 0,0 mm 0,9 km/h (0 Bft) NO 46 ° 0 min 0,000 mm 0,0 UV-I 0 W/m² 2,7 °C 1,6 km/h (1 Bft)
25.11.2016 18:01 3,1 °C 3,1 °C 97 % 1017,6 hPa 0,0 mm 0,9 km/h (0 Bft) NO 46 ° 0 min 0,000 mm 0,0 UV-I 0 W/m² 2,7 °C 3,2 km/h (1 Bft)
25.11.2016 18:02 3,0 °C 3,1 °C 97 % 1017,6 hPa 0,0 mm 1,8 km/h (1 Bft) NO 46 ° 0 min 0,000 mm 0,0 UV-I 0 W/m² 2,6 °C 3,2 km/h (1 Bft)
25.11.2016 18:03 3,1 °C 3,1 °C 97 % 1017,6 hPa 0,0 mm 0,1 km/h (0 Bft) NO 46 ° 0 min 0,000 mm 0,0 UV-I 0 W/m² 2,7 °C 1,6 km/h (1 Bft)
25.11.2016 18:04 3,0 °C 3,1 °C 97 % 1017,6 hPa 0,0 mm 0,1 km/h (0 Bft) NO 46 ° 0 min 0,000 mm 0,0 UV-I 0 W/m² 2,6 °C 1,6 km/h (1 Bft)
25.11.2016 18:05 3,1 °C 3,1 °C 97 % 1017,7 hPa 0,0 mm 0,1 km/h (0 Bft) NO 46 ° 0 min 0,000 mm 0,0 UV-I 0 W/m² 2,7 °C 1,6 km/h (1 Bft)
25.11.2016 18:06 3,1 °C 3,1 °C 97 % 1017,7 hPa 0,0 mm 0,6 km/h (0 Bft) NO 46 ° 0 min 0,000 mm 0,0 UV-I 0 W/m² 2,7 °C 1,6 km/h (1 Bft)
25.11.2016 18:07 3,1 °C 3,1 °C 97 % 1017,7 hPa 0,0 mm 1,1 km/h (1 Bft) NO 46 ° 0 min 0,000 mm 0,0 UV-I 0 W/m² 2,7 °C 3,2 km/h (1 Bft)
25.11.2016 18:08 3,1 °C 3,1 °C 97 % 1017,7 hPa 0,0 mm 1,7 km/h (1 Bft) NO 46 ° 0 min 0,000 mm 0,0 UV-I 0 W/m² 2,7 °C 3,2 km/h (1 Bft)
25.11.2016 18:09 3,1 °C 3,1 °C 97 % 1017,8 hPa 0,0 mm 1,8 km/h (1 Bft) NO 46 ° 0 min 0,000 mm 0,0 UV-I 0 W/m² 2,7 °C 3,2 km/h (1 Bft)
25.11.2016 18:10 3,1 °C 3,1 °C 97 % 1017,8 hPa 0,0 mm 2,3 km/h (1 Bft) NO 46 ° 0 min 0,000 mm 0,0 UV-I 0 W/m² 2,7 °C 3,2 km/h (1 Bft)
25.11.2016 18:11 3,1 °C 3,1 °C 97 % 1017,8 hPa 0,0 mm 1,7 km/h (1 Bft) NO 44 ° 0 min 0,000 mm 0,0 UV-I 0 W/m² 2,7 °C 3,2 km/h (1 Bft)
25.11.2016 18:12 3,1 °C 3,1 °C 97 % 1017,8 hPa 0,0 mm 1,4 km/h (1 Bft) NO 44 ° 0 min 0,000 mm 0,0 UV-I 0 W/m² 2,7 °C 1,6 km/h (1 Bft)
25.11.2016 18:13 3,1 °C 3,1 °C 97 % 1017,8 hPa 0,0 mm 1,3 km/h (1 Bft) NO 44 ° 0 min 0,000 mm 0,0 UV-I 0 W/m² 2,7 °C 3,2 km/h (1 Bft)
25.11.2016 18:14 3,1 °C 3,1 °C 97 % 1017,9 hPa 0,0 mm 1,1 km/h (1 Bft) NO 44 ° 0 min 0,000 mm 0,0 UV-I 0 W/m² 2,7 °C 1,6 km/h (1 Bft)
25.11.2016 18:15 3,1 °C 3,1 °C 97 % 1017,8 hPa 0,0 mm 0,7 km/h (0 Bft) NO 44 ° 0 min 0,000 mm 0,0 UV-I 0 W/m² 2,7 °C 1,6 km/h (1 Bft)
25.11.2016 18:16 3,1 °C 3,1 °C 97 % 1017,8 hPa 0,0 mm 1,7 km/h (1 Bft) NO 44 ° 0 min 0,000 mm 0,0 UV-I 0 W/m² 2,7 °C 3,2 km/h (1 Bft)
25.11.2016 18:17 3,1 °C 3,1 °C 97 % 1017,9 hPa 0,0 mm 2,9 km/h (1 Bft) NO 44 ° 0 min 0,000 mm 0,0 UV-I 0 W/m² 2,7 °C 4,8 km/h (1 Bft)
25.11.2016 18:18 3,1 °C 3,1 °C 97 % 1017,9 hPa 0,0 mm 2,4 km/h (1 Bft) NO 44 ° 0 min 0,000 mm 0,0 UV-I 0 W/m² 2,7 °C 3,2 km/h (1 Bft)
25.11.2016 18:19 3,1 °C 3,1 °C 97 % 1017,9 hPa 0,0 mm 1,1 km/h (1 Bft) NO 44 ° 0 min 0,000 mm 0,0 UV-I 0 W/m² 2,7 °C 1,6 km/h (1 Bft)
25.11.2016 18:20 3,1 °C 3,1 °C 97 % 1017,9 hPa 0,0 mm 1,3 km/h (1 Bft) NO 44 ° 0 min 0,000 mm 0,0 UV-I 0 W/m² 2,7 °C 3,2 km/h (1 Bft)
25.11.2016 18:21 3,1 °C 3,1 °C 97 % 1017,9 hPa 0,0 mm 1,7 km/h (1 Bft) NO 44 ° 0 min 0,000 mm 0,0 UV-I 0 W/m² 2,7 °C 4,8 km/h (1 Bft)
25.11.2016 18:22 3,1 °C 3,1 °C 97 % 1017,9 hPa 0,0 mm 2,8 km/h (1 Bft) NO 44 ° 0 min 0,000 mm 0,0 UV-I 0 W/m² 2,7 °C 3,2 km/h (1 Bft)
25.11.2016 18:23 3,1 °C 3,1 °C 97 % 1017,9 hPa 0,0 mm 3,0 km/h (1 Bft) NO 44 ° 0 min 0,000 mm 0,0 UV-I 0 W/m² 2,7 °C 3,2 km/h (1 Bft)
25.11.2016 18:24 3,1 °C 3,1 °C 97 % 1018,0 hPa 0,0 mm 1,4 km/h (1 Bft) NO 43 ° 0 min 0,000 mm 0,0 UV-I 0 W/m² 2,7 °C 3,2 km/h (1 Bft)
25.11.2016 18:25 3,1 °C 3,1 °C 97 % 1018,0 hPa 0,0 mm 3,6 km/h (1 Bft) NO 43 ° 0 min 0,000 mm 0,0 UV-I 0 W/m² 2,7 °C 4,8 km/h (1 Bft)
25.11.2016 18:26 3,1 °C 3,1 °C 97 % 1018,0 hPa 0,0 mm 2,7 km/h (1 Bft) NO 43 ° 0 min 0,000 mm 0,0 UV-I 0 W/m² 2,7 °C 3,2 km/h (1 Bft)
25.11.2016 18:27 3,1 °C 3,1 °C 97 % 1018,0 hPa 0,0 mm 1,9 km/h (1 Bft) NO 43 ° 0 min 0,000 mm 0,0 UV-I 0 W/m² 2,7 °C 3,2 km/h (1 Bft)
25.11.2016 18:28 3,1 °C 3,1 °C 97 % 1018,0 hPa 0,0 mm 0,9 km/h (0 Bft) NO 43 ° 0 min 0,000 mm 0,0 UV-I 0 W/m² 2,7 °C 1,6 km/h (1 Bft)
25.11.2016 18:29 3,1 °C 3,1 °C 97 % 1018,0 hPa 0,0 mm 1,9 km/h (1 Bft) NO 44 ° 0 min 0,000 mm 0,0 UV-I 0 W/m² 2,7 °C 3,2 km/h (1 Bft)
25.11.2016 18:30 3,1 °C 3,1 °C 97 % 1018,0 hPa 0,0 mm 1,9 km/h (1 Bft) NO 43 ° 0 min 0,000 mm 0,0 UV-I 0 W/m² 2,7 °C 3,2 km/h (1 Bft)
25.11.2016 18:31 3,1 °C 3,1 °C 97 % 1018,1 hPa 0,0 mm 1,7 km/h (1 Bft) NO 43 ° 0 min 0,000 mm 0,0 UV-I 0 W/m² 2,7 °C 3,2 km/h (1 Bft)
25.11.2016 18:32 3,1 °C 3,1 °C 97 % 1018,1 hPa 0,0 mm 1,3 km/h (1 Bft) NO 43 ° 0 min 0,000 mm 0,0 UV-I 0 W/m² 2,7 °C 1,6 km/h (1 Bft)
25.11.2016 18:33 3,1 °C 3,1 °C 97 % 1018,1 hPa 0,0 mm 1,5 km/h (1 Bft) NO 43 ° 0 min 0,000 mm 0,0 UV-I 0 W/m² 2,7 °C 3,2 km/h (1 Bft)
25.11.2016 18:34 3,1 °C 3,1 °C 97 % 1018,1 hPa 0,0 mm 2,9 km/h (1 Bft) NO 43 ° 0 min 0,000 mm 0,0 UV-I 0 W/m² 2,7 °C 4,8 km/h (1 Bft)
25.11.2016 18:35 3,1 °C 3,1 °C 97 % 1018,1 hPa 0,0 mm 2,7 km/h (1 Bft) NO 43 ° 0 min 0,000 mm 0,0 UV-I 0 W/m² 2,7 °C 3,2 km/h (1 Bft)
25.11.2016 18:36 3,1 °C 3,1 °C 97 % 1018,2 hPa 0,0 mm 3,4 km/h (1 Bft) NO 43 ° 0 min 0,000 mm 0,0 UV-I 0 W/m² 2,7 °C 4,8 km/h (1 Bft)
25.11.2016 18:37 3,1 °C 3,1 °C 97 % 1018,2 hPa 0,0 mm 2,9 km/h (1 Bft) NO 43 ° 0 min 0,000 mm 0,0 UV-I 0 W/m² 2,7 °C 4,8 km/h (1 Bft)
25.11.2016 18:38 3,1 °C 3,1 °C 97 % 1018,1 hPa 0,0 mm 2,5 km/h (1 Bft) NO 43 ° 0 min 0,000 mm 0,0 UV-I 0 W/m² 2,7 °C 3,2 km/h (1 Bft)
25.11.2016 18:39 3,0 °C 3,1 °C 97 % 1018,2 hPa 0,0 mm 1,1 km/h (1 Bft) NO 43 ° 0 min 0,000 mm 0,0 UV-I 0 W/m² 2,6 °C 1,6 km/h (1 Bft)
25.11.2016 18:40 3,1 °C 3,1 °C 97 % 1018,1 hPa 0,0 mm 0,3 km/h (0 Bft) NO 43 ° 0 min 0,000 mm 0,0 UV-I 0 W/m² 2,7 °C 1,6 km/h (1 Bft)
25.11.2016 18:41 3,1 °C 3,1 °C 97 % 1018,2 hPa 0,0 mm 0,1 km/h (0 Bft) NO 43 ° 0 min 0,000 mm 0,0 UV-I 0 W/m² 2,7 °C 1,6 km/h (1 Bft)
25.11.2016 18:42 3,1 °C 3,1 °C 97 % 1018,2 hPa 0,0 mm 0,2 km/h (0 Bft) NO 43 ° 0 min 0,000 mm 0,0 UV-I 0 W/m² 2,7 °C 1,6 km/h (1 Bft)
25.11.2016 18:43 3,1 °C 3,1 °C 97 % 1018,2 hPa 0,0 mm 1,0 km/h (0 Bft) NO 43 ° 0 min 0,000 mm 0,0 UV-I 0 W/m² 2,7 °C 1,6 km/h (1 Bft)
25.11.2016 18:44 3,1 °C 3,1 °C 97 % 1018,2 hPa 0,0 mm 0,5 km/h (0 Bft) NO 43 ° 0 min 0,000 mm 0,0 UV-I 0 W/m² 2,7 °C 1,6 km/h (1 Bft)
25.11.2016 18:45 3,1 °C 3,1 °C 97 % 1018,2 hPa 0,0 mm 0,0 km/h (0 Bft) NO 43 ° 0 min 0,000 mm 0,0 UV-I 0 W/m² 2,7 °C 0,0 km/h (0 Bft)
25.11.2016 18:46 3,1 °C 3,1 °C 97 % 1018,2 hPa 0,0 mm 0,0 km/h (0 Bft) NO 43 ° 0 min 0,000 mm 0,0 UV-I 0 W/m² 2,7 °C 0,0 km/h (0 Bft)
25.11.2016 18:47 3,1 °C 3,1 °C 97 % 1018,2 hPa 0,0 mm 0,0 km/h (0 Bft) NO 43 ° 0 min 0,000 mm 0,0 UV-I 0 W/m² 2,7 °C 0,0 km/h (0 Bft)
25.11.2016 18:48 3,1 °C 3,1 °C 97 % 1018,2 hPa 0,0 mm 0,0 km/h (0 Bft) NO 43 ° 0 min 0,000 mm 0,0 UV-I 0 W/m² 2,7 °C 0,0 km/h (0 Bft)
25.11.2016 18:49 3,1 °C 3,1 °C 97 % 1018,2 hPa 0,0 mm 0,0 km/h (0 Bft) NO 43 ° 0 min 0,000 mm 0,0 UV-I 0 W/m² 2,7 °C 0,0 km/h (0 Bft)
25.11.2016 18:50 3,1 °C 3,1 °C 97 % 1018,2 hPa 0,0 mm 0,0 km/h (0 Bft) NO 43 ° 0 min 0,000 mm 0,0 UV-I 0 W/m² 2,7 °C 0,0 km/h (0 Bft)
25.11.2016 18:51 3,1 °C 3,1 °C 97 % 1018,2 hPa 0,0 mm 0,0 km/h (0 Bft) NO 43 ° 0 min 0,000 mm 0,0 UV-I 0 W/m² 2,7 °C 0,0 km/h (0 Bft)
25.11.2016 18:52 3,1 °C 3,1 °C 97 % 1018,3 hPa 0,0 mm 0,4 km/h (0 Bft) NO 43 ° 0 min 0,000 mm 0,0 UV-I 0 W/m² 2,7 °C 1,6 km/h (1 Bft)
25.11.2016 18:53 3,1 °C 3,1 °C 97 % 1018,3 hPa 0,0 mm 0,9 km/h (0 Bft) NO 43 ° 0 min 0,000 mm 0,0 UV-I 0 W/m² 2,7 °C 1,6 km/h (1 Bft)
25.11.2016 18:54 3,1 °C 3,1 °C 97 % 1018,3 hPa 0,0 mm 0,7 km/h (0 Bft) NO 43 ° 0 min 0,000 mm 0,0 UV-I 0 W/m² 2,7 °C 1,6 km/h (1 Bft)
25.11.2016 18:55 3,1 °C 3,1 °C 97 % 1018,2 hPa 0,0 mm 0,1 km/h (0 Bft) NO 43 ° 0 min 0,000 mm 0,0 UV-I 0 W/m² 2,7 °C 1,6 km/h (1 Bft)
25.11.2016 18:56 3,1 °C 3,1 °C 97 % 1018,2 hPa 0,0 mm 0,0 km/h (0 Bft) NO 43 ° 0 min 0,000 mm 0,0 UV-I 0 W/m² 2,7 °C 0,0 km/h (0 Bft)
25.11.2016 18:57 3,1 °C 3,1 °C 97 % 1018,2 hPa 0,0 mm 0,1 km/h (0 Bft) NO 43 ° 0 min 0,000 mm 0,0 UV-I 0 W/m² 2,7 °C 1,6 km/h (1 Bft)
25.11.2016 18:58 3,1 °C 3,1 °C 97 % 1018,3 hPa 0,0 mm 0,7 km/h (0 Bft) NO 43 ° 0 min 0,000 mm 0,0 UV-I 0 W/m² 2,7 °C 1,6 km/h (1 Bft)
25.11.2016 18:59 3,1 °C 3,1 °C 97 % 1018,3 hPa 0,0 mm 0,2 km/h (0 Bft) NO 43 ° 0 min 0,000 mm 0,0 UV-I 0 W/m² 2,7 °C 1,6 km/h (1 Bft)
25.11.2016 19:00 3,1 °C 3,1 °C 97 % 1018,3 hPa 0,0 mm 0,9 km/h (0 Bft) NO 43 ° 0 min 0,000 mm 0,0 UV-I 0 W/m² 2,7 °C 1,6 km/h (1 Bft)
25.11.2016 19:01 3,1 °C 3,1 °C 97 % 1018,3 hPa 0,0 mm 1,1 km/h (1 Bft) NO 43 ° 0 min 0,000 mm 0,0 UV-I 0 W/m² 2,7 °C 1,6 km/h (1 Bft)
25.11.2016 19:02 3,1 °C 3,1 °C 97 % 1018,3 hPa 0,0 mm 0,0 km/h (0 Bft) NO 43 ° 0 min 0,000 mm 0,0 UV-I 0 W/m² 2,7 °C 0,0 km/h (0 Bft)
25.11.2016 19:03 3,1 °C 3,1 °C 97 % 1018,3 hPa 0,0 mm 0,0 km/h (0 Bft) NO 43 ° 0 min 0,000 mm 0,0 UV-I 0 W/m² 2,7 °C 0,0 km/h (0 Bft)
25.11.2016 19:04 3,1 °C 3,1 °C 97 % 1018,3 hPa 0,0 mm 0,0 km/h (0 Bft) NO 43 ° 0 min 0,000 mm 0,0 UV-I 0 W/m² 2,7 °C 0,0 km/h (0 Bft)
25.11.2016 19:05 3,1 °C 3,1 °C 97 % 1018,3 hPa 0,0 mm 1,3 km/h (1 Bft) NO 43 ° 0 min 0,000 mm 0,0 UV-I 0 W/m² 2,7 °C 1,6 km/h (1 Bft)
25.11.2016 19:06 3,1 °C 3,1 °C 97 % 1018,2 hPa 0,0 mm 0,9 km/h (0 Bft) NO 43 ° 0 min 0,000 mm 0,0 UV-I 0 W/m² 2,7 °C 1,6 km/h (1 Bft)
25.11.2016 19:07 3,1 °C 3,1 °C 97 % 1018,2 hPa 0,0 mm 1,1 km/h (1 Bft) NO 43 ° 0 min 0,000 mm 0,0 UV-I 0 W/m² 2,7 °C 1,6 km/h (1 Bft)
25.11.2016 19:08 3,1 °C 3,1 °C 97 % 1018,2 hPa 0,0 mm 0,5 km/h (0 Bft) NO 43 ° 0 min 0,000 mm 0,0 UV-I 0 W/m² 2,7 °C 1,6 km/h (1 Bft)
25.11.2016 19:09 3,1 °C 3,1 °C 97 % 1018,2 hPa 0,0 mm 0,4 km/h (0 Bft) NO 43 ° 0 min 0,000 mm 0,0 UV-I 0 W/m² 2,7 °C 1,6 km/h (1 Bft)
25.11.2016 19:10 3,1 °C 3,1 °C 97 % 1018,2 hPa 0,0 mm 0,3 km/h (0 Bft) NO 43 ° 0 min 0,000 mm 0,0 UV-I 0 W/m² 2,7 °C 1,6 km/h (1 Bft)
25.11.2016 19:11 3,1 °C 3,1 °C 97 % 1018,2 hPa 0,0 mm 0,0 km/h (0 Bft) NO 43 ° 0 min 0,000 mm 0,0 UV-I 0 W/m² 2,7 °C 0,0 km/h (0 Bft)
25.11.2016 19:12 3,1 °C 3,1 °C 97 % 1018,2 hPa 0,0 mm 0,0 km/h (0 Bft) NO 43 ° 0 min 0,000 mm 0,0 UV-I 0 W/m² 2,7 °C 0,0 km/h (0 Bft)
25.11.2016 19:13 3,1 °C 3,1 °C 97 % 1018,1 hPa 0,0 mm 0,1 km/h (0 Bft) NO 43 ° 0 min 0,000 mm 0,0 UV-I 0 W/m² 2,7 °C 1,6 km/h (1 Bft)
25.11.2016 19:14 3,1 °C 3,1 °C 97 % 1018,2 hPa 0,0 mm 0,9 km/h (0 Bft) NO 43 ° 0 min 0,000 mm 0,0 UV-I 0 W/m² 2,7 °C 1,6 km/h (1 Bft)
25.11.2016 19:15 3,1 °C 3,1 °C 97 % 1018,2 hPa 0,0 mm 1,1 km/h (1 Bft) NO 43 ° 0 min 0,000 mm 0,0 UV-I 0 W/m² 2,7 °C 1,6 km/h (1 Bft)
25.11.2016 19:16 3,1 °C 3,1 °C 97 % 1018,2 hPa 0,0 mm 0,2 km/h (0 Bft) NO 43 ° 0 min 0,000 mm 0,0 UV-I 0 W/m² 2,7 °C 1,6 km/h (1 Bft)
25.11.2016 19:17 3,1 °C 3,1 °C 97 % 1018,2 hPa 0,0 mm 0,1 km/h (0 Bft) NO 43 ° 0 min 0,000 mm 0,0 UV-I 0 W/m² 2,7 °C 1,6 km/h (1 Bft)
25.11.2016 19:18 3,1 °C 3,1 °C 97 % 1018,2 hPa 0,0 mm 0,2 km/h (0 Bft) NO 43 ° 0 min 0,000 mm 0,0 UV-I 0 W/m² 2,7 °C 1,6 km/h (1 Bft)
25.11.2016 19:19 3,1 °C 3,1 °C 97 % 1018,2 hPa 0,0 mm 0,0 km/h (0 Bft) NO 43 ° 0 min 0,000 mm 0,0 UV-I 0 W/m² 2,7 °C 0,0 km/h (0 Bft)
25.11.2016 19:20 3,1 °C 3,1 °C 97 % 1018,2 hPa 0,0 mm 0,0 km/h (0 Bft) NO 43 ° 0 min 0,000 mm 0,0 UV-I 0 W/m² 2,7 °C 0,0 km/h (0 Bft)
25.11.2016 19:21 3,1 °C 3,1 °C 97 % 1018,2 hPa 0,0 mm 0,0 km/h (0 Bft) NO 43 ° 0 min 0,000 mm 0,0 UV-I 0 W/m² 2,7 °C 0,0 km/h (0 Bft)
25.11.2016 19:22 3,1 °C 3,1 °C 97 % 1018,2 hPa 0,0 mm 0,0 km/h (0 Bft) NO 43 ° 0 min 0,000 mm 0,0 UV-I 0 W/m² 2,7 °C 0,0 km/h (0 Bft)
25.11.2016 19:23 3,1 °C 3,1 °C 97 % 1018,3 hPa 0,0 mm 0,0 km/h (0 Bft) NO 43 ° 0 min 0,000 mm 0,0 UV-I 0 W/m² 2,7 °C 0,0 km/h (0 Bft)
25.11.2016 19:24 3,1 °C 3,1 °C 97 % 1018,3 hPa 0,0 mm 0,2 km/h (0 Bft) NO 43 ° 0 min 0,000 mm 0,0 UV-I 0 W/m² 2,7 °C 1,6 km/h (1 Bft)
25.11.2016 19:25 3,1 °C 3,1 °C 97 % 1018,2 hPa 0,0 mm 0,6 km/h (0 Bft) NO 43 ° 0 min 0,000 mm 0,0 UV-I 0 W/m² 2,7 °C 1,6 km/h (1 Bft)
25.11.2016 19:26 3,1 °C 3,1 °C 97 % 1018,2 hPa 0,0 mm 1,1 km/h (1 Bft) NO 43 ° 0 min 0,000 mm 0,0 UV-I 0 W/m² 2,7 °C 1,6 km/h (1 Bft)
25.11.2016 19:27 3,1 °C 3,1 °C 97 % 1018,2 hPa 0,0 mm 0,8 km/h (0 Bft) NO 43 ° 0 min 0,000 mm 0,0 UV-I 0 W/m² 2,7 °C 1,6 km/h (1 Bft)
25.11.2016 19:28 3,1 °C 3,1 °C 97 % 1018,2 hPa 0,0 mm 1,1 km/h (1 Bft) NO 43 ° 0 min 0,000 mm 0,0 UV-I 0 W/m² 2,7 °C 1,6 km/h (1 Bft)
25.11.2016 19:29 3,1 °C 3,1 °C 97 % 1018,2 hPa 0,0 mm 1,2 km/h (1 Bft) NO 43 ° 0 min 0,000 mm 0,0 UV-I 0 W/m² 2,7 °C 1,6 km/h (1 Bft)
25.11.2016 19:30 3,1 °C 3,1 °C 97 % 1018,2 hPa 0,0 mm 0,4 km/h (0 Bft) NO 43 ° 0 min 0,000 mm 0,0 UV-I 0 W/m² 2,7 °C 1,6 km/h (1 Bft)
25.11.2016 19:31 3,1 °C 3,1 °C 97 % 1018,2 hPa 0,0 mm 0,8 km/h (0 Bft) NO 43 ° 0 min 0,000 mm 0,0 UV-I 0 W/m² 2,7 °C 1,6 km/h (1 Bft)
25.11.2016 19:32 3,1 °C 3,1 °C 97 % 1018,2 hPa 0,0 mm 0,1 km/h (0 Bft) NO 43 ° 0 min 0,000 mm 0,0 UV-I 0 W/m² 2,7 °C 1,6 km/h (1 Bft)
25.11.2016 19:33 3,1 °C 3,1 °C 97 % 1018,2 hPa 0,0 mm 0,3 km/h (0 Bft) NO 43 ° 0 min 0,000 mm 0,0 UV-I 0 W/m² 2,7 °C 1,6 km/h (1 Bft)
25.11.2016 19:34 3,1 °C 3,1 °C 97 % 1018,2 hPa 0,0 mm 0,8 km/h (0 Bft) NO 43 ° 0 min 0,000 mm 0,0 UV-I 0 W/m² 2,7 °C 1,6 km/h (1 Bft)
25.11.2016 19:35 3,1 °C 3,1 °C 97 % 1018,2 hPa 0,0 mm 1,0 km/h (0 Bft) NO 43 ° 0 min 0,000 mm 0,0 UV-I 0 W/m² 2,7 °C 1,6 km/h (1 Bft)
25.11.2016 19:36 3,1 °C 3,1 °C 97 % 1018,2 hPa 0,0 mm 1,0 km/h (0 Bft) NO 43 ° 0 min 0,000 mm 0,0 UV-I 0 W/m² 2,7 °C 1,6 km/h (1 Bft)
25.11.2016 19:37 3,1 °C 3,1 °C 97 % 1018,2 hPa 0,0 mm 1,0 km/h (0 Bft) NO 43 ° 0 min 0,000 mm 0,0 UV-I 0 W/m² 2,7 °C 1,6 km/h (1 Bft)
25.11.2016 19:38 3,1 °C 3,1 °C 97 % 1018,3 hPa 0,0 mm 0,1 km/h (0 Bft) NO 43 ° 0 min 0,000 mm 0,0 UV-I 0 W/m² 2,7 °C 1,6 km/h (1 Bft)
25.11.2016 19:39 3,1 °C 3,1 °C 97 % 1018,2 hPa 0,0 mm 0,0 km/h (0 Bft) NO 43 ° 0 min 0,000 mm 0,0 UV-I 0 W/m² 2,7 °C 0,0 km/h (0 Bft)
25.11.2016 19:40 3,1 °C 3,1 °C 97 % 1018,2 hPa 0,0 mm 0,0 km/h (0 Bft) NO 43 ° 0 min 0,000 mm 0,0 UV-I 0 W/m² 2,7 °C 0,0 km/h (0 Bft)
25.11.2016 19:41 3,1 °C 3,1 °C 97 % 1018,2 hPa 0,0 mm 0,0 km/h (0 Bft) NO 43 ° 0 min 0,000 mm 0,0 UV-I 0 W/m² 2,7 °C 0,0 km/h (0 Bft)
25.11.2016 19:42 3,1 °C 3,1 °C 97 % 1018,2 hPa 0,0 mm 0,0 km/h (0 Bft) NO 43 ° 0 min 0,000 mm 0,0 UV-I 0 W/m² 2,7 °C 0,0 km/h (0 Bft)
25.11.2016 19:43 3,1 °C 3,1 °C 97 % 1018,2 hPa 0,0 mm 0,0 km/h (0 Bft) NO 43 ° 0 min 0,000 mm 0,0 UV-I 0 W/m² 2,7 °C 0,0 km/h (0 Bft)
25.11.2016 19:44 3,1 °C 3,1 °C 97 % 1018,2 hPa 0,0 mm 0,0 km/h (0 Bft) NO 43 ° 0 min 0,000 mm 0,0 UV-I 0 W/m² 2,7 °C 0,0 km/h (0 Bft)
25.11.2016 19:45 3,1 °C 3,1 °C 97 % 1018,2 hPa 0,0 mm 0,6 km/h (0 Bft) NO 43 ° 0 min 0,000 mm 0,0 UV-I 0 W/m² 2,7 °C 1,6 km/h (1 Bft)
25.11.2016 19:46 3,1 °C 3,1 °C 97 % 1018,2 hPa 0,0 mm 1,9 km/h (1 Bft) NO 43 ° 0 min 0,000 mm 0,0 UV-I 0 W/m² 2,7 °C 3,2 km/h (1 Bft)
25.11.2016 19:47 3,1 °C 3,1 °C 97 % 1018,2 hPa 0,0 mm 1,5 km/h (1 Bft) NO 43 ° 0 min 0,000 mm 0,0 UV-I 0 W/m² 2,7 °C 3,2 km/h (1 Bft)
25.11.2016 19:48 3,1 °C 3,1 °C 97 % 1018,2 hPa 0,0 mm 1,9 km/h (1 Bft) NO 43 ° 0 min 0,000 mm 0,0 UV-I 0 W/m² 2,7 °C 3,2 km/h (1 Bft)
25.11.2016 19:49 3,1 °C 3,1 °C 97 % 1018,2 hPa 0,0 mm 0,9 km/h (0 Bft) NO 43 ° 0 min 0,000 mm 0,0 UV-I 0 W/m² 2,7 °C 1,6 km/h (1 Bft)
25.11.2016 19:50 3,1 °C 3,1 °C 97 % 1018,2 hPa 0,0 mm 1,3 km/h (1 Bft) NO 43 ° 0 min 0,000 mm 0,0 UV-I 0 W/m² 2,7 °C 1,6 km/h (1 Bft)
25.11.2016 19:51 3,1 °C 3,1 °C 97 % 1018,2 hPa 0,0 mm 1,3 km/h (1 Bft) NO 43 ° 0 min 0,000 mm 0,0 UV-I 0 W/m² 2,7 °C 1,6 km/h (1 Bft)
25.11.2016 19:52 3,1 °C 3,1 °C 97 % 1018,2 hPa 0,0 mm 0,8 km/h (0 Bft) NO 43 ° 0 min 0,000 mm 0,0 UV-I 0 W/m² 2,7 °C 1,6 km/h (1 Bft)
25.11.2016 19:53 3,1 °C 3,1 °C 97 % 1018,2 hPa 0,0 mm 0,6 km/h (0 Bft) NO 43 ° 0 min 0,000 mm 0,0 UV-I 0 W/m² 2,7 °C 1,6 km/h (1 Bft)
25.11.2016 19:54 3,1 °C 3,1 °C 97 % 1018,3 hPa 0,0 mm 0,0 km/h (0 Bft) NO 43 ° 0 min 0,000 mm 0,0 UV-I 0 W/m² 2,7 °C 0,0 km/h (0 Bft)
25.11.2016 19:55 3,1 °C 3,1 °C 97 % 1018,2 hPa 0,0 mm 0,0 km/h (0 Bft) NO 43 ° 0 min 0,000 mm 0,0 UV-I 0 W/m² 2,7 °C 0,0 km/h (0 Bft)
25.11.2016 19:56 3,1 °C 3,1 °C 97 % 1018,2 hPa 0,0 mm 0,0 km/h (0 Bft) NO 43 ° 0 min 0,000 mm 0,0 UV-I 0 W/m² 2,7 °C 0,0 km/h (0 Bft)
25.11.2016 19:57 3,1 °C 3,1 °C 97 % 1018,1 hPa 0,0 mm 0,0 km/h (0 Bft) NO 43 ° 0 min 0,000 mm 0,0 UV-I 0 W/m² 2,7 °C 0,0 km/h (0 Bft)
25.11.2016 19:58 3,1 °C 3,1 °C 97 % 1018,1 hPa 0,0 mm 0,0 km/h (0 Bft) NO 43 ° 0 min 0,000 mm 0,0 UV-I 0 W/m² 2,7 °C 0,0 km/h (0 Bft)
25.11.2016 19:59 3,1 °C 3,1 °C 97 % 1018,2 hPa 0,0 mm 0,0 km/h (0 Bft) NO 43 ° 0 min 0,000 mm 0,0 UV-I 0 W/m² 2,7 °C 0,0 km/h (0 Bft)
25.11.2016 20:00 3,1 °C 3,1 °C 97 % 1018,2 hPa 0,0 mm 0,0 km/h (0 Bft) NO 43 ° 0 min 0,000 mm 0,0 UV-I 0 W/m² 2,7 °C 0,0 km/h (0 Bft)
25.11.2016 20:01 3,1 °C 3,1 °C 97 % 1018,2 hPa 0,0 mm 0,0 km/h (0 Bft) NO 43 ° 0 min 0,000 mm 0,0 UV-I 0 W/m² 2,7 °C 0,0 km/h (0 Bft)
25.11.2016 20:02 3,1 °C 3,1 °C 97 % 1018,2 hPa 0,2 mm 0,0 km/h (0 Bft) NO 43 ° 0 min 0,000 mm 0,0 UV-I 0 W/m² 2,7 °C 0,0 km/h (0 Bft)
25.11.2016 20:03 3,1 °C 3,1 °C 97 % 1018,2 hPa 0,0 mm 0,0 km/h (0 Bft) NO 43 ° 0 min 0,000 mm 0,0 UV-I 0 W/m² 2,7 °C 0,0 km/h (0 Bft)
25.11.2016 20:04 3,1 °C 3,1 °C 97 % 1018,2 hPa 0,0 mm 0,0 km/h (0 Bft) NO 43 ° 0 min 0,000 mm 0,0 UV-I 0 W/m² 2,7 °C 0,0 km/h (0 Bft)
25.11.2016 20:05 3,1 °C 3,1 °C 97 % 1018,1 hPa 0,0 mm 0,0 km/h (0 Bft) NO 43 ° 0 min 0,000 mm 0,0 UV-I 0 W/m² 2,7 °C 0,0 km/h (0 Bft)
25.11.2016 20:06 3,1 °C 3,2 °C 97 % 1018,1 hPa 0,0 mm 0,0 km/h (0 Bft) NO 43 ° 0 min 0,000 mm 0,0 UV-I 0 W/m² 2,7 °C 0,0 km/h (0 Bft)
25.11.2016 20:07 3,1 °C 3,1 °C 97 % 1018,1 hPa 0,0 mm 0,0 km/h (0 Bft) NO 43 ° 0 min 0,000 mm 0,0 UV-I 0 W/m² 2,7 °C 0,0 km/h (0 Bft)
25.11.2016 20:08 3,1 °C 3,2 °C 97 % 1018,1 hPa 0,0 mm 0,0 km/h (0 Bft) NO 43 ° 0 min 0,000 mm 0,0 UV-I 0 W/m² 2,7 °C 0,0 km/h (0 Bft)
25.11.2016 20:09 3,1 °C 3,1 °C 97 % 1018,2 hPa 0,0 mm 0,0 km/h (0 Bft) NO 43 ° 0 min 0,000 mm 0,0 UV-I 0 W/m² 2,7 °C 0,0 km/h (0 Bft)
25.11.2016 20:10 3,2 °C 3,2 °C 97 % 1018,1 hPa 0,0 mm 0,0 km/h (0 Bft) NO 43 ° 0 min 0,000 mm 0,0 UV-I 0 W/m² 2,8 °C 0,0 km/h (0 Bft)
25.11.2016 20:11 3,1 °C 3,2 °C 97 % 1018,1 hPa 0,0 mm 0,0 km/h (0 Bft) NO 43 ° 0 min 0,000 mm 0,0 UV-I 0 W/m² 2,7 °C 0,0 km/h (0 Bft)
25.11.2016 20:12 3,1 °C 3,2 °C 97 % 1018,1 hPa 0,0 mm 0,0 km/h (0 Bft) NO 43 ° 0 min 0,000 mm 0,0 UV-I 0 W/m² 2,7 °C 0,0 km/h (0 Bft)
25.11.2016 20:13 3,1 °C 3,1 °C 97 % 1018,2 hPa 0,0 mm 0,0 km/h (0 Bft) NO 43 ° 0 min 0,000 mm 0,0 UV-I 0 W/m² 2,7 °C 0,0 km/h (0 Bft)
25.11.2016 20:14 3,2 °C 3,2 °C 97 % 1018,1 hPa 0,0 mm 0,0 km/h (0 Bft) NO 43 ° 0 min 0,000 mm 0,0 UV-I 0 W/m² 2,8 °C 0,0 km/h (0 Bft)
25.11.2016 20:15 3,1 °C 3,2 °C 97 % 1018,2 hPa 0,0 mm 0,0 km/h (0 Bft) NO 43 ° 0 min 0,000 mm 0,0 UV-I 0 W/m² 2,7 °C 0,0 km/h (0 Bft)
25.11.2016 20:16 3,1 °C 3,2 °C 97 % 1018,1 hPa 0,0 mm 0,0 km/h (0 Bft) NO 43 ° 0 min 0,000 mm 0,0 UV-I 0 W/m² 2,7 °C 0,0 km/h (0 Bft)
25.11.2016 20:17 3,1 °C 3,1 °C 97 % 1018,2 hPa 0,0 mm 0,0 km/h (0 Bft) NO 43 ° 0 min 0,000 mm 0,0 UV-I 0 W/m² 2,7 °C 0,0 km/h (0 Bft)
25.11.2016 20:18 3,2 °C 3,2 °C 97 % 1018,2 hPa 0,0 mm 0,0 km/h (0 Bft) NO 43 ° 0 min 0,000 mm 0,0 UV-I 0 W/m² 2,8 °C 0,0 km/h (0 Bft)
25.11.2016 20:19 3,1 °C 3,2 °C 97 % 1018,2 hPa 0,0 mm 0,0 km/h (0 Bft) NO 43 ° 0 min 0,000 mm 0,0 UV-I 0 W/m² 2,7 °C 0,0 km/h (0 Bft)
25.11.2016 20:20 3,2 °C 3,2 °C 97 % 1018,1 hPa 0,0 mm 0,0 km/h (0 Bft) NO 43 ° 0 min 0,000 mm 0,0 UV-I 0 W/m² 2,8 °C 0,0 km/h (0 Bft)
25.11.2016 20:21 3,1 °C 3,2 °C 97 % 1018,2 hPa 0,0 mm 0,0 km/h (0 Bft) NO 43 ° 0 min 0,000 mm 0,0 UV-I 0 W/m² 2,7 °C 0,0 km/h (0 Bft)
25.11.2016 20:22 3,1 °C 3,2 °C 97 % 1018,2 hPa 0,0 mm 0,0 km/h (0 Bft) NO 43 ° 0 min 0,000 mm 0,0 UV-I 0 W/m² 2,7 °C 0,0 km/h (0 Bft)
25.11.2016 20:23 3,1 °C 3,1 °C 97 % 1018,2 hPa 0,0 mm 0,0 km/h (0 Bft) NO 43 ° 0 min 0,000 mm 0,0 UV-I 0 W/m² 2,7 °C 0,0 km/h (0 Bft)
25.11.2016 20:24 3,1 °C 3,2 °C 97 % 1018,2 hPa 0,0 mm 0,0 km/h (0 Bft) NO 43 ° 0 min 0,000 mm 0,0 UV-I 0 W/m² 2,7 °C 0,0 km/h (0 Bft)
25.11.2016 20:25 3,2 °C 3,2 °C 97 % 1018,2 hPa 0,0 mm 0,0 km/h (0 Bft) NO 43 ° 0 min 0,000 mm 0,0 UV-I 0 W/m² 2,8 °C 0,0 km/h (0 Bft)
25.11.2016 20:26 3,1 °C 3,2 °C 97 % 1018,2 hPa 0,0 mm 0,0 km/h (0 Bft) NO 43 ° 0 min 0,000 mm 0,0 UV-I 0 W/m² 2,7 °C 0,0 km/h (0 Bft)
25.11.2016 20:27 3,1 °C 3,1 °C 97 % 1018,2 hPa 0,0 mm 0,0 km/h (0 Bft) NO 43 ° 0 min 0,000 mm 0,0 UV-I 0 W/m² 2,7 °C 0,0 km/h (0 Bft)
25.11.2016 20:28 3,1 °C 3,2 °C 97 % 1018,1 hPa 0,0 mm 0,0 km/h (0 Bft) NO 43 ° 0 min 0,000 mm 0,0 UV-I 0 W/m² 2,7 °C 0,0 km/h (0 Bft)
25.11.2016 20:29 3,1 °C 3,2 °C 97 % 1018,2 hPa 0,0 mm 0,0 km/h (0 Bft) NO 43 ° 0 min 0,000 mm 0,0 UV-I 0 W/m² 2,7 °C 0,0 km/h (0 Bft)
25.11.2016 20:30 3,1 °C 3,2 °C 97 % 1018,2 hPa 0,0 mm 0,0 km/h (0 Bft) NO 43 ° 0 min 0,000 mm 0,0 UV-I 0 W/m² 2,7 °C 0,0 km/h (0 Bft)
25.11.2016 20:31 3,2 °C 3,2 °C 97 % 1018,0 hPa 0,0 mm 0,0 km/h (0 Bft) NO 43 ° 0 min 0,000 mm 0,0 UV-I 0 W/m² 2,8 °C 0,0 km/h (0 Bft)
25.11.2016 20:32 3,1 °C 3,2 °C 97 % 1018,0 hPa 0,0 mm 0,0 km/h (0 Bft) NO 43 ° 0 min 0,000 mm 0,0 UV-I 0 W/m² 2,7 °C 0,0 km/h (0 Bft)
25.11.2016 20:33 3,1 °C 3,1 °C 97 % 1018,0 hPa 0,0 mm 0,0 km/h (0 Bft) NO 43 ° 0 min 0,000 mm 0,0 UV-I 0 W/m² 2,7 °C 0,0 km/h (0 Bft)
25.11.2016 20:34 3,1 °C 3,2 °C 97 % 1018,0 hPa 0,0 mm 0,0 km/h (0 Bft) NO 43 ° 0 min 0,000 mm 0,0 UV-I 0 W/m² 2,7 °C 0,0 km/h (0 Bft)
25.11.2016 20:35 3,1 °C 3,2 °C 97 % 1018,0 hPa 0,0 mm 0,0 km/h (0 Bft) NO 43 ° 0 min 0,000 mm 0,0 UV-I 0 W/m² 2,7 °C 0,0 km/h (0 Bft)
25.11.2016 20:36 3,1 °C 3,2 °C 97 % 1018,0 hPa 0,0 mm 0,0 km/h (0 Bft) NO 43 ° 0 min 0,000 mm 0,0 UV-I 0 W/m² 2,7 °C 0,0 km/h (0 Bft)
25.11.2016 20:37 3,1 °C 3,1 °C 97 % 1018,0 hPa 0,0 mm 0,0 km/h (0 Bft) NO 43 ° 0 min 0,000 mm 0,0 UV-I 0 W/m² 2,7 °C 0,0 km/h (0 Bft)
25.11.2016 20:38 3,1 °C 3,2 °C 97 % 1018,0 hPa 0,0 mm 0,0 km/h (0 Bft) NO 43 ° 0 min 0,000 mm 0,0 UV-I 0 W/m² 2,7 °C 0,0 km/h (0 Bft)
25.11.2016 20:39 3,2 °C 3,2 °C 97 % 1018,0 hPa 0,0 mm 0,0 km/h (0 Bft) NO 43 ° 0 min 0,000 mm 0,0 UV-I 0 W/m² 2,8 °C 0,0 km/h (0 Bft)
25.11.2016 20:40 3,1 °C 3,2 °C 97 % 1018,0 hPa 0,0 mm 0,0 km/h (0 Bft) NO 43 ° 0 min 0,000 mm 0,0 UV-I 0 W/m² 2,7 °C 0,0 km/h (0 Bft)
25.11.2016 20:41 3,1 °C 3,2 °C 97 % 1018,0 hPa 0,0 mm 0,0 km/h (0 Bft) NO 43 ° 0 min 0,000 mm 0,0 UV-I 0 W/m² 2,7 °C 0,0 km/h (0 Bft)
25.11.2016 20:42 3,1 °C 3,2 °C 97 % 1018,0 hPa 0,0 mm 0,0 km/h (0 Bft) NO 43 ° 0 min 0,000 mm 0,0 UV-I 0 W/m² 2,7 °C 0,0 km/h (0 Bft)
25.11.2016 20:43 3,2 °C 3,2 °C 97 % 1018,1 hPa 0,0 mm 0,0 km/h (0 Bft) NO 43 ° 0 min 0,000 mm 0,0 UV-I 0 W/m² 2,8 °C 0,0 km/h (0 Bft)
25.11.2016 20:44 3,2 °C 3,2 °C 97 % 1018,0 hPa 0,0 mm 0,0 km/h (0 Bft) NO 43 ° 0 min 0,000 mm 0,0 UV-I 0 W/m² 2,8 °C 0,0 km/h (0 Bft)
25.11.2016 20:45 3,1 °C 3,2 °C 97 % 1018,0 hPa 0,0 mm 0,0 km/h (0 Bft) NO 43 ° 0 min 0,000 mm 0,0 UV-I 0 W/m² 2,7 °C 0,0 km/h (0 Bft)
25.11.2016 20:46 3,2 °C 3,2 °C 97 % 1018,1 hPa 0,0 mm 0,0 km/h (0 Bft) NO 43 ° 0 min 0,000 mm 0,0 UV-I 0 W/m² 2,8 °C 0,0 km/h (0 Bft)
25.11.2016 20:47 3,1 °C 3,2 °C 97 % 1018,1 hPa 0,0 mm 0,0 km/h (0 Bft) NO 43 ° 0 min 0,000 mm 0,0 UV-I 0 W/m² 2,7 °C 0,0 km/h (0 Bft)
25.11.2016 20:48 3,2 °C 3,2 °C 97 % 1018,2 hPa 0,0 mm 0,0 km/h (0 Bft) NO 43 ° 0 min 0,000 mm 0,0 UV-I 0 W/m² 2,8 °C 0,0 km/h (0 Bft)
25.11.2016 20:49 3,1 °C 3,2 °C 97 % 1018,2 hPa 0,0 mm 0,0 km/h (0 Bft) NO 43 ° 0 min 0,000 mm 0,0 UV-I 0 W/m² 2,7 °C 0,0 km/h (0 Bft)
25.11.2016 20:50 3,2 °C 3,2 °C 97 % 1018,1 hPa 0,0 mm 0,0 km/h (0 Bft) NO 43 ° 0 min 0,000 mm 0,0 UV-I 0 W/m² 2,8 °C 0,0 km/h (0 Bft)
25.11.2016 20:51 3,2 °C 3,2 °C 97 % 1018,1 hPa 0,0 mm 0,0 km/h (0 Bft) NO 43 ° 0 min 0,000 mm 0,0 UV-I 0 W/m² 2,8 °C 0,0 km/h (0 Bft)
25.11.2016 20:52 3,2 °C 3,2 °C 97 % 1018,1 hPa 0,0 mm 0,0 km/h (0 Bft) NO 43 ° 0 min 0,000 mm 0,0 UV-I 0 W/m² 2,8 °C 0,0 km/h (0 Bft)
25.11.2016 20:53 3,2 °C 3,2 °C 97 % 1018,1 hPa 0,0 mm 0,3 km/h (0 Bft) NO 43 ° 0 min 0,000 mm 0,0 UV-I 0 W/m² 2,8 °C 1,6 km/h (1 Bft)
25.11.2016 20:54 3,1 °C 3,2 °C 97 % 1018,1 hPa 0,0 mm 0,3 km/h (0 Bft) NO 43 ° 0 min 0,000 mm 0,0 UV-I 0 W/m² 2,7 °C 1,6 km/h (1 Bft)
25.11.2016 20:55 3,2 °C 3,2 °C 97 % 1018,1 hPa 0,0 mm 0,1 km/h (0 Bft) NO 43 ° 0 min 0,000 mm 0,0 UV-I 0 W/m² 2,8 °C 1,6 km/h (1 Bft)
25.11.2016 20:56 3,2 °C 3,2 °C 97 % 1018,1 hPa 0,0 mm 0,0 km/h (0 Bft) NO 43 ° 0 min 0,000 mm 0,0 UV-I 0 W/m² 2,8 °C 0,0 km/h (0 Bft)
25.11.2016 20:57 3,2 °C 3,2 °C 97 % 1018,1 hPa 0,0 mm 0,3 km/h (0 Bft) NO 43 ° 0 min 0,000 mm 0,0 UV-I 0 W/m² 2,8 °C 1,6 km/h (1 Bft)
25.11.2016 20:58 3,2 °C 3,2 °C 97 % 1018,1 hPa 0,0 mm 0,0 km/h (0 Bft) NO 43 ° 0 min 0,000 mm 0,0 UV-I 0 W/m² 2,8 °C 0,0 km/h (0 Bft)
25.11.2016 20:59 3,2 °C 3,2 °C 97 % 1018,1 hPa 0,0 mm 0,0 km/h (0 Bft) NO 43 ° 0 min 0,000 mm 0,0 UV-I 0 W/m² 2,8 °C 0,0 km/h (0 Bft)
25.11.2016 21:00 3,2 °C 3,2 °C 97 % 1018,1 hPa 0,0 mm 0,6 km/h (0 Bft) NO 44 ° 0 min 0,000 mm 0,0 UV-I 0 W/m² 2,8 °C 1,6 km/h (1 Bft)
25.11.2016 21:01 3,2 °C 3,2 °C 97 % 1018,0 hPa 0,0 mm 0,0 km/h (0 Bft) NO 44 ° 0 min 0,000 mm 0,0 UV-I 0 W/m² 2,8 °C 0,0 km/h (0 Bft)
25.11.2016 21:02 3,2 °C 3,2 °C 97 % 1018,1 hPa 0,0 mm 0,5 km/h (0 Bft) NO 44 ° 0 min 0,000 mm 0,0 UV-I 0 W/m² 2,8 °C 1,6 km/h (1 Bft)
25.11.2016 21:03 3,2 °C 3,2 °C 97 % 1018,0 hPa 0,0 mm 0,5 km/h (0 Bft) NO 44 ° 0 min 0,000 mm 0,0 UV-I 0 W/m² 2,8 °C 3,2 km/h (1 Bft)
25.11.2016 21:04 3,2 °C 3,2 °C 97 % 1018,1 hPa 0,0 mm 1,7 km/h (1 Bft) O 87 ° 0 min 0,000 mm 0,0 UV-I 0 W/m² 2,8 °C 3,2 km/h (1 Bft)
25.11.2016 21:05 3,2 °C 3,2 °C 97 % 1018,1 hPa 0,0 mm 1,8 km/h (1 Bft) O 87 ° 0 min 0,000 mm 0,0 UV-I 0 W/m² 2,8 °C 3,2 km/h (1 Bft)
25.11.2016 21:06 3,2 °C 3,2 °C 97 % 1018,1 hPa 0,0 mm 1,9 km/h (1 Bft) O 87 ° 0 min 0,000 mm 0,0 UV-I 0 W/m² 2,8 °C 3,2 km/h (1 Bft)
25.11.2016 21:07 3,2 °C 3,2 °C 97 % 1018,1 hPa 0,0 mm 2,3 km/h (1 Bft) O 87 ° 0 min 0,000 mm 0,0 UV-I 0 W/m² 2,8 °C 3,2 km/h (1 Bft)
25.11.2016 21:08 3,2 °C 3,2 °C 97 % 1018,1 hPa 0,0 mm 1,7 km/h (1 Bft) O 87 ° 0 min 0,000 mm 0,0 UV-I 0 W/m² 2,8 °C 3,2 km/h (1 Bft)
25.11.2016 21:09 3,2 °C 3,2 °C 97 % 1018,1 hPa 0,0 mm 0,4 km/h (0 Bft) O 87 ° 0 min 0,000 mm 0,0 UV-I 0 W/m² 2,8 °C 1,6 km/h (1 Bft)
25.11.2016 21:10 3,2 °C 3,2 °C 97 % 1018,1 hPa 0,0 mm 0,8 km/h (0 Bft) O 87 ° 0 min 0,000 mm 0,0 UV-I 0 W/m² 2,8 °C 1,6 km/h (1 Bft)
25.11.2016 21:11 3,2 °C 3,2 °C 97 % 1018,1 hPa 0,0 mm 0,9 km/h (0 Bft) O 87 ° 0 min 0,000 mm 0,0 UV-I 0 W/m² 2,8 °C 3,2 km/h (1 Bft)
25.11.2016 21:12 3,2 °C 3,2 °C 97 % 1018,0 hPa 0,0 mm 0,0 km/h (0 Bft) O 87 ° 0 min 0,000 mm 0,0 UV-I 0 W/m² 2,8 °C 0,0 km/h (0 Bft)
25.11.2016 21:13 3,2 °C 3,2 °C 97 % 1018,0 hPa 0,0 mm 0,0 km/h (0 Bft) O 87 ° 0 min 0,000 mm 0,0 UV-I 0 W/m² 2,8 °C 0,0 km/h (0 Bft)
25.11.2016 21:14 3,2 °C 3,2 °C 97 % 1018,0 hPa 0,0 mm 0,2 km/h (0 Bft) O 87 ° 0 min 0,000 mm 0,0 UV-I 0 W/m² 2,8 °C 1,6 km/h (1 Bft)
25.11.2016 21:15 3,2 °C 3,2 °C 97 % 1018,0 hPa 0,0 mm 0,0 km/h (0 Bft) O 87 ° 0 min 0,000 mm 0,0 UV-I 0 W/m² 2,8 °C 0,0 km/h (0 Bft)
25.11.2016 21:16 3,2 °C 3,2 °C 97 % 1018,0 hPa 0,0 mm 0,0 km/h (0 Bft) O 87 ° 0 min 0,000 mm 0,0 UV-I 0 W/m² 2,8 °C 0,0 km/h (0 Bft)
25.11.2016 21:17 3,2 °C 3,2 °C 97 % 1018,0 hPa 0,0 mm 0,0 km/h (0 Bft) O 87 ° 0 min 0,000 mm 0,0 UV-I 0 W/m² 2,8 °C 0,0 km/h (0 Bft)
25.11.2016 21:18 3,2 °C 3,2 °C 97 % 1018,0 hPa 0,0 mm 0,0 km/h (0 Bft) O 87 ° 0 min 0,000 mm 0,0 UV-I 0 W/m² 2,8 °C 0,0 km/h (0 Bft)
25.11.2016 21:19 3,2 °C 3,2 °C 97 % 1018,0 hPa 0,0 mm 0,4 km/h (0 Bft) O 87 ° 0 min 0,000 mm 0,0 UV-I 0 W/m² 2,8 °C 1,6 km/h (1 Bft)
25.11.2016 21:20 3,2 °C 3,2 °C 97 % 1018,0 hPa 0,0 mm 0,0 km/h (0 Bft) O 87 ° 0 min 0,000 mm 0,0 UV-I 0 W/m² 2,8 °C 0,0 km/h (0 Bft)
25.11.2016 21:21 3,2 °C 3,2 °C 97 % 1018,1 hPa 0,0 mm 0,0 km/h (0 Bft) O 87 ° 0 min 0,000 mm 0,0 UV-I 0 W/m² 2,8 °C 0,0 km/h (0 Bft)
25.11.2016 21:22 3,2 °C 3,2 °C 97 % 1018,1 hPa 0,0 mm 0,0 km/h (0 Bft) O 87 ° 0 min 0,000 mm 0,0 UV-I 0 W/m² 2,8 °C 0,0 km/h (0 Bft)
25.11.2016 21:23 3,2 °C 3,2 °C 97 % 1018,1 hPa 0,0 mm 0,0 km/h (0 Bft) O 87 ° 0 min 0,000 mm 0,0 UV-I 0 W/m² 2,8 °C 0,0 km/h (0 Bft)
25.11.2016 21:24 3,2 °C 3,2 °C 97 % 1018,0 hPa 0,0 mm 0,0 km/h (0 Bft) O 87 ° 0 min 0,000 mm 0,0 UV-I 0 W/m² 2,8 °C 0,0 km/h (0 Bft)
25.11.2016 21:25 3,2 °C 3,2 °C 97 % 1018,1 hPa 0,0 mm 0,0 km/h (0 Bft) O 87 ° 0 min 0,000 mm 0,0 UV-I 0 W/m² 2,8 °C 0,0 km/h (0 Bft)
25.11.2016 21:26 3,2 °C 3,2 °C 97 % 1018,0 hPa 0,0 mm 0,0 km/h (0 Bft) O 87 ° 0 min 0,000 mm 0,0 UV-I 0 W/m² 2,8 °C 0,0 km/h (0 Bft)
25.11.2016 21:27 3,2 °C 3,2 °C 97 % 1018,1 hPa 0,0 mm 0,0 km/h (0 Bft) O 87 ° 0 min 0,000 mm 0,0 UV-I 0 W/m² 2,8 °C 0,0 km/h (0 Bft)
25.11.2016 21:28 3,2 °C 3,2 °C 97 % 1018,0 hPa 0,0 mm 0,0 km/h (0 Bft) O 87 ° 0 min 0,000 mm 0,0 UV-I 0 W/m² 2,8 °C 0,0 km/h (0 Bft)
25.11.2016 21:29 3,2 °C 3,2 °C 97 % 1018,0 hPa 0,0 mm 0,0 km/h (0 Bft) O 87 ° 0 min 0,000 mm 0,0 UV-I 0 W/m² 2,8 °C 0,0 km/h (0 Bft)
25.11.2016 21:30 3,2 °C 3,2 °C 97 % 1018,0 hPa 0,0 mm 0,4 km/h (0 Bft) O 87 ° 0 min 0,000 mm 0,0 UV-I 0 W/m² 2,8 °C 1,6 km/h (1 Bft)
25.11.2016 21:31 3,2 °C 3,2 °C 97 % 1018,0 hPa 0,0 mm 0,7 km/h (0 Bft) O 87 ° 0 min 0,000 mm 0,0 UV-I 0 W/m² 2,8 °C 1,6 km/h (1 Bft)
25.11.2016 21:32 3,2 °C 3,2 °C 97 % 1018,0 hPa 0,0 mm 0,1 km/h (0 Bft) O 87 ° 0 min 0,000 mm 0,0 UV-I 0 W/m² 2,8 °C 1,6 km/h (1 Bft)
25.11.2016 21:33 3,2 °C 3,2 °C 97 % 1018,0 hPa 0,0 mm 0,0 km/h (0 Bft) O 87 ° 0 min 0,000 mm 0,0 UV-I 0 W/m² 2,8 °C 0,0 km/h (0 Bft)
25.11.2016 21:34 3,2 °C 3,2 °C 97 % 1018,0 hPa 0,0 mm 0,0 km/h (0 Bft) O 87 ° 0 min 0,000 mm 0,0 UV-I 0 W/m² 2,8 °C 0,0 km/h (0 Bft)
25.11.2016 21:35 3,2 °C 3,2 °C 97 % 1018,0 hPa 0,0 mm 0,0 km/h (0 Bft) O 87 ° 0 min 0,000 mm 0,0 UV-I 0 W/m² 2,8 °C 0,0 km/h (0 Bft)
25.11.2016 21:36 3,2 °C 3,2 °C 97 % 1018,0 hPa 0,0 mm 0,0 km/h (0 Bft) O 87 ° 0 min 0,000 mm 0,0 UV-I 0 W/m² 2,8 °C 0,0 km/h (0 Bft)
25.11.2016 21:37 3,2 °C 3,2 °C 97 % 1018,0 hPa 0,0 mm 0,0 km/h (0 Bft) O 87 ° 0 min 0,000 mm 0,0 UV-I 0 W/m² 2,8 °C 0,0 km/h (0 Bft)
25.11.2016 21:38 3,2 °C 3,2 °C 97 % 1018,0 hPa 0,0 mm 0,0 km/h (0 Bft) O 87 ° 0 min 0,000 mm 0,0 UV-I 0 W/m² 2,8 °C 0,0 km/h (0 Bft)
25.11.2016 21:39 3,2 °C 3,2 °C 97 % 1017,9 hPa 0,0 mm 0,0 km/h (0 Bft) O 87 ° 0 min 0,000 mm 0,0 UV-I 0 W/m² 2,8 °C 0,0 km/h (0 Bft)
25.11.2016 21:40 3,2 °C 3,2 °C 97 % 1018,0 hPa 0,0 mm 0,0 km/h (0 Bft) O 87 ° 0 min 0,000 mm 0,0 UV-I 0 W/m² 2,8 °C 0,0 km/h (0 Bft)
25.11.2016 21:41 3,2 °C 3,2 °C 97 % 1017,9 hPa 0,0 mm 0,0 km/h (0 Bft) O 87 ° 0 min 0,000 mm 0,0 UV-I 0 W/m² 2,8 °C 0,0 km/h (0 Bft)
25.11.2016 21:42 3,2 °C 3,2 °C 97 % 1017,9 hPa 0,0 mm 0,0 km/h (0 Bft) O 87 ° 0 min 0,000 mm 0,0 UV-I 0 W/m² 2,8 °C 0,0 km/h (0 Bft)
25.11.2016 21:43 3,2 °C 3,2 °C 97 % 1017,9 hPa 0,0 mm 0,0 km/h (0 Bft) O 87 ° 0 min 0,000 mm 0,0 UV-I 0 W/m² 2,8 °C 0,0 km/h (0 Bft)
25.11.2016 21:44 3,2 °C 3,2 °C 97 % 1017,9 hPa 0,0 mm 0,0 km/h (0 Bft) O 87 ° 0 min 0,000 mm 0,0 UV-I 0 W/m² 2,8 °C 0,0 km/h (0 Bft)
25.11.2016 21:45 3,2 °C 3,2 °C 97 % 1017,9 hPa 0,0 mm 0,0 km/h (0 Bft) O 87 ° 0 min 0,000 mm 0,0 UV-I 0 W/m² 2,8 °C 0,0 km/h (0 Bft)
25.11.2016 21:46 3,2 °C 3,2 °C 97 % 1017,9 hPa 0,0 mm 0,0 km/h (0 Bft) O 87 ° 0 min 0,000 mm 0,0 UV-I 0 W/m² 2,8 °C 0,0 km/h (0 Bft)
25.11.2016 21:47 3,2 °C 3,2 °C 97 % 1017,9 hPa 0,0 mm 0,0 km/h (0 Bft) O 87 ° 0 min 0,000 mm 0,0 UV-I 0 W/m² 2,8 °C 0,0 km/h (0 Bft)
25.11.2016 21:48 3,2 °C 3,2 °C 97 % 1018,0 hPa 0,0 mm 0,0 km/h (0 Bft) O 87 ° 0 min 0,000 mm 0,0 UV-I 0 W/m² 2,8 °C 0,0 km/h (0 Bft)
25.11.2016 21:49 3,2 °C 3,2 °C 97 % 1018,0 hPa 0,0 mm 0,0 km/h (0 Bft) O 87 ° 0 min 0,000 mm 0,0 UV-I 0 W/m² 2,8 °C 0,0 km/h (0 Bft)
25.11.2016 21:50 3,2 °C 3,2 °C 97 % 1018,0 hPa 0,0 mm 0,0 km/h (0 Bft) O 87 ° 0 min 0,000 mm 0,0 UV-I 0 W/m² 2,8 °C 0,0 km/h (0 Bft)
25.11.2016 21:51 3,2 °C 3,2 °C 97 % 1018,0 hPa 0,0 mm 0,0 km/h (0 Bft) O 87 ° 0 min 0,000 mm 0,0 UV-I 0 W/m² 2,8 °C 0,0 km/h (0 Bft)
25.11.2016 21:52 3,2 °C 3,2 °C 97 % 1018,0 hPa 0,0 mm 0,0 km/h (0 Bft) O 87 ° 0 min 0,000 mm 0,0 UV-I 0 W/m² 2,8 °C 0,0 km/h (0 Bft)
25.11.2016 21:53 3,2 °C 3,2 °C 97 % 1018,0 hPa 0,0 mm 0,0 km/h (0 Bft) O 87 ° 0 min 0,000 mm 0,0 UV-I 0 W/m² 2,8 °C 0,0 km/h (0 Bft)
25.11.2016 21:54 3,2 °C 3,2 °C 97 % 1018,0 hPa 0,0 mm 0,0 km/h (0 Bft) O 87 ° 0 min 0,000 mm 0,0 UV-I 0 W/m² 2,8 °C 0,0 km/h (0 Bft)
25.11.2016 21:55 3,2 °C 3,2 °C 97 % 1018,0 hPa 0,0 mm 0,0 km/h (0 Bft) O 87 ° 0 min 0,000 mm 0,0 UV-I 0 W/m² 2,8 °C 0,0 km/h (0 Bft)
25.11.2016 21:56 3,2 °C 3,2 °C 97 % 1018,0 hPa 0,0 mm 0,0 km/h (0 Bft) O 87 ° 0 min 0,000 mm 0,0 UV-I 0 W/m² 2,8 °C 0,0 km/h (0 Bft)
25.11.2016 21:57 3,2 °C 3,2 °C 97 % 1017,9 hPa 0,0 mm 0,0 km/h (0 Bft) O 87 ° 0 min 0,000 mm 0,0 UV-I 0 W/m² 2,8 °C 0,0 km/h (0 Bft)
25.11.2016 21:58 3,2 °C 3,2 °C 97 % 1018,0 hPa 0,0 mm 0,0 km/h (0 Bft) O 87 ° 0 min 0,000 mm 0,0 UV-I 0 W/m² 2,8 °C 0,0 km/h (0 Bft)
25.11.2016 21:59 3,2 °C 3,2 °C 97 % 1018,0 hPa 0,0 mm 0,0 km/h (0 Bft) O 87 ° 0 min 0,000 mm 0,0 UV-I 0 W/m² 2,8 °C 0,0 km/h (0 Bft)
25.11.2016 22:00 3,2 °C 3,2 °C 97 % 1018,0 hPa 0,0 mm 0,0 km/h (0 Bft) O 87 ° 0 min 0,000 mm 0,0 UV-I 0 W/m² 2,8 °C 0,0 km/h (0 Bft)
25.11.2016 22:01 3,2 °C 3,2 °C 97 % 1018,0 hPa 0,0 mm 0,0 km/h (0 Bft) O 87 ° 0 min 0,000 mm 0,0 UV-I 0 W/m² 2,8 °C 0,0 km/h (0 Bft)
25.11.2016 22:02 3,2 °C 3,2 °C 97 % 1018,0 hPa 0,0 mm 0,0 km/h (0 Bft) O 87 ° 0 min 0,000 mm 0,0 UV-I 0 W/m² 2,8 °C 0,0 km/h (0 Bft)
25.11.2016 22:03 3,2 °C 3,2 °C 97 % 1018,0 hPa 0,0 mm 0,0 km/h (0 Bft) O 87 ° 0 min 0,000 mm 0,0 UV-I 0 W/m² 2,8 °C 0,0 km/h (0 Bft)
25.11.2016 22:04 3,2 °C 3,2 °C 97 % 1018,0 hPa 0,0 mm 0,0 km/h (0 Bft) O 87 ° 0 min 0,000 mm 0,0 UV-I 0 W/m² 2,8 °C 0,0 km/h (0 Bft)
25.11.2016 22:05 3,2 °C 3,2 °C 97 % 1018,0 hPa 0,0 mm 0,0 km/h (0 Bft) O 87 ° 0 min 0,000 mm 0,0 UV-I 0 W/m² 2,8 °C 0,0 km/h (0 Bft)
25.11.2016 22:06 3,2 °C 3,2 °C 97 % 1018,0 hPa 0,0 mm 0,0 km/h (0 Bft) O 87 ° 0 min 0,000 mm 0,0 UV-I 0 W/m² 2,8 °C 0,0 km/h (0 Bft)
25.11.2016 22:07 3,2 °C 3,2 °C 97 % 1018,0 hPa 0,0 mm 0,0 km/h (0 Bft) O 87 ° 0 min 0,000 mm 0,0 UV-I 0 W/m² 2,8 °C 0,0 km/h (0 Bft)
25.11.2016 22:08 3,2 °C 3,2 °C 97 % 1018,0 hPa 0,0 mm 0,0 km/h (0 Bft) O 87 ° 0 min 0,000 mm 0,0 UV-I 0 W/m² 2,8 °C 0,0 km/h (0 Bft)
25.11.2016 22:09 3,2 °C 3,2 °C 97 % 1018,0 hPa 0,0 mm 0,0 km/h (0 Bft) O 87 ° 0 min 0,000 mm 0,0 UV-I 0 W/m² 2,8 °C 0,0 km/h (0 Bft)
25.11.2016 22:10 3,2 °C 3,2 °C 97 % 1018,0 hPa 0,0 mm 0,0 km/h (0 Bft) O 87 ° 0 min 0,000 mm 0,0 UV-I 0 W/m² 2,8 °C 0,0 km/h (0 Bft)
25.11.2016 22:11 3,2 °C 3,2 °C 97 % 1018,0 hPa 0,0 mm 0,0 km/h (0 Bft) O 87 ° 0 min 0,000 mm 0,0 UV-I 0 W/m² 2,8 °C 0,0 km/h (0 Bft)
25.11.2016 22:12 3,2 °C 3,2 °C 97 % 1017,9 hPa 0,0 mm 0,0 km/h (0 Bft) O 87 ° 0 min 0,000 mm 0,0 UV-I 0 W/m² 2,8 °C 0,0 km/h (0 Bft)
25.11.2016 22:13 3,2 °C 3,2 °C 97 % 1017,9 hPa 0,0 mm 0,0 km/h (0 Bft) O 87 ° 0 min 0,000 mm 0,0 UV-I 0 W/m² 2,8 °C 0,0 km/h (0 Bft)
25.11.2016 22:14 3,2 °C 3,2 °C 97 % 1017,9 hPa 0,0 mm 0,0 km/h (0 Bft) O 87 ° 0 min 0,000 mm 0,0 UV-I 0 W/m² 2,8 °C 0,0 km/h (0 Bft)
25.11.2016 22:15 3,2 °C 3,2 °C 97 % 1017,9 hPa 0,0 mm 0,0 km/h (0 Bft) O 87 ° 0 min 0,000 mm 0,0 UV-I 0 W/m² 2,8 °C 0,0 km/h (0 Bft)
25.11.2016 22:16 3,2 °C 3,2 °C 97 % 1017,8 hPa 0,0 mm 0,0 km/h (0 Bft) O 87 ° 0 min 0,000 mm 0,0 UV-I 0 W/m² 2,8 °C 0,0 km/h (0 Bft)
25.11.2016 22:17 3,2 °C 3,2 °C 97 % 1017,8 hPa 0,0 mm 0,0 km/h (0 Bft) O 87 ° 0 min 0,000 mm 0,0 UV-I 0 W/m² 2,8 °C 0,0 km/h (0 Bft)
25.11.2016 22:18 3,2 °C 3,2 °C 97 % 1017,9 hPa 0,0 mm 0,0 km/h (0 Bft) O 87 ° 0 min 0,000 mm 0,0 UV-I 0 W/m² 2,8 °C 0,0 km/h (0 Bft)
25.11.2016 22:19 3,2 °C 3,2 °C 97 % 1017,8 hPa 0,0 mm 0,0 km/h (0 Bft) O 87 ° 0 min 0,000 mm 0,0 UV-I 0 W/m² 2,8 °C 0,0 km/h (0 Bft)
25.11.2016 22:20 3,2 °C 3,3 °C 97 % 1017,8 hPa 0,0 mm 0,0 km/h (0 Bft) O 87 ° 0 min 0,000 mm 0,0 UV-I 0 W/m² 2,8 °C 0,0 km/h (0 Bft)
25.11.2016 22:21 3,2 °C 3,2 °C 97 % 1017,8 hPa 0,0 mm 0,0 km/h (0 Bft) O 87 ° 0 min 0,000 mm 0,0 UV-I 0 W/m² 2,8 °C 0,0 km/h (0 Bft)
25.11.2016 22:22 3,2 °C 3,2 °C 97 % 1017,9 hPa 0,0 mm 0,0 km/h (0 Bft) O 87 ° 0 min 0,000 mm 0,0 UV-I 0 W/m² 2,8 °C 0,0 km/h (0 Bft)
25.11.2016 22:23 3,3 °C 3,3 °C 97 % 1017,8 hPa 0,0 mm 0,0 km/h (0 Bft) O 87 ° 0 min 0,000 mm 0,0 UV-I 0 W/m² 2,9 °C 0,0 km/h (0 Bft)
25.11.2016 22:24 3,2 °C 3,3 °C 97 % 1017,8 hPa 0,0 mm 0,0 km/h (0 Bft) O 87 ° 0 min 0,000 mm 0,0 UV-I 0 W/m² 2,8 °C 0,0 km/h (0 Bft)
25.11.2016 22:25 3,2 °C 3,3 °C 97 % 1017,8 hPa 0,0 mm 0,0 km/h (0 Bft) O 87 ° 0 min 0,000 mm 0,0 UV-I 0 W/m² 2,8 °C 0,0 km/h (0 Bft)
25.11.2016 22:26 3,2 °C 3,2 °C 97 % 1017,8 hPa 0,0 mm 0,0 km/h (0 Bft) O 87 ° 0 min 0,000 mm 0,0 UV-I 0 W/m² 2,8 °C 0,0 km/h (0 Bft)
25.11.2016 22:27 3,3 °C 3,3 °C 97 % 1017,8 hPa 0,0 mm 0,0 km/h (0 Bft) O 87 ° 0 min 0,000 mm 0,0 UV-I 0 W/m² 2,9 °C 0,0 km/h (0 Bft)
25.11.2016 22:28 3,2 °C 3,3 °C 97 % 1017,8 hPa 0,0 mm 0,0 km/h (0 Bft) O 87 ° 0 min 0,000 mm 0,0 UV-I 0 W/m² 2,8 °C 0,0 km/h (0 Bft)
25.11.2016 22:29 3,2 °C 3,3 °C 97 % 1017,8 hPa 0,0 mm 0,0 km/h (0 Bft) O 87 ° 0 min 0,000 mm 0,0 UV-I 0 W/m² 2,8 °C 0,0 km/h (0 Bft)
25.11.2016 22:30 3,2 °C 3,2 °C 97 % 1017,8 hPa 0,0 mm 0,0 km/h (0 Bft) O 87 ° 0 min 0,000 mm 0,0 UV-I 0 W/m² 2,8 °C 0,0 km/h (0 Bft)
25.11.2016 22:31 3,3 °C 3,3 °C 97 % 1017,8 hPa 0,0 mm 0,0 km/h (0 Bft) O 87 ° 0 min 0,000 mm 0,0 UV-I 0 W/m² 2,9 °C 0,0 km/h (0 Bft)
25.11.2016 22:32 3,3 °C 3,3 °C 97 % 1017,8 hPa 0,0 mm 0,0 km/h (0 Bft) O 87 ° 0 min 0,000 mm 0,0 UV-I 0 W/m² 2,9 °C 0,0 km/h (0 Bft)
25.11.2016 22:33 3,2 °C 3,3 °C 97 % 1017,8 hPa 0,0 mm 0,0 km/h (0 Bft) O 87 ° 0 min 0,000 mm 0,0 UV-I 0 W/m² 2,8 °C 0,0 km/h (0 Bft)
25.11.2016 22:34 3,3 °C 3,3 °C 97 % 1017,8 hPa 0,0 mm 0,0 km/h (0 Bft) O 87 ° 0 min 0,000 mm 0,0 UV-I 0 W/m² 2,9 °C 0,0 km/h (0 Bft)
25.11.2016 22:35 3,3 °C 3,3 °C 97 % 1017,7 hPa 0,0 mm 0,0 km/h (0 Bft) O 87 ° 0 min 0,000 mm 0,0 UV-I 0 W/m² 2,9 °C 0,0 km/h (0 Bft)
25.11.2016 22:36 3,3 °C 3,3 °C 97 % 1017,7 hPa 0,0 mm 0,0 km/h (0 Bft) O 87 ° 0 min 0,000 mm 0,0 UV-I 0 W/m² 2,9 °C 0,0 km/h (0 Bft)
25.11.2016 22:37 3,3 °C 3,3 °C 97 % 1017,7 hPa 0,0 mm 0,0 km/h (0 Bft) O 87 ° 0 min 0,000 mm 0,0 UV-I 0 W/m² 2,9 °C 0,0 km/h (0 Bft)
25.11.2016 22:38 3,3 °C 3,3 °C 97 % 1017,7 hPa 0,0 mm 0,0 km/h (0 Bft) O 87 ° 0 min 0,000 mm 0,0 UV-I 0 W/m² 2,9 °C 0,0 km/h (0 Bft)
25.11.2016 22:39 3,3 °C 3,3 °C 97 % 1017,7 hPa 0,0 mm 0,0 km/h (0 Bft) O 87 ° 0 min 0,000 mm 0,0 UV-I 0 W/m² 2,9 °C 0,0 km/h (0 Bft)
25.11.2016 22:40 3,3 °C 3,3 °C 97 % 1017,7 hPa 0,0 mm 0,0 km/h (0 Bft) O 87 ° 0 min 0,000 mm 0,0 UV-I 0 W/m² 2,9 °C 0,0 km/h (0 Bft)
25.11.2016 22:41 3,3 °C 3,3 °C 97 % 1017,8 hPa 0,0 mm 0,0 km/h (0 Bft) O 87 ° 0 min 0,000 mm 0,0 UV-I 0 W/m² 2,9 °C 0,0 km/h (0 Bft)
25.11.2016 22:42 3,3 °C 3,3 °C 97 % 1017,8 hPa 0,0 mm 0,0 km/h (0 Bft) O 87 ° 0 min 0,000 mm 0,0 UV-I 0 W/m² 2,9 °C 0,0 km/h (0 Bft)
25.11.2016 22:43 3,3 °C 3,3 °C 97 % 1017,8 hPa 0,0 mm 0,5 km/h (0 Bft) O 87 ° 0 min 0,000 mm 0,0 UV-I 0 W/m² 2,9 °C 1,6 km/h (1 Bft)
25.11.2016 22:44 3,2 °C 3,3 °C 97 % 1017,8 hPa 0,0 mm 0,7 km/h (0 Bft) O 87 ° 0 min 0,000 mm 0,0 UV-I 0 W/m² 2,8 °C 1,6 km/h (1 Bft)
25.11.2016 22:45 3,3 °C 3,3 °C 97 % 1017,8 hPa 0,0 mm 1,0 km/h (0 Bft) O 87 ° 0 min 0,000 mm 0,0 UV-I 0 W/m² 2,9 °C 1,6 km/h (1 Bft)
25.11.2016 22:46 3,3 °C 3,3 °C 97 % 1017,8 hPa 0,0 mm 0,9 km/h (0 Bft) O 87 ° 0 min 0,000 mm 0,0 UV-I 0 W/m² 2,9 °C 1,6 km/h (1 Bft)
25.11.2016 22:47 3,3 °C 3,3 °C 97 % 1017,8 hPa 0,0 mm 0,1 km/h (0 Bft) O 87 ° 0 min 0,000 mm 0,0 UV-I 0 W/m² 2,9 °C 1,6 km/h (1 Bft)
25.11.2016 22:48 3,3 °C 3,3 °C 97 % 1017,8 hPa 0,0 mm 0,0 km/h (0 Bft) O 87 ° 0 min 0,000 mm 0,0 UV-I 0 W/m² 2,9 °C 0,0 km/h (0 Bft)
25.11.2016 22:49 3,3 °C 3,3 °C 97 % 1017,9 hPa 0,0 mm 0,0 km/h (0 Bft) O 87 ° 0 min 0,000 mm 0,0 UV-I 0 W/m² 2,9 °C 0,0 km/h (0 Bft)
25.11.2016 22:50 3,3 °C 3,3 °C 97 % 1017,9 hPa 0,0 mm 0,7 km/h (0 Bft) O 87 ° 0 min 0,000 mm 0,0 UV-I 0 W/m² 2,9 °C 3,2 km/h (1 Bft)
25.11.2016 22:51 3,3 °C 3,3 °C 97 % 1017,8 hPa 0,0 mm 0,2 km/h (0 Bft) O 87 ° 0 min 0,000 mm 0,0 UV-I 0 W/m² 2,9 °C 1,6 km/h (1 Bft)
25.11.2016 22:52 3,3 °C 3,3 °C 97 % 1017,8 hPa 0,0 mm 0,0 km/h (0 Bft) O 87 ° 0 min 0,000 mm 0,0 UV-I 0 W/m² 2,9 °C 0,0 km/h (0 Bft)
25.11.2016 22:53 3,3 °C 3,3 °C 97 % 1017,8 hPa 0,0 mm 0,0 km/h (0 Bft) O 87 ° 0 min 0,000 mm 0,0 UV-I 0 W/m² 2,9 °C 0,0 km/h (0 Bft)
25.11.2016 22:54 3,3 °C 3,3 °C 97 % 1017,8 hPa 0,0 mm 0,0 km/h (0 Bft) O 87 ° 0 min 0,000 mm 0,0 UV-I 0 W/m² 2,9 °C 0,0 km/h (0 Bft)
25.11.2016 22:55 3,3 °C 3,3 °C 97 % 1017,8 hPa 0,0 mm 0,0 km/h (0 Bft) O 87 ° 0 min 0,000 mm 0,0 UV-I 0 W/m² 2,9 °C 0,0 km/h (0 Bft)
25.11.2016 22:56 3,3 °C 3,3 °C 97 % 1017,9 hPa 0,0 mm 0,0 km/h (0 Bft) O 87 ° 0 min 0,000 mm 0,0 UV-I 0 W/m² 2,9 °C 0,0 km/h (0 Bft)
25.11.2016 22:57 3,3 °C 3,3 °C 97 % 1017,9 hPa 0,0 mm 0,0 km/h (0 Bft) O 87 ° 0 min 0,000 mm 0,0 UV-I 0 W/m² 2,9 °C 0,0 km/h (0 Bft)
25.11.2016 22:58 3,3 °C 3,3 °C 97 % 1017,9 hPa 0,0 mm 0,0 km/h (0 Bft) O 87 ° 0 min 0,000 mm 0,0 UV-I 0 W/m² 2,9 °C 0,0 km/h (0 Bft)
25.11.2016 22:59 3,3 °C 3,3 °C 97 % 1017,8 hPa 0,0 mm 0,0 km/h (0 Bft) O 87 ° 0 min 0,000 mm 0,0 UV-I 0 W/m² 2,9 °C 0,0 km/h (0 Bft)
25.11.2016 23:00 3,3 °C 3,3 °C 97 % 1017,8 hPa 0,0 mm 0,0 km/h (0 Bft) O 87 ° 0 min 0,000 mm 0,0 UV-I 0 W/m² 2,9 °C 0,0 km/h (0 Bft)
25.11.2016 23:01 3,3 °C 3,3 °C 97 % 1017,9 hPa 0,0 mm 0,0 km/h (0 Bft) O 87 ° 0 min 0,000 mm 0,0 UV-I 0 W/m² 2,9 °C 0,0 km/h (0 Bft)
25.11.2016 23:02 3,3 °C 3,3 °C 97 % 1017,8 hPa 0,0 mm 0,0 km/h (0 Bft) O 87 ° 0 min 0,000 mm 0,0 UV-I 0 W/m² 2,9 °C 0,0 km/h (0 Bft)
25.11.2016 23:03 3,3 °C 3,3 °C 97 % 1017,9 hPa 0,0 mm 0,0 km/h (0 Bft) O 87 ° 0 min 0,000 mm 0,0 UV-I 0 W/m² 2,9 °C 0,0 km/h (0 Bft)
25.11.2016 23:04 3,3 °C 3,3 °C 97 % 1017,9 hPa 0,0 mm 0,0 km/h (0 Bft) O 87 ° 0 min 0,000 mm 0,0 UV-I 0 W/m² 2,9 °C 0,0 km/h (0 Bft)
25.11.2016 23:05 3,3 °C 3,3 °C 97 % 1017,8 hPa 0,0 mm 0,2 km/h (0 Bft) O 87 ° 0 min 0,000 mm 0,0 UV-I 0 W/m² 2,9 °C 1,6 km/h (1 Bft)
25.11.2016 23:06 3,3 °C 3,3 °C 97 % 1017,8 hPa 0,0 mm 1,8 km/h (1 Bft) O 87 ° 0 min 0,000 mm 0,0 UV-I 0 W/m² 2,9 °C 3,2 km/h (1 Bft)
25.11.2016 23:07 3,3 °C 3,3 °C 97 % 1017,9 hPa 0,0 mm 1,0 km/h (0 Bft) O 87 ° 0 min 0,000 mm 0,0 UV-I 0 W/m² 2,9 °C 1,6 km/h (1 Bft)
25.11.2016 23:08 3,3 °C 3,3 °C 97 % 1017,9 hPa 0,0 mm 0,2 km/h (0 Bft) O 87 ° 0 min 0,000 mm 0,0 UV-I 0 W/m² 2,9 °C 1,6 km/h (1 Bft)
25.11.2016 23:09 3,3 °C 3,3 °C 97 % 1017,9 hPa 0,0 mm 0,0 km/h (0 Bft) O 87 ° 0 min 0,000 mm 0,0 UV-I 0 W/m² 2,9 °C 0,0 km/h (0 Bft)
25.11.2016 23:10 3,3 °C 3,3 °C 97 % 1017,9 hPa 0,0 mm 0,0 km/h (0 Bft) O 87 ° 0 min 0,000 mm 0,0 UV-I 0 W/m² 2,9 °C 0,0 km/h (0 Bft)
25.11.2016 23:11 3,3 °C 3,3 °C 97 % 1017,9 hPa 0,0 mm 0,0 km/h (0 Bft) O 87 ° 0 min 0,000 mm 0,0 UV-I 0 W/m² 2,9 °C 0,0 km/h (0 Bft)
25.11.2016 23:12 3,3 °C 3,3 °C 97 % 1017,9 hPa 0,0 mm 0,0 km/h (0 Bft) O 87 ° 0 min 0,000 mm 0,0 UV-I 0 W/m² 2,9 °C 0,0 km/h (0 Bft)
25.11.2016 23:13 3,3 °C 3,3 °C 97 % 1017,9 hPa 0,0 mm 0,0 km/h (0 Bft) O 87 ° 0 min 0,000 mm 0,0 UV-I 0 W/m² 2,9 °C 0,0 km/h (0 Bft)
25.11.2016 23:14 3,3 °C 3,3 °C 97 % 1018,0 hPa 0,0 mm 1,0 km/h (0 Bft) O 87 ° 0 min 0,000 mm 0,0 UV-I 0 W/m² 2,9 °C 3,2 km/h (1 Bft)
25.11.2016 23:15 3,3 °C 3,3 °C 97 % 1018,0 hPa 0,0 mm 0,3 km/h (0 Bft) O 87 ° 0 min 0,000 mm 0,0 UV-I 0 W/m² 2,9 °C 1,6 km/h (1 Bft)
25.11.2016 23:16 3,3 °C 3,3 °C 97 % 1017,9 hPa 0,0 mm 0,2 km/h (0 Bft) O 87 ° 0 min 0,000 mm 0,0 UV-I 0 W/m² 2,9 °C 1,6 km/h (1 Bft)
25.11.2016 23:17 3,3 °C 3,3 °C 97 % 1018,0 hPa 0,0 mm 0,1 km/h (0 Bft) O 87 ° 0 min 0,000 mm 0,0 UV-I 0 W/m² 2,9 °C 1,6 km/h (1 Bft)
25.11.2016 23:18 3,3 °C 3,3 °C 97 % 1018,0 hPa 0,0 mm 0,4 km/h (0 Bft) O 87 ° 0 min 0,000 mm 0,0 UV-I 0 W/m² 2,9 °C 1,6 km/h (1 Bft)
25.11.2016 23:19 3,3 °C 3,3 °C 97 % 1017,9 hPa 0,0 mm 0,4 km/h (0 Bft) O 87 ° 0 min 0,000 mm 0,0 UV-I 0 W/m² 2,9 °C 1,6 km/h (1 Bft)
25.11.2016 23:20 3,3 °C 3,3 °C 97 % 1017,9 hPa 0,0 mm 1,1 km/h (1 Bft) O 87 ° 0 min 0,000 mm 0,0 UV-I 0 W/m² 2,9 °C 1,6 km/h (1 Bft)
25.11.2016 23:21 3,3 °C 3,3 °C 97 % 1017,9 hPa 0,0 mm 1,4 km/h (1 Bft) O 87 ° 0 min 0,000 mm 0,0 UV-I 0 W/m² 2,9 °C 1,6 km/h (1 Bft)
25.11.2016 23:22 3,3 °C 3,3 °C 97 % 1017,9 hPa 0,0 mm 1,9 km/h (1 Bft) O 87 ° 0 min 0,000 mm 0,0 UV-I 0 W/m² 2,9 °C 3,2 km/h (1 Bft)
25.11.2016 23:23 3,3 °C 3,3 °C 97 % 1018,0 hPa 0,0 mm 3,4 km/h (1 Bft) O 86 ° 0 min 0,000 mm 0,0 UV-I 0 W/m² 2,9 °C 4,8 km/h (1 Bft)
25.11.2016 23:24 3,3 °C 3,3 °C 97 % 1018,0 hPa 0,0 mm 2,9 km/h (1 Bft) O 86 ° 0 min 0,000 mm 0,0 UV-I 0 W/m² 2,9 °C 4,8 km/h (1 Bft)
25.11.2016 23:25 3,3 °C 3,3 °C 97 % 1018,0 hPa 0,0 mm 3,4 km/h (1 Bft) O 86 ° 0 min 0,000 mm 0,0 UV-I 0 W/m² 2,9 °C 4,8 km/h (1 Bft)
25.11.2016 23:26 3,3 °C 3,3 °C 97 % 1018,0 hPa 0,0 mm 3,8 km/h (1 Bft) O 86 ° 0 min 0,000 mm 0,0 UV-I 0 W/m² 2,9 °C 4,8 km/h (1 Bft)
25.11.2016 23:27 3,3 °C 3,3 °C 97 % 1018,0 hPa 0,0 mm 2,9 km/h (1 Bft) O 82 ° 0 min 0,000 mm 0,0 UV-I 0 W/m² 2,9 °C 4,8 km/h (1 Bft)
25.11.2016 23:28 3,3 °C 3,3 °C 97 % 1018,0 hPa 0,0 mm 1,7 km/h (1 Bft) O 82 ° 0 min 0,000 mm 0,0 UV-I 0 W/m² 2,9 °C 3,2 km/h (1 Bft)
25.11.2016 23:29 3,2 °C 3,3 °C 97 % 1018,0 hPa 0,0 mm 1,1 km/h (1 Bft) O 82 ° 0 min 0,000 mm 0,0 UV-I 0 W/m² 2,8 °C 1,6 km/h (1 Bft)
25.11.2016 23:30 3,3 °C 3,3 °C 97 % 1018,0 hPa 0,0 mm 2,5 km/h (1 Bft) O 82 ° 0 min 0,000 mm 0,0 UV-I 0 W/m² 2,9 °C 3,2 km/h (1 Bft)
25.11.2016 23:31 3,3 °C 3,3 °C 97 % 1018,0 hPa 0,0 mm 2,1 km/h (1 Bft) O 82 ° 0 min 0,000 mm 0,0 UV-I 0 W/m² 2,9 °C 3,2 km/h (1 Bft)
25.11.2016 23:32 3,2 °C 3,3 °C 97 % 1018,0 hPa 0,0 mm 0,8 km/h (0 Bft) O 82 ° 0 min 0,000 mm 0,0 UV-I 0 W/m² 2,8 °C 1,6 km/h (1 Bft)
25.11.2016 23:33 3,2 °C 3,3 °C 97 % 1018,1 hPa 0,0 mm 0,0 km/h (0 Bft) O 82 ° 0 min 0,000 mm 0,0 UV-I 0 W/m² 2,8 °C 0,0 km/h (0 Bft)
25.11.2016 23:34 3,2 °C 3,3 °C 97 % 1018,0 hPa 0,0 mm 0,0 km/h (0 Bft) O 82 ° 0 min 0,000 mm 0,0 UV-I 0 W/m² 2,8 °C 0,0 km/h (0 Bft)
25.11.2016 23:35 3,3 °C 3,3 °C 97 % 1018,0 hPa 0,0 mm 0,4 km/h (0 Bft) O 83 ° 0 min 0,000 mm 0,0 UV-I 0 W/m² 2,9 °C 1,6 km/h (1 Bft)
25.11.2016 23:36 3,2 °C 3,3 °C 97 % 1018,0 hPa 0,0 mm 2,0 km/h (1 Bft) O 82 ° 0 min 0,000 mm 0,0 UV-I 0 W/m² 2,8 °C 3,2 km/h (1 Bft)
25.11.2016 23:37 3,2 °C 3,3 °C 97 % 1018,1 hPa 0,0 mm 1,6 km/h (1 Bft) O 82 ° 0 min 0,000 mm 0,0 UV-I 0 W/m² 2,8 °C 3,2 km/h (1 Bft)
25.11.2016 23:38 3,2 °C 3,3 °C 97 % 1018,1 hPa 0,0 mm 0,5 km/h (0 Bft) O 82 ° 0 min 0,000 mm 0,0 UV-I 0 W/m² 2,8 °C 1,6 km/h (1 Bft)
25.11.2016 23:39 3,2 °C 3,3 °C 97 % 1018,0 hPa 0,0 mm 1,9 km/h (1 Bft) O 82 ° 0 min 0,000 mm 0,0 UV-I 0 W/m² 2,8 °C 3,2 km/h (1 Bft)
25.11.2016 23:40 3,2 °C 3,3 °C 97 % 1018,0 hPa 0,0 mm 1,9 km/h (1 Bft) O 82 ° 0 min 0,000 mm 0,0 UV-I 0 W/m² 2,8 °C 3,2 km/h (1 Bft)
25.11.2016 23:41 3,2 °C 3,3 °C 97 % 1018,0 hPa 0,0 mm 1,2 km/h (1 Bft) O 83 ° 0 min 0,000 mm 0,0 UV-I 0 W/m² 2,8 °C 1,6 km/h (1 Bft)
25.11.2016 23:42 3,2 °C 3,3 °C 97 % 1018,0 hPa 0,0 mm 0,7 km/h (0 Bft) O 82 ° 0 min 0,000 mm 0,0 UV-I 0 W/m² 2,8 °C 1,6 km/h (1 Bft)
25.11.2016 23:43 3,2 °C 3,3 °C 97 % 1018,0 hPa 0,0 mm 0,8 km/h (0 Bft) O 82 ° 0 min 0,000 mm 0,0 UV-I 0 W/m² 2,8 °C 3,2 km/h (1 Bft)
25.11.2016 23:44 3,2 °C 3,3 °C 97 % 1018,0 hPa 0,0 mm 0,0 km/h (0 Bft) O 82 ° 0 min 0,000 mm 0,0 UV-I 0 W/m² 2,8 °C 0,0 km/h (0 Bft)
25.11.2016 23:45 3,2 °C 3,3 °C 97 % 1018,0 hPa 0,0 mm 0,7 km/h (0 Bft) O 82 ° 0 min 0,000 mm 0,0 UV-I 0 W/m² 2,8 °C 1,6 km/h (1 Bft)
25.11.2016 23:46 3,2 °C 3,3 °C 97 % 1018,0 hPa 0,0 mm 0,3 km/h (0 Bft) O 82 ° 0 min 0,000 mm 0,0 UV-I 0 W/m² 2,8 °C 1,6 km/h (1 Bft)
25.11.2016 23:47 3,2 °C 3,3 °C 97 % 1018,0 hPa 0,0 mm 1,0 km/h (0 Bft) O 82 ° 0 min 0,000 mm 0,0 UV-I 0 W/m² 2,8 °C 1,6 km/h (1 Bft)
25.11.2016 23:48 3,2 °C 3,2 °C 97 % 1018,0 hPa 0,0 mm 1,8 km/h (1 Bft) O 82 ° 0 min 0,000 mm 0,0 UV-I 0 W/m² 2,8 °C 3,2 km/h (1 Bft)
25.11.2016 23:49 3,2 °C 3,3 °C 97 % 1017,9 hPa 0,0 mm 0,8 km/h (0 Bft) O 82 ° 0 min 0,000 mm 0,0 UV-I 0 W/m² 2,8 °C 1,6 km/h (1 Bft)
25.11.2016 23:50 3,3 °C 3,3 °C 97 % 1017,9 hPa 0,0 mm 0,1 km/h (0 Bft) O 82 ° 0 min 0,000 mm 0,0 UV-I 0 W/m² 2,9 °C 1,6 km/h (1 Bft)
25.11.2016 23:51 3,2 °C 3,3 °C 97 % 1017,9 hPa 0,0 mm 0,3 km/h (0 Bft) O 82 ° 0 min 0,000 mm 0,0 UV-I 0 W/m² 2,8 °C 1,6 km/h (1 Bft)
25.11.2016 23:52 3,2 °C 3,3 °C 97 % 1017,9 hPa 0,0 mm 2,1 km/h (1 Bft) O 82 ° 0 min 0,000 mm 0,0 UV-I 0 W/m² 2,8 °C 3,2 km/h (1 Bft)
25.11.2016 23:53 3,3 °C 3,3 °C 97 % 1017,9 hPa 0,0 mm 2,3 km/h (1 Bft) O 82 ° 0 min 0,000 mm 0,0 UV-I 0 W/m² 2,9 °C 3,2 km/h (1 Bft)
25.11.2016 23:54 3,2 °C 3,3 °C 97 % 1017,8 hPa 0,0 mm 1,3 km/h (1 Bft) O 82 ° 0 min 0,000 mm 0,0 UV-I 0 W/m² 2,8 °C 1,6 km/h (1 Bft)
25.11.2016 23:55 3,2 °C 3,3 °C 97 % 1017,9 hPa 0,0 mm 3,0 km/h (1 Bft) O-SO 114 ° 0 min 0,000 mm 0,0 UV-I 0 W/m² 2,8 °C 4,8 km/h (1 Bft)
25.11.2016 23:56 3,2 °C 3,3 °C 97 % 1017,9 hPa 0,0 mm 3,1 km/h (1 Bft) O-SO 113 ° 0 min 0,000 mm 0,0 UV-I 0 W/m² 2,8 °C 4,8 km/h (1 Bft)
25.11.2016 23:57 3,2 °C 3,3 °C 97 % 1017,8 hPa 0,0 mm 1,3 km/h (1 Bft) O-SO 113 ° 0 min 0,000 mm 0,0 UV-I 0 W/m² 2,8 °C 1,6 km/h (1 Bft)
25.11.2016 23:58 3,2 °C 3,2 °C 97 % 1017,9 hPa 0,0 mm 2,2 km/h (1 Bft) O-SO 113 ° 0 min 0,000 mm 0,0 UV-I 0 W/m² 2,8 °C 3,2 km/h (1 Bft)
25.11.2016 23:59 3,2 °C 3,2 °C 97 % 1017,9 hPa 0,0 mm 1,5 km/h (1 Bft) O-SO 113 ° 0 min 0,000 mm 0,0 UV-I 0 W/m² 2,8 °C 1,6 km/h (1 Bft)
_ Min-Zeit 09:12 06:50 06:14 04:55 - 23:44 - - - - - - 06:14 23:44
Minimum _ 2,7 °C 2,7 °C 96 % 1014,5 hPa - 0,0 km/h (0 Bft) - - - - - - 2,1 °C 0,0 km/h (0 Bft)
_ Max-Zeit 23:53 23:57 23:59 19:54 20:02 10:28 - - 23:59 13:00 23:59 12:47 23:53 09:50
Maximum _ 3,3 °C 3,3 °C 97 % 1018,3 hPa 0,2 mm 14,0 km/h
NO (3 Bft)
- - 0 min 0,025 mm 0,0 UV-I 51 W/m² 2,9 °C 20,9 km/h
O-NO (4 Bft)
Durchschnitt _ 3,0 °C 3,0 °C 97 % 1016,1 hPa #0,2 mm 4,2 km/h (1 Bft) O-NO - #0 min. #0,025 mm 0,0 UV-I 7 W/m² 2,5 °C 6,7 km/h (2 Bft)